﻿<?xml version="1.0" encoding="utf-8"?><gpx creator="Garmin Desktop App" version="1.1" xsi:schemaLocation="http://www.topografix.com/GPX/1/1 http://www.topografix.com/GPX/1/1/gpx.xsd http://www.garmin.com/xmlschemas/WaypointExtension/v1 http://www8.garmin.com/xmlschemas/WaypointExtensionv1.xsd http://www.garmin.com/xmlschemas/TrackPointExtension/v1 http://www.garmin.com/xmlschemas/TrackPointExtensionv1.xsd http://www.garmin.com/xmlschemas/GpxExtensions/v3 http://www8.garmin.com/xmlschemas/GpxExtensionsv3.xsd http://www.garmin.com/xmlschemas/ActivityExtension/v1 http://www8.garmin.com/xmlschemas/ActivityExtensionv1.xsd http://www.garmin.com/xmlschemas/AdventuresExtensions/v1 http://www8.garmin.com/xmlschemas/AdventuresExtensionv1.xsd http://www.garmin.com/xmlschemas/PressureExtension/v1 http://www.garmin.com/xmlschemas/PressureExtensionv1.xsd http://www.garmin.com/xmlschemas/TripExtensions/v1 http://www.garmin.com/xmlschemas/TripExtensionsv1.xsd http://www.garmin.com/xmlschemas/TripMetaDataExtensions/v1 http://www.garmin.com/xmlschemas/TripMetaDataExtensionsv1.xsd http://www.garmin.com/xmlschemas/ViaPointTransportationModeExtensions/v1 http://www.garmin.com/xmlschemas/ViaPointTransportationModeExtensionsv1.xsd http://www.garmin.com/xmlschemas/CreationTimeExtension/v1 http://www.garmin.com/xmlschemas/CreationTimeExtensionsv1.xsd http://www.garmin.com/xmlschemas/AccelerationExtension/v1 http://www.garmin.com/xmlschemas/AccelerationExtensionv1.xsd http://www.garmin.com/xmlschemas/PowerExtension/v1 http://www.garmin.com/xmlschemas/PowerExtensionv1.xsd http://www.garmin.com/xmlschemas/VideoExtension/v1 http://www.garmin.com/xmlschemas/VideoExtensionv1.xsd" xmlns="http://www.topografix.com/GPX/1/1" xmlns:xsi="http://www.w3.org/2001/XMLSchema-instance" xmlns:wptx1="http://www.garmin.com/xmlschemas/WaypointExtension/v1" xmlns:gpxtrx="http://www.garmin.com/xmlschemas/GpxExtensions/v3" xmlns:gpxtpx="http://www.garmin.com/xmlschemas/TrackPointExtension/v1" xmlns:gpxx="http://www.garmin.com/xmlschemas/GpxExtensions/v3" xmlns:trp="http://www.garmin.com/xmlschemas/TripExtensions/v1" xmlns:adv="http://www.garmin.com/xmlschemas/AdventuresExtensions/v1" xmlns:prs="http://www.garmin.com/xmlschemas/PressureExtension/v1" xmlns:tmd="http://www.garmin.com/xmlschemas/TripMetaDataExtensions/v1" xmlns:vptm="http://www.garmin.com/xmlschemas/ViaPointTransportationModeExtensions/v1" xmlns:ctx="http://www.garmin.com/xmlschemas/CreationTimeExtension/v1" xmlns:gpxacc="http://www.garmin.com/xmlschemas/AccelerationExtension/v1" xmlns:gpxpx="http://www.garmin.com/xmlschemas/PowerExtension/v1" xmlns:vidx1="http://www.garmin.com/xmlschemas/VideoExtension/v1">

  <metadata>
    <link href="http://www.garmin.com">
      <text>Garmin International</text>
    </link>
    <time>2021-01-09T13:56:15Z</time>
    <bounds maxlat="45.938681038096547" maxlon="8.387472024187446" minlat="45.908269984647632" minlon="8.368156012147665" />
  </metadata>

  <trk>
    <name>cerano-croce</name>
    <extensions>
      <gpxx:TrackExtension>
        <gpxx:DisplayColor>Yellow</gpxx:DisplayColor>
      </gpxx:TrackExtension>
    </extensions>
    <trkseg>
      <trkpt lat="45.908269984647632" lon="8.387145968154073">
        <ele>1159.006592</ele>
        <time>2010-06-02T07:44:00Z</time>
      </trkpt>
      <trkpt lat="45.908269984647632" lon="8.387145968154073">
        <ele>1159.4873050000001</ele>
        <time>2010-06-02T07:44:01Z</time>
      </trkpt>
      <trkpt lat="45.908269984647632" lon="8.387145968154073">
        <ele>1159.006592</ele>
        <time>2010-06-02T07:44:02Z</time>
      </trkpt>
      <trkpt lat="45.908269984647632" lon="8.387145968154073">
        <ele>1157.564697</ele>
        <time>2010-06-02T07:44:20Z</time>
      </trkpt>
      <trkpt lat="45.908270990476012" lon="8.387145968154073">
        <ele>1162.3710940000001</ele>
        <time>2010-06-02T07:44:21Z</time>
      </trkpt>
      <trkpt lat="45.908270990476012" lon="8.387145968154073">
        <ele>1157.564697</ele>
        <time>2010-06-02T07:44:22Z</time>
      </trkpt>
      <trkpt lat="45.908270990476012" lon="8.387145968154073">
        <ele>1162.851807</ele>
        <time>2010-06-02T07:44:23Z</time>
      </trkpt>
      <trkpt lat="45.908270990476012" lon="8.387145968154073">
        <ele>1159.006592</ele>
        <time>2010-06-02T07:44:24Z</time>
      </trkpt>
      <trkpt lat="45.908271996304393" lon="8.38713901117444">
        <ele>1155.6420900000001</ele>
        <time>2010-06-02T07:45:44Z</time>
      </trkpt>
      <trkpt lat="45.908271996304393" lon="8.38713901117444">
        <ele>1161.890625</ele>
        <time>2010-06-02T07:45:45Z</time>
      </trkpt>
      <trkpt lat="45.908273002132773" lon="8.38713901117444">
        <ele>1159.006592</ele>
        <time>2010-06-02T07:45:47Z</time>
      </trkpt>
      <trkpt lat="45.90828800573945" lon="8.38711797259748">
        <ele>1154.680664</ele>
        <time>2010-06-02T07:46:30Z</time>
      </trkpt>
      <trkpt lat="45.908289011567831" lon="8.387116966769099">
        <ele>1159.9677730000001</ele>
        <time>2010-06-02T07:46:31Z</time>
      </trkpt>
      <trkpt lat="45.908291023224592" lon="8.387116966769099">
        <ele>1151.796875</ele>
        <time>2010-06-02T07:46:33Z</time>
      </trkpt>
      <trkpt lat="45.908293034881353" lon="8.38711797259748">
        <ele>1159.4873050000001</ele>
        <time>2010-06-02T07:46:34Z</time>
      </trkpt>
      <trkpt lat="45.908326981589198" lon="8.387067010626197">
        <ele>1159.006592</ele>
        <time>2010-06-02T07:47:02Z</time>
      </trkpt>
      <trkpt lat="45.908475005999207" lon="8.387025017291307">
        <ele>1158.525879</ele>
        <time>2010-06-02T07:47:16Z</time>
      </trkpt>
      <trkpt lat="45.908643985167146" lon="8.387068016454577">
        <ele>1159.9677730000001</ele>
        <time>2010-06-02T07:47:30Z</time>
      </trkpt>
      <trkpt lat="45.908820005133748" lon="8.387044966220856">
        <ele>1160.9291989999999</ele>
        <time>2010-06-02T07:47:45Z</time>
      </trkpt>
      <trkpt lat="45.908939028158784" lon="8.387054018676281">
        <ele>1161.890625</ele>
        <time>2010-06-02T07:47:55Z</time>
      </trkpt>
      <trkpt lat="45.909074982628226" lon="8.386956034228206">
        <ele>1161.890625</ele>
        <time>2010-06-02T07:48:08Z</time>
      </trkpt>
      <trkpt lat="45.90914798900485" lon="8.386725028976798">
        <ele>1162.851807</ele>
        <time>2010-06-02T07:48:24Z</time>
      </trkpt>
      <trkpt lat="45.909159975126386" lon="8.386695021763444">
        <ele>1162.3710940000001</ele>
        <time>2010-06-02T07:48:26Z</time>
      </trkpt>
      <trkpt lat="45.909289978444576" lon="8.386614974588156">
        <ele>1162.851807</ele>
        <time>2010-06-02T07:48:39Z</time>
      </trkpt>
      <trkpt lat="45.909472033381462" lon="8.38670901954174">
        <ele>1163.8129879999999</ele>
        <time>2010-06-02T07:48:52Z</time>
      </trkpt>
      <trkpt lat="45.909579992294312" lon="8.38679501786828">
        <ele>1164.2939449999999</ele>
        <time>2010-06-02T07:49:02Z</time>
      </trkpt>
      <trkpt lat="45.9096410125494" lon="8.386825025081635">
        <ele>1164.2939449999999</ele>
        <time>2010-06-02T07:49:08Z</time>
      </trkpt>
      <trkpt lat="45.90974997729063" lon="8.386899037286639">
        <ele>1164.774658</ele>
        <time>2010-06-02T07:49:17Z</time>
      </trkpt>
      <trkpt lat="45.909935971722007" lon="8.386898031458259">
        <ele>1165.7360839999999</ele>
        <time>2010-06-02T07:49:33Z</time>
      </trkpt>
      <trkpt lat="45.910002021118999" lon="8.38690297678113">
        <ele>1166.216553</ele>
        <time>2010-06-02T07:49:40Z</time>
      </trkpt>
      <trkpt lat="45.910153985023499" lon="8.386958967894316">
        <ele>1166.216553</ele>
        <time>2010-06-02T07:49:51Z</time>
      </trkpt>
      <trkpt lat="45.910321958363056" lon="8.387043038383126">
        <ele>1166.6972659999999</ele>
        <time>2010-06-02T07:50:05Z</time>
      </trkpt>
      <trkpt lat="45.910465037450194" lon="8.387153008952737">
        <ele>1167.658447</ele>
        <time>2010-06-02T07:50:18Z</time>
      </trkpt>
      <trkpt lat="45.91056402772665" lon="8.3872049767524">
        <ele>1168.1391599999999</ele>
        <time>2010-06-02T07:50:27Z</time>
      </trkpt>
      <trkpt lat="45.910721020773053" lon="8.38733397424221">
        <ele>1168.1391599999999</ele>
        <time>2010-06-02T07:50:47Z</time>
      </trkpt>
      <trkpt lat="45.910691013559699" lon="8.38743899948895">
        <ele>1169.5812989999999</ele>
        <time>2010-06-02T07:50:59Z</time>
      </trkpt>
      <trkpt lat="45.910673998296261" lon="8.387450985610485">
        <ele>1169.100586</ele>
        <time>2010-06-02T07:51:09Z</time>
      </trkpt>
      <trkpt lat="45.910557992756367" lon="8.387405974790454">
        <ele>1171.5036620000001</ele>
        <time>2010-06-02T07:51:24Z</time>
      </trkpt>
      <trkpt lat="45.910535026341677" lon="8.387423995882273">
        <ele>1171.023193</ele>
        <time>2010-06-02T07:52:03Z</time>
      </trkpt>
      <trkpt lat="45.91065002605319" lon="8.387454003095627">
        <ele>1170.5424800000001</ele>
        <time>2010-06-02T07:53:03Z</time>
      </trkpt>
      <trkpt lat="45.910748010501266" lon="8.387383008375764">
        <ele>1167.658447</ele>
        <time>2010-06-02T07:53:22Z</time>
      </trkpt>
      <trkpt lat="45.910872984677553" lon="8.387282006442547">
        <ele>1167.658447</ele>
        <time>2010-06-02T07:53:36Z</time>
      </trkpt>
      <trkpt lat="45.91090802103281" lon="8.387222997844219">
        <ele>1167.658447</ele>
        <time>2010-06-02T07:53:55Z</time>
      </trkpt>
      <trkpt lat="45.911028971895576" lon="8.387045972049236">
        <ele>1168.1391599999999</ele>
        <time>2010-06-02T07:54:09Z</time>
      </trkpt>
      <trkpt lat="45.911064008250833" lon="8.386954022571445">
        <ele>1168.6198730000001</ele>
        <time>2010-06-02T07:54:15Z</time>
      </trkpt>
      <trkpt lat="45.911109019070864" lon="8.386830976232886">
        <ele>1169.5812989999999</ele>
        <time>2010-06-02T07:54:24Z</time>
      </trkpt>
      <trkpt lat="45.911150006577373" lon="8.386824019253254">
        <ele>1170.061768</ele>
        <time>2010-06-02T07:54:45Z</time>
      </trkpt>
      <trkpt lat="45.911197029054165" lon="8.386867018416524">
        <ele>1170.5424800000001</ele>
        <time>2010-06-02T07:54:52Z</time>
      </trkpt>
      <trkpt lat="45.911472039297223" lon="8.387042032554746">
        <ele>1172.9458010000001</ele>
        <time>2010-06-02T07:55:14Z</time>
      </trkpt>
      <trkpt lat="45.911619979888201" lon="8.387170024216175">
        <ele>1176.310303</ele>
        <time>2010-06-02T07:55:29Z</time>
      </trkpt>
      <trkpt lat="45.911751994863153" lon="8.387326011434197">
        <ele>1179.194092</ele>
        <time>2010-06-02T07:55:49Z</time>
      </trkpt>
      <trkpt lat="45.911748977378011" lon="8.387241018936038">
        <ele>1181.1171879999999</ele>
        <time>2010-06-02T07:56:00Z</time>
      </trkpt>
      <trkpt lat="45.911713019013405" lon="8.387215035036206">
        <ele>1181.5976559999999</ele>
        <time>2010-06-02T07:56:04Z</time>
      </trkpt>
      <trkpt lat="45.911622997373343" lon="8.387121995911002">
        <ele>1182.559082</ele>
        <time>2010-06-02T07:56:14Z</time>
      </trkpt>
      <trkpt lat="45.911566000431776" lon="8.387005990371108">
        <ele>1184.0009769999999</ele>
        <time>2010-06-02T07:56:26Z</time>
      </trkpt>
      <trkpt lat="45.911562982946634" lon="8.386943964287639">
        <ele>1184.481689</ele>
        <time>2010-06-02T07:56:31Z</time>
      </trkpt>
      <trkpt lat="45.911716036498547" lon="8.386953016743064">
        <ele>1187.3654790000001</ele>
        <time>2010-06-02T07:56:49Z</time>
      </trkpt>
      <trkpt lat="45.911889038980007" lon="8.386994004249573">
        <ele>1188.8076169999999</ele>
        <time>2010-06-02T07:57:04Z</time>
      </trkpt>
      <trkpt lat="45.912080984562635" lon="8.386871041730046">
        <ele>1192.1721190000001</ele>
        <time>2010-06-02T07:57:30Z</time>
      </trkpt>
      <trkpt lat="45.912281982600689" lon="8.386723017320037">
        <ele>1195.055908</ele>
        <time>2010-06-02T07:57:55Z</time>
      </trkpt>
      <trkpt lat="45.912464037537575" lon="8.386664008721709">
        <ele>1198.9013669999999</ele>
        <time>2010-06-02T07:58:18Z</time>
      </trkpt>
      <trkpt lat="45.912640979513526" lon="8.386543979868293">
        <ele>1201.7854</ele>
        <time>2010-06-02T07:58:41Z</time>
      </trkpt>
      <trkpt lat="45.912787998095155" lon="8.386495029553771">
        <ele>1205.1499020000001</ele>
        <time>2010-06-02T07:58:59Z</time>
      </trkpt>
      <trkpt lat="45.912848012521863" lon="8.386305011808872">
        <ele>1208.033936</ele>
        <time>2010-06-02T07:59:19Z</time>
      </trkpt>
      <trkpt lat="45.912723960354924" lon="8.386323032900691">
        <ele>1211.3984379999999</ele>
        <time>2010-06-02T07:59:38Z</time>
      </trkpt>
      <trkpt lat="45.912546012550592" lon="8.386353040114045">
        <ele>1213.8017580000001</ele>
        <time>2010-06-02T08:00:02Z</time>
      </trkpt>
      <trkpt lat="45.912384996190667" lon="8.386306017637253">
        <ele>1216.205078</ele>
        <time>2010-06-02T08:00:18Z</time>
      </trkpt>
      <trkpt lat="45.91226102784276" lon="8.386244997382164">
        <ele>1217.6469729999999</ele>
        <time>2010-06-02T08:00:41Z</time>
      </trkpt>
      <trkpt lat="45.912364041432738" lon="8.386094039306045">
        <ele>1221.0117190000001</ele>
        <time>2010-06-02T08:01:06Z</time>
      </trkpt>
      <trkpt lat="45.912505025044084" lon="8.386100996285677">
        <ele>1222.9343260000001</ele>
        <time>2010-06-02T08:01:21Z</time>
      </trkpt>
      <trkpt lat="45.912556992843747" lon="8.386043999344111">
        <ele>1223.8955080000001</ele>
        <time>2010-06-02T08:01:44Z</time>
      </trkpt>
      <trkpt lat="45.912653971463442" lon="8.386036036536098">
        <ele>1224.376221</ele>
        <time>2010-06-02T08:02:01Z</time>
      </trkpt>
      <trkpt lat="45.912719015032053" lon="8.385967975482345">
        <ele>1226.298828</ele>
        <time>2010-06-02T08:02:28Z</time>
      </trkpt>
      <trkpt lat="45.912755979225039" lon="8.385754991322756">
        <ele>1229.182861</ele>
        <time>2010-06-02T08:02:45Z</time>
      </trkpt>
      <trkpt lat="45.912775006145239" lon="8.385573020204902">
        <ele>1230.625</ele>
        <time>2010-06-02T08:02:58Z</time>
      </trkpt>
      <trkpt lat="45.912806019186974" lon="8.385383002460003">
        <ele>1232.547607</ele>
        <time>2010-06-02T08:03:14Z</time>
      </trkpt>
      <trkpt lat="45.912753967568278" lon="8.385161971673369">
        <ele>1235.4313959999999</ele>
        <time>2010-06-02T08:03:30Z</time>
      </trkpt>
      <trkpt lat="45.912724966183305" lon="8.384908000007272">
        <ele>1238.3154300000001</ele>
        <time>2010-06-02T08:03:49Z</time>
      </trkpt>
      <trkpt lat="45.912693031132221" lon="8.384629972279072">
        <ele>1241.679932</ele>
        <time>2010-06-02T08:04:22Z</time>
      </trkpt>
      <trkpt lat="45.912708034738898" lon="8.384459987282753">
        <ele>1243.602539</ele>
        <time>2010-06-02T08:04:37Z</time>
      </trkpt>
      <trkpt lat="45.912740975618362" lon="8.384319003671408">
        <ele>1245.044678</ele>
        <time>2010-06-02T08:04:48Z</time>
      </trkpt>
      <trkpt lat="45.912789003923535" lon="8.384101996198297">
        <ele>1247.4479980000001</ele>
        <time>2010-06-02T08:05:06Z</time>
      </trkpt>
      <trkpt lat="45.912828985601664" lon="8.383940979838371">
        <ele>1248.889893</ele>
        <time>2010-06-02T08:05:18Z</time>
      </trkpt>
      <trkpt lat="45.912852035835385" lon="8.383802007883787">
        <ele>1250.3320309999999</ele>
        <time>2010-06-02T08:05:30Z</time>
      </trkpt>
      <trkpt lat="45.912797972559929" lon="8.38361500762403">
        <ele>1253.2158199999999</ele>
        <time>2010-06-02T08:06:13Z</time>
      </trkpt>
      <trkpt lat="45.912875002250075" lon="8.383709974586964">
        <ele>1255.6191409999999</ele>
        <time>2010-06-02T08:08:37Z</time>
      </trkpt>
      <trkpt lat="45.913011962547898" lon="8.38389202952385">
        <ele>1258.983643</ele>
        <time>2010-06-02T08:08:52Z</time>
      </trkpt>
      <trkpt lat="45.913063008338213" lon="8.384068971499801">
        <ele>1260.4257809999999</ele>
        <time>2010-06-02T08:09:06Z</time>
      </trkpt>
      <trkpt lat="45.913070971146226" lon="8.384184977039695">
        <ele>1260.4257809999999</ele>
        <time>2010-06-02T08:09:12Z</time>
      </trkpt>
      <trkpt lat="45.913084968924522" lon="8.384305005893111">
        <ele>1260.9064940000001</ele>
        <time>2010-06-02T08:09:19Z</time>
      </trkpt>
      <trkpt lat="45.913105001673102" lon="8.384331995621324">
        <ele>1260.9064940000001</ele>
        <time>2010-06-02T08:09:21Z</time>
      </trkpt>
      <trkpt lat="45.913192005828023" lon="8.384368037804961">
        <ele>1261.8679199999999</ele>
        <time>2010-06-02T08:09:46Z</time>
      </trkpt>
      <trkpt lat="45.913299964740872" lon="8.384400978684425">
        <ele>1261.8679199999999</ele>
        <time>2010-06-02T08:09:57Z</time>
      </trkpt>
      <trkpt lat="45.913343969732523" lon="8.384421011433005">
        <ele>1262.348389</ele>
        <time>2010-06-02T08:10:01Z</time>
      </trkpt>
      <trkpt lat="45.913534993305802" lon="8.384466022253037">
        <ele>1261.8679199999999</ele>
        <time>2010-06-02T08:10:16Z</time>
      </trkpt>
      <trkpt lat="45.913574974983931" lon="8.384475996717811">
        <ele>1261.8679199999999</ele>
        <time>2010-06-02T08:10:19Z</time>
      </trkpt>
      <trkpt lat="45.913777984678745" lon="8.384471973404288">
        <ele>1261.8679199999999</ele>
        <time>2010-06-02T08:10:37Z</time>
      </trkpt>
      <trkpt lat="45.913836993277073" lon="8.384403996169567">
        <ele>1260.4257809999999</ele>
        <time>2010-06-02T08:10:53Z</time>
      </trkpt>
      <trkpt lat="45.913844034075737" lon="8.384349010884762">
        <ele>1259.9448239999999</ele>
        <time>2010-06-02T08:11:18Z</time>
      </trkpt>
      <trkpt lat="45.913860965520144" lon="8.384199980646372">
        <ele>1259.9448239999999</ele>
        <time>2010-06-02T08:12:27Z</time>
      </trkpt>
      <trkpt lat="45.914014019072056" lon="8.38402102701366">
        <ele>1252.735107</ele>
        <time>2010-06-02T08:12:49Z</time>
      </trkpt>
      <trkpt lat="45.914079984650016" lon="8.38395900093019">
        <ele>1257.0610349999999</ele>
        <time>2010-06-02T08:12:54Z</time>
      </trkpt>
      <trkpt lat="45.914184004068375" lon="8.383798990398645">
        <ele>1257.0610349999999</ele>
        <time>2010-06-02T08:13:09Z</time>
      </trkpt>
      <trkpt lat="45.914194984361529" lon="8.383738975971937">
        <ele>1257.0610349999999</ele>
        <time>2010-06-02T08:13:12Z</time>
      </trkpt>
      <trkpt lat="45.914304032921791" lon="8.383511994034052">
        <ele>1254.6577150000001</ele>
        <time>2010-06-02T08:13:29Z</time>
      </trkpt>
      <trkpt lat="45.914718015119433" lon="8.383387019857764">
        <ele>1251.2932129999999</ele>
        <time>2010-06-02T08:14:39Z</time>
      </trkpt>
      <trkpt lat="45.914794960990548" lon="8.383079990744591">
        <ele>1247.928711</ele>
        <time>2010-06-02T08:15:01Z</time>
      </trkpt>
      <trkpt lat="45.914913984015584" lon="8.382888967171311">
        <ele>1245.044678</ele>
        <time>2010-06-02T08:15:28Z</time>
      </trkpt>
      <trkpt lat="45.91535403393209" lon="8.382624015212059">
        <ele>1243.602539</ele>
        <time>2010-06-02T08:16:30Z</time>
      </trkpt>
      <trkpt lat="45.915690986439586" lon="8.382286978885531">
        <ele>1242.1606449999999</ele>
        <time>2010-06-02T08:17:11Z</time>
      </trkpt>
      <trkpt lat="45.915886033326387" lon="8.382384963333607">
        <ele>1242.1606449999999</ele>
        <time>2010-06-02T08:18:00Z</time>
      </trkpt>
      <trkpt lat="45.915868012234569" lon="8.382373983040452">
        <ele>1243.1218260000001</ele>
        <time>2010-06-02T08:18:19Z</time>
      </trkpt>
      <trkpt lat="45.916034979745746" lon="8.382462998852134">
        <ele>1243.1218260000001</ele>
        <time>2010-06-02T08:18:40Z</time>
      </trkpt>
      <trkpt lat="45.916119972243905" lon="8.382509015500546">
        <ele>1244.083496</ele>
        <time>2010-06-02T08:18:47Z</time>
      </trkpt>
      <trkpt lat="45.916248969733715" lon="8.382672965526581">
        <ele>1246.9672849999999</ele>
        <time>2010-06-02T08:19:07Z</time>
      </trkpt>
      <trkpt lat="45.916341003030539" lon="8.382812021300197">
        <ele>1248.889893</ele>
        <time>2010-06-02T08:19:26Z</time>
      </trkpt>
      <trkpt lat="45.916529009118676" lon="8.382881004363298">
        <ele>1249.851318</ele>
        <time>2010-06-02T08:19:42Z</time>
      </trkpt>
      <trkpt lat="45.917041981592774" lon="8.382910005748272">
        <ele>1253.2158199999999</ele>
        <time>2010-06-02T08:21:15Z</time>
      </trkpt>
      <trkpt lat="45.917314980179071" lon="8.383002961054444">
        <ele>1256.0996090000001</ele>
        <time>2010-06-02T08:21:44Z</time>
      </trkpt>
      <trkpt lat="45.91769996099174" lon="8.383104968816042">
        <ele>1259.9448239999999</ele>
        <time>2010-06-02T08:22:34Z</time>
      </trkpt>
      <trkpt lat="45.917915962636471" lon="8.383036991581321">
        <ele>1262.8291019999999</ele>
        <time>2010-06-02T08:23:04Z</time>
      </trkpt>
      <trkpt lat="45.918175969272852" lon="8.3831209782511">
        <ele>1263.309814</ele>
        <time>2010-06-02T08:23:37Z</time>
      </trkpt>
      <trkpt lat="45.918653989210725" lon="8.383625987917185">
        <ele>1266.1936040000001</ele>
        <time>2010-06-02T08:24:30Z</time>
      </trkpt>
      <trkpt lat="45.918711991980672" lon="8.383759008720517">
        <ele>1266.6743160000001</ele>
        <time>2010-06-02T08:24:41Z</time>
      </trkpt>
      <trkpt lat="45.918862028047442" lon="8.384010968729854">
        <ele>1268.5969239999999</ele>
        <time>2010-06-02T08:25:02Z</time>
      </trkpt>
      <trkpt lat="45.918861022219062" lon="8.384026978164911">
        <ele>1268.5969239999999</ele>
        <time>2010-06-02T08:25:03Z</time>
      </trkpt>
      <trkpt lat="45.918863033875823" lon="8.384128985926509">
        <ele>1269.55835</ele>
        <time>2010-06-02T08:25:14Z</time>
      </trkpt>
      <trkpt lat="45.91890100389719" lon="8.384204003959894">
        <ele>1269.55835</ele>
        <time>2010-06-02T08:25:20Z</time>
      </trkpt>
      <trkpt lat="45.918917013332248" lon="8.384212972596288">
        <ele>1269.0776370000001</ele>
        <time>2010-06-02T08:25:42Z</time>
      </trkpt>
      <trkpt lat="45.919051039963961" lon="8.384386980906129">
        <ele>1271.9614260000001</ele>
        <time>2010-06-02T08:26:14Z</time>
      </trkpt>
      <trkpt lat="45.919126980006695" lon="8.384498041123152">
        <ele>1275.325928</ele>
        <time>2010-06-02T08:26:31Z</time>
      </trkpt>
      <trkpt lat="45.919143995270133" lon="8.384458981454372">
        <ele>1278.2102050000001</ele>
        <time>2010-06-02T08:27:17Z</time>
      </trkpt>
      <trkpt lat="45.919228987768292" lon="8.384493011981249">
        <ele>1281.0942379999999</ele>
        <time>2010-06-02T08:27:31Z</time>
      </trkpt>
      <trkpt lat="45.919364020228386" lon="8.384542968124151">
        <ele>1284.45874</ele>
        <time>2010-06-02T08:27:46Z</time>
      </trkpt>
      <trkpt lat="45.919428979977965" lon="8.384573981165886">
        <ele>1287.342529</ele>
        <time>2010-06-02T08:28:02Z</time>
      </trkpt>
      <trkpt lat="45.919466027989984" lon="8.384578004479408">
        <ele>1290.7070309999999</ele>
        <time>2010-06-02T08:28:20Z</time>
      </trkpt>
      <trkpt lat="45.919496035203338" lon="8.384590996429324">
        <ele>1293.5913089999999</ele>
        <time>2010-06-02T08:28:44Z</time>
      </trkpt>
      <trkpt lat="45.919542973861098" lon="8.384615974500775">
        <ele>1297.4365230000001</ele>
        <time>2010-06-02T08:28:55Z</time>
      </trkpt>
      <trkpt lat="45.919578010216355" lon="8.384647993370891">
        <ele>1299.3591309999999</ele>
        <time>2010-06-02T08:29:12Z</time>
      </trkpt>
      <trkpt lat="45.919616986066103" lon="8.384750001132488">
        <ele>1302.7236330000001</ele>
        <time>2010-06-02T08:29:26Z</time>
      </trkpt>
      <trkpt lat="45.919622015208006" lon="8.384744971990585">
        <ele>1305.126953</ele>
        <time>2010-06-02T08:29:33Z</time>
      </trkpt>
      <trkpt lat="45.919630983844399" lon="8.384748995304108">
        <ele>1302.7236330000001</ele>
        <time>2010-06-02T08:29:36Z</time>
      </trkpt>
      <trkpt lat="45.919643975794315" lon="8.384755030274391">
        <ele>1305.6076660000001</ele>
        <time>2010-06-02T08:29:38Z</time>
      </trkpt>
      <trkpt lat="45.919658979400992" lon="8.384765004739165">
        <ele>1306.5688479999999</ele>
        <time>2010-06-02T08:29:40Z</time>
      </trkpt>
      <trkpt lat="45.919699966907501" lon="8.384771039709449">
        <ele>1307.5302730000001</ele>
        <time>2010-06-02T08:29:58Z</time>
      </trkpt>
      <trkpt lat="45.919745983555913" lon="8.384817978367209">
        <ele>1307.049561</ele>
        <time>2010-06-02T08:30:14Z</time>
      </trkpt>
      <trkpt lat="45.919741038233042" lon="8.384815966710448">
        <ele>1308.4916989999999</ele>
        <time>2010-06-02T08:30:17Z</time>
      </trkpt>
      <trkpt lat="45.91980398632586" lon="8.384886039420962">
        <ele>1311.8564449999999</ele>
        <time>2010-06-02T08:30:35Z</time>
      </trkpt>
      <trkpt lat="45.919802980497479" lon="8.384892996400595">
        <ele>1312.336914</ele>
        <time>2010-06-02T08:30:48Z</time>
      </trkpt>
      <trkpt lat="45.919843968003988" lon="8.384906994178891">
        <ele>1315.7016599999999</ele>
        <time>2010-06-02T08:31:49Z</time>
      </trkpt>
      <trkpt lat="45.919918986037374" lon="8.384913029149175">
        <ele>1318.5854489999999</ele>
        <time>2010-06-02T08:32:06Z</time>
      </trkpt>
      <trkpt lat="45.919989980757236" lon="8.384923003613949">
        <ele>1321.9499510000001</ele>
        <time>2010-06-02T08:32:33Z</time>
      </trkpt>
      <trkpt lat="45.920059969648719" lon="8.384930966421962">
        <ele>1324.8342290000001</ele>
        <time>2010-06-02T08:32:48Z</time>
      </trkpt>
      <trkpt lat="45.920101962983608" lon="8.384980000555515">
        <ele>1328.1987300000001</ele>
        <time>2010-06-02T08:33:03Z</time>
      </trkpt>
      <trkpt lat="45.920129958540201" lon="8.385058036074042">
        <ele>1331.082764</ele>
        <time>2010-06-02T08:33:52Z</time>
      </trkpt>
      <trkpt lat="45.920158959925175" lon="8.385087959468365">
        <ele>1334.4472659999999</ele>
        <time>2010-06-02T08:34:05Z</time>
      </trkpt>
      <trkpt lat="45.920200031250715" lon="8.385135987773538">
        <ele>1337.3310550000001</ele>
        <time>2010-06-02T08:34:17Z</time>
      </trkpt>
      <trkpt lat="45.920272031798959" lon="8.385189967229962">
        <ele>1340.6958010000001</ele>
        <time>2010-06-02T08:34:59Z</time>
      </trkpt>
      <trkpt lat="45.920273037627339" lon="8.385245958343148">
        <ele>1340.6958010000001</ele>
        <time>2010-06-02T08:35:24Z</time>
      </trkpt>
      <trkpt lat="45.920350989326835" lon="8.385378979146481">
        <ele>1344.060547</ele>
        <time>2010-06-02T08:36:08Z</time>
      </trkpt>
      <trkpt lat="45.920409997925162" lon="8.385453997179866">
        <ele>1345.983154</ele>
        <time>2010-06-02T08:36:18Z</time>
      </trkpt>
      <trkpt lat="45.920608984306455" lon="8.385637979954481">
        <ele>1350.309082</ele>
        <time>2010-06-02T08:36:59Z</time>
      </trkpt>
      <trkpt lat="45.920607978478074" lon="8.385638985782862">
        <ele>1350.309082</ele>
        <time>2010-06-02T08:37:00Z</time>
      </trkpt>
      <trkpt lat="45.920608984306455" lon="8.385645020753145">
        <ele>1348.3862300000001</ele>
        <time>2010-06-02T08:37:03Z</time>
      </trkpt>
      <trkpt lat="45.920759020373225" lon="8.385679973289371">
        <ele>1351.270264</ele>
        <time>2010-06-02T08:37:34Z</time>
      </trkpt>
      <trkpt lat="45.92083303257823" lon="8.38569900020957">
        <ele>1354.154297</ele>
        <time>2010-06-02T08:37:49Z</time>
      </trkpt>
      <trkpt lat="45.920957000926137" lon="8.385732024908066">
        <ele>1357.519043</ele>
        <time>2010-06-02T08:38:19Z</time>
      </trkpt>
      <trkpt lat="45.92107099480927" lon="8.385788016021252">
        <ele>1360.402832</ele>
        <time>2010-06-02T08:38:46Z</time>
      </trkpt>
      <trkpt lat="45.921166967600584" lon="8.385788016021252">
        <ele>1361.844971</ele>
        <time>2010-06-02T08:39:00Z</time>
      </trkpt>
      <trkpt lat="45.921240979805589" lon="8.385795978829265">
        <ele>1361.844971</ele>
        <time>2010-06-02T08:39:12Z</time>
      </trkpt>
      <trkpt lat="45.921334018930793" lon="8.385858004912734">
        <ele>1364.72876</ele>
        <time>2010-06-02T08:39:31Z</time>
      </trkpt>
      <trkpt lat="45.921409036964178" lon="8.385861022397876">
        <ele>1367.6125489999999</ele>
        <time>2010-06-02T08:39:42Z</time>
      </trkpt>
      <trkpt lat="45.921470979228616" lon="8.38589396327734">
        <ele>1370.9772949999999</ele>
        <time>2010-06-02T08:39:59Z</time>
      </trkpt>
      <trkpt lat="45.921572986990213" lon="8.385945009067655">
        <ele>1374.3420410000001</ele>
        <time>2010-06-02T08:40:21Z</time>
      </trkpt>
      <trkpt lat="45.921599976718426" lon="8.386010974645615">
        <ele>1377.2260739999999</ele>
        <time>2010-06-02T08:41:22Z</time>
      </trkpt>
      <trkpt lat="45.921654962003231" lon="8.386006029322743">
        <ele>1380.5905760000001</ele>
        <time>2010-06-02T08:41:34Z</time>
      </trkpt>
      <trkpt lat="45.921735009178519" lon="8.386017009615898">
        <ele>1383.474365</ele>
        <time>2010-06-02T08:41:52Z</time>
      </trkpt>
      <trkpt lat="45.921754958108068" lon="8.386040981858969">
        <ele>1386.8388669999999</ele>
        <time>2010-06-02T08:42:24Z</time>
      </trkpt>
      <trkpt lat="45.921817990019917" lon="8.38604299351573">
        <ele>1389.7231449999999</ele>
        <time>2010-06-02T08:42:41Z</time>
      </trkpt>
      <trkpt lat="45.921915974467993" lon="8.386055985465646">
        <ele>1392.607178</ele>
        <time>2010-06-02T08:43:13Z</time>
      </trkpt>
      <trkpt lat="45.921965008601546" lon="8.386113988235593">
        <ele>1395.9716800000001</ele>
        <time>2010-06-02T08:43:37Z</time>
      </trkpt>
      <trkpt lat="45.922007001936436" lon="8.386169979348779">
        <ele>1399.336182</ele>
        <time>2010-06-02T08:44:21Z</time>
      </trkpt>
      <trkpt lat="45.922052012756467" lon="8.386193029582501">
        <ele>1402.219971</ele>
        <time>2010-06-02T08:44:49Z</time>
      </trkpt>
      <trkpt lat="45.922067016363144" lon="8.386211972683668">
        <ele>1405.1042480000001</ele>
        <time>2010-06-02T08:45:34Z</time>
      </trkpt>
      <trkpt lat="45.922074979171157" lon="8.386217001825571">
        <ele>1405.584961</ele>
        <time>2010-06-02T08:45:35Z</time>
      </trkpt>
      <trkpt lat="45.922110015526414" lon="8.386237034574151">
        <ele>1409.4301760000001</ele>
        <time>2010-06-02T08:45:44Z</time>
      </trkpt>
      <trkpt lat="45.922110015526414" lon="8.386239968240261">
        <ele>1409.9106449999999</ele>
        <time>2010-06-02T08:45:46Z</time>
      </trkpt>
      <trkpt lat="45.9221660066396" lon="8.386243991553783">
        <ele>1412.794678</ele>
        <time>2010-06-02T08:45:54Z</time>
      </trkpt>
      <trkpt lat="45.922237001359463" lon="8.386290008202195">
        <ele>1414.236572</ele>
        <time>2010-06-02T08:46:32Z</time>
      </trkpt>
      <trkpt lat="45.922239013016224" lon="8.386263018473983">
        <ele>1414.236572</ele>
        <time>2010-06-02T08:46:59Z</time>
      </trkpt>
      <trkpt lat="45.922255022451282" lon="8.386275004595518">
        <ele>1417.6010739999999</ele>
        <time>2010-06-02T08:47:11Z</time>
      </trkpt>
      <trkpt lat="45.922258961945772" lon="8.386279027909041">
        <ele>1418.5625</ele>
        <time>2010-06-02T08:47:14Z</time>
      </trkpt>
      <trkpt lat="45.922269020229578" lon="8.38630098849535">
        <ele>1421.927246</ele>
        <time>2010-06-02T08:47:17Z</time>
      </trkpt>
      <trkpt lat="45.922271031886339" lon="8.386301994323731">
        <ele>1421.446533</ele>
        <time>2010-06-02T08:47:18Z</time>
      </trkpt>
      <trkpt lat="45.922326017171144" lon="8.386305011808872">
        <ele>1423.369385</ele>
        <time>2010-06-02T08:47:43Z</time>
      </trkpt>
      <trkpt lat="45.922344038262963" lon="8.386376006528735">
        <ele>1426.2531739999999</ele>
        <time>2010-06-02T08:48:07Z</time>
      </trkpt>
      <trkpt lat="45.922344960272312" lon="8.38647298514843">
        <ele>1429.6176760000001</ele>
        <time>2010-06-02T08:48:59Z</time>
      </trkpt>
      <trkpt lat="45.922384019941092" lon="8.386586979031563">
        <ele>1432.5017089999999</ele>
        <time>2010-06-02T08:49:40Z</time>
      </trkpt>
      <trkpt lat="45.922374967485666" lon="8.386647999286652">
        <ele>1434.905029</ele>
        <time>2010-06-02T08:50:13Z</time>
      </trkpt>
      <trkpt lat="45.922459959983826" lon="8.386679012328386">
        <ele>1438.269775</ele>
        <time>2010-06-02T08:51:21Z</time>
      </trkpt>
      <trkpt lat="45.922494996339083" lon="8.386697033420205">
        <ele>1441.153564</ele>
        <time>2010-06-02T08:51:40Z</time>
      </trkpt>
      <trkpt lat="45.922518968582153" lon="8.38675101287663">
        <ele>1444.5180660000001</ele>
        <time>2010-06-02T08:51:54Z</time>
      </trkpt>
      <trkpt lat="45.922570014372468" lon="8.386821001768112">
        <ele>1447.4021</ele>
        <time>2010-06-02T08:52:38Z</time>
      </trkpt>
      <trkpt lat="45.922574959695339" lon="8.386868024244905">
        <ele>1450.2861330000001</ele>
        <time>2010-06-02T08:53:00Z</time>
      </trkpt>
      <trkpt lat="45.922590969130397" lon="8.386876992881298">
        <ele>1451.7280270000001</ele>
        <time>2010-06-02T08:53:05Z</time>
      </trkpt>
      <trkpt lat="45.922626005485654" lon="8.386862995103002">
        <ele>1450.2861330000001</ele>
        <time>2010-06-02T08:53:26Z</time>
      </trkpt>
      <trkpt lat="45.922675039619207" lon="8.386866012588143">
        <ele>1452.689453</ele>
        <time>2010-06-02T08:53:51Z</time>
      </trkpt>
      <trkpt lat="45.922715021297336" lon="8.386895013973117">
        <ele>1456.0539550000001</ele>
        <time>2010-06-02T08:53:59Z</time>
      </trkpt>
      <trkpt lat="45.922735976055264" lon="8.38692300952971">
        <ele>1459.4187010000001</ele>
        <time>2010-06-02T08:54:23Z</time>
      </trkpt>
      <trkpt lat="45.922737987712026" lon="8.386922003701329">
        <ele>1456.0539550000001</ele>
        <time>2010-06-02T08:54:25Z</time>
      </trkpt>
      <trkpt lat="45.922739999368787" lon="8.38692401535809">
        <ele>1459.4187010000001</ele>
        <time>2010-06-02T08:54:26Z</time>
      </trkpt>
      <trkpt lat="45.922741005197167" lon="8.386931978166103">
        <ele>1461.3413089999999</ele>
        <time>2010-06-02T08:54:28Z</time>
      </trkpt>
      <trkpt lat="45.922776041552424" lon="8.38696600869298">
        <ele>1462.783203</ele>
        <time>2010-06-02T08:54:39Z</time>
      </trkpt>
      <trkpt lat="45.922851981595159" lon="8.386984029784799">
        <ele>1466.1477050000001</ele>
        <time>2010-06-02T08:55:22Z</time>
      </trkpt>
      <trkpt lat="45.922881988808513" lon="8.38698998093605">
        <ele>1468.070557</ele>
        <time>2010-06-02T08:55:27Z</time>
      </trkpt>
      <trkpt lat="45.922886012122035" lon="8.387033985927701">
        <ele>1470.9545900000001</ele>
        <time>2010-06-02T08:55:35Z</time>
      </trkpt>
      <trkpt lat="45.922886012122035" lon="8.38705200701952">
        <ele>1471.9157709999999</ele>
        <time>2010-06-02T08:55:37Z</time>
      </trkpt>
      <trkpt lat="45.922888023778796" lon="8.387089977040887">
        <ele>1473.3579099999999</ele>
        <time>2010-06-02T08:55:41Z</time>
      </trkpt>
      <trkpt lat="45.922894980758429" lon="8.38709500618279">
        <ele>1469.5126949999999</ele>
        <time>2010-06-02T08:55:54Z</time>
      </trkpt>
      <trkpt lat="45.92292096465826" lon="8.387088971212506">
        <ele>1471.9157709999999</ele>
        <time>2010-06-02T08:56:03Z</time>
      </trkpt>
      <trkpt lat="45.922975027933717" lon="8.387158960103989">
        <ele>1475.2802730000001</ele>
        <time>2010-06-02T08:56:20Z</time>
      </trkpt>
      <trkpt lat="45.92298399657011" lon="8.38716197758913">
        <ele>1479.1254879999999</ele>
        <time>2010-06-02T08:57:24Z</time>
      </trkpt>
      <trkpt lat="45.922991037368774" lon="8.387157032266259">
        <ele>1478.164307</ele>
        <time>2010-06-02T08:57:31Z</time>
      </trkpt>
      <trkpt lat="45.923021966591477" lon="8.387135993689299">
        <ele>1474.7998050000001</ele>
        <time>2010-06-02T08:57:38Z</time>
      </trkpt>
      <trkpt lat="45.923028001561761" lon="8.387132976204157">
        <ele>1474.7998050000001</ele>
        <time>2010-06-02T08:57:39Z</time>
      </trkpt>
      <trkpt lat="45.923050967976451" lon="8.387111015617847">
        <ele>1478.164307</ele>
        <time>2010-06-02T08:57:44Z</time>
      </trkpt>
      <trkpt lat="45.923136966302991" lon="8.387067010626197">
        <ele>1481.5288089999999</ele>
        <time>2010-06-02T08:58:16Z</time>
      </trkpt>
      <trkpt lat="45.92321801930666" lon="8.387048989534378">
        <ele>1481.0483400000001</ele>
        <time>2010-06-02T08:58:34Z</time>
      </trkpt>
      <trkpt lat="45.923265041783452" lon="8.387062987312675">
        <ele>1479.1254879999999</ele>
        <time>2010-06-02T08:58:43Z</time>
      </trkpt>
      <trkpt lat="45.923268981277943" lon="8.387055024504662">
        <ele>1480.5676269999999</ele>
        <time>2010-06-02T08:58:45Z</time>
      </trkpt>
      <trkpt lat="45.923316003754735" lon="8.387063993141055">
        <ele>1480.5676269999999</ele>
        <time>2010-06-02T08:58:53Z</time>
      </trkpt>
      <trkpt lat="45.923361014574766" lon="8.387060975655913">
        <ele>1476.2416989999999</ele>
        <time>2010-06-02T08:59:00Z</time>
      </trkpt>
      <trkpt lat="45.923367971554399" lon="8.387059969827533">
        <ele>1480.086914</ele>
        <time>2010-06-02T08:59:01Z</time>
      </trkpt>
      <trkpt lat="45.923449024558067" lon="8.387033985927701">
        <ele>1480.086914</ele>
        <time>2010-06-02T08:59:09Z</time>
      </trkpt>
      <trkpt lat="45.923561006784439" lon="8.38698604144156">
        <ele>1479.6062010000001</ele>
        <time>2010-06-02T08:59:22Z</time>
      </trkpt>
      <trkpt lat="45.923637030646205" lon="8.386987969279289">
        <ele>1480.5676269999999</ele>
        <time>2010-06-02T08:59:33Z</time>
      </trkpt>
      <trkpt lat="45.923681035637856" lon="8.386976988986135">
        <ele>1481.0483400000001</ele>
        <time>2010-06-02T08:59:37Z</time>
      </trkpt>
      <trkpt lat="45.923744989559054" lon="8.386943964287639">
        <ele>1482.0095209999999</ele>
        <time>2010-06-02T08:59:45Z</time>
      </trkpt>
      <trkpt lat="45.923859989270568" lon="8.386943964287639">
        <ele>1482.970703</ele>
        <time>2010-06-02T08:59:59Z</time>
      </trkpt>
      <trkpt lat="45.924016982316971" lon="8.386932983994484">
        <ele>1483.4514160000001</ele>
        <time>2010-06-02T09:00:18Z</time>
      </trkpt>
      <trkpt lat="45.9241640008986" lon="8.386894008144736">
        <ele>1483.932129</ele>
        <time>2010-06-02T09:00:35Z</time>
      </trkpt>
      <trkpt lat="45.924196019768715" lon="8.386866012588143">
        <ele>1483.932129</ele>
        <time>2010-06-02T09:00:55Z</time>
      </trkpt>
      <trkpt lat="45.924231978133321" lon="8.386982018128038">
        <ele>1482.4902340000001</ele>
        <time>2010-06-02T09:02:46Z</time>
      </trkpt>
      <trkpt lat="45.924231978133321" lon="8.386984029784799">
        <ele>1482.970703</ele>
        <time>2010-06-02T09:03:05Z</time>
      </trkpt>
      <trkpt lat="45.924345972016454" lon="8.386940024793148">
        <ele>1481.0483400000001</ele>
        <time>2010-06-02T09:03:22Z</time>
      </trkpt>
      <trkpt lat="45.924412021413445" lon="8.386913035064936">
        <ele>1480.086914</ele>
        <time>2010-06-02T09:03:31Z</time>
      </trkpt>
      <trkpt lat="45.924429036676884" lon="8.38690398260951">
        <ele>1476.2416989999999</ele>
        <time>2010-06-02T09:03:34Z</time>
      </trkpt>
      <trkpt lat="45.924436999484897" lon="8.38690398260951">
        <ele>1478.164307</ele>
        <time>2010-06-02T09:03:35Z</time>
      </trkpt>
      <trkpt lat="45.924469018355012" lon="8.386887973174453">
        <ele>1477.203125</ele>
        <time>2010-06-02T09:03:39Z</time>
      </trkpt>
      <trkpt lat="45.924490978941321" lon="8.386886967346072">
        <ele>1474.7998050000001</ele>
        <time>2010-06-02T09:03:42Z</time>
      </trkpt>
      <trkpt lat="45.92450900003314" lon="8.386877998709679">
        <ele>1478.6450199999999</ele>
        <time>2010-06-02T09:03:47Z</time>
      </trkpt>
      <trkpt lat="45.924513023346663" lon="8.386856038123369">
        <ele>1482.0095209999999</ele>
        <time>2010-06-02T09:03:50Z</time>
      </trkpt>
      <trkpt lat="45.924524003639817" lon="8.386836005374789">
        <ele>1486.335693</ele>
        <time>2010-06-02T09:03:53Z</time>
      </trkpt>
      <trkpt lat="45.924533978104591" lon="8.386818990111351">
        <ele>1487.7775879999999</ele>
        <time>2010-06-02T09:03:55Z</time>
      </trkpt>
      <trkpt lat="45.924626011401415" lon="8.386760987341404">
        <ele>1487.296875</ele>
        <time>2010-06-02T09:04:12Z</time>
      </trkpt>
      <trkpt lat="45.924649983644485" lon="8.386760987341404">
        <ele>1489.7001949999999</ele>
        <time>2010-06-02T09:04:16Z</time>
      </trkpt>
      <trkpt lat="45.924689965322614" lon="8.386779008433223">
        <ele>1490.180908</ele>
        <time>2010-06-02T09:04:26Z</time>
      </trkpt>
      <trkpt lat="45.924718966707587" lon="8.386776996776462">
        <ele>1494.0261230000001</ele>
        <time>2010-06-02T09:04:49Z</time>
      </trkpt>
      <trkpt lat="45.92472399584949" lon="8.3867749851197">
        <ele>1494.506592</ele>
        <time>2010-06-02T09:04:51Z</time>
      </trkpt>
      <trkpt lat="45.924730030819774" lon="8.386775990948081">
        <ele>1497.8713379999999</ele>
        <time>2010-06-02T09:04:54Z</time>
      </trkpt>
      <trkpt lat="45.924735981971025" lon="8.386776996776462">
        <ele>1499.313232</ele>
        <time>2010-06-02T09:04:56Z</time>
      </trkpt>
      <trkpt lat="45.924746040254831" lon="8.386779008433223">
        <ele>1502.6779790000001</ele>
        <time>2010-06-02T09:05:01Z</time>
      </trkpt>
      <trkpt lat="45.924751991406083" lon="8.386786971241236">
        <ele>1503.639404</ele>
        <time>2010-06-02T09:05:03Z</time>
      </trkpt>
      <trkpt lat="45.924756014719605" lon="8.386792000383139">
        <ele>1497.390625</ele>
        <time>2010-06-02T09:05:04Z</time>
      </trkpt>
      <trkpt lat="45.924777975305915" lon="8.386796023696661">
        <ele>1493.5454099999999</ele>
        <time>2010-06-02T09:05:05Z</time>
      </trkpt>
      <trkpt lat="45.924783004447818" lon="8.386798035353422">
        <ele>1494.9873050000001</ele>
        <time>2010-06-02T09:05:06Z</time>
      </trkpt>
      <trkpt lat="45.924835978075862" lon="8.386810021474958">
        <ele>1498.351807</ele>
        <time>2010-06-02T09:05:21Z</time>
      </trkpt>
      <trkpt lat="45.92489599250257" lon="8.386801974847913">
        <ele>1501.2360839999999</ele>
        <time>2010-06-02T09:05:32Z</time>
      </trkpt>
      <trkpt lat="45.92491895891726" lon="8.38681697845459">
        <ele>1504.600586</ele>
        <time>2010-06-02T09:05:38Z</time>
      </trkpt>
      <trkpt lat="45.924928011372685" lon="8.386839022859931">
        <ele>1498.351807</ele>
        <time>2010-06-02T09:05:47Z</time>
      </trkpt>
      <trkpt lat="45.924930023029447" lon="8.386840028688312">
        <ele>1494.9873050000001</ele>
        <time>2010-06-02T09:05:48Z</time>
      </trkpt>
      <trkpt lat="45.924933040514588" lon="8.386840028688312">
        <ele>1491.1420900000001</ele>
        <time>2010-06-02T09:05:50Z</time>
      </trkpt>
      <trkpt lat="45.924934968352318" lon="8.386839022859931">
        <ele>1494.0261230000001</ele>
        <time>2010-06-02T09:05:51Z</time>
      </trkpt>
      <trkpt lat="45.924941003322601" lon="8.386831982061267">
        <ele>1505.5620120000001</ele>
        <time>2010-06-02T09:05:52Z</time>
      </trkpt>
      <trkpt lat="45.924947038292885" lon="8.386826030910015">
        <ele>1504.1201169999999</ele>
        <time>2010-06-02T09:05:53Z</time>
      </trkpt>
      <trkpt lat="45.924951983615756" lon="8.386824019253254">
        <ele>1502.1972659999999</ele>
        <time>2010-06-02T09:05:55Z</time>
      </trkpt>
      <trkpt lat="45.924993976950645" lon="8.38683801703155">
        <ele>1499.313232</ele>
        <time>2010-06-02T09:06:08Z</time>
      </trkpt>
      <trkpt lat="45.924996994435787" lon="8.386839022859931">
        <ele>1501.716797</ele>
        <time>2010-06-02T09:06:09Z</time>
      </trkpt>
      <trkpt lat="45.925007974728942" lon="8.386843968182802">
        <ele>1503.639404</ele>
        <time>2010-06-02T09:06:12Z</time>
      </trkpt>
      <trkpt lat="45.925020966678858" lon="8.386857965961099">
        <ele>1505.0812989999999</ele>
        <time>2010-06-02T09:06:19Z</time>
      </trkpt>
      <trkpt lat="45.925062038004398" lon="8.386868024244905">
        <ele>1507.0039059999999</ele>
        <time>2010-06-02T09:06:30Z</time>
      </trkpt>
      <trkpt lat="45.925091961398721" lon="8.386869030073285">
        <ele>1510.368408</ele>
        <time>2010-06-02T09:06:35Z</time>
      </trkpt>
      <trkpt lat="45.925095984712243" lon="8.386873975396156">
        <ele>1509.8876949999999</ele>
        <time>2010-06-02T09:06:36Z</time>
      </trkpt>
      <trkpt lat="45.925101013854146" lon="8.386876992881298">
        <ele>1506.523193</ele>
        <time>2010-06-02T09:06:39Z</time>
      </trkpt>
      <trkpt lat="45.925119034945965" lon="8.386879004538059">
        <ele>1503.1586910000001</ele>
        <time>2010-06-02T09:06:42Z</time>
      </trkpt>
      <trkpt lat="45.925169996917248" lon="8.386889984831214">
        <ele>1506.0424800000001</ele>
        <time>2010-06-02T09:07:03Z</time>
      </trkpt>
      <trkpt lat="45.925258006900549" lon="8.386917980387807">
        <ele>1509.4072269999999</ele>
        <time>2010-06-02T09:07:51Z</time>
      </trkpt>
      <trkpt lat="45.925355991348624" lon="8.386938013136387">
        <ele>1510.849121</ele>
        <time>2010-06-02T09:08:37Z</time>
      </trkpt>
      <trkpt lat="45.925424974411726" lon="8.386943964287639">
        <ele>1514.2136230000001</ele>
        <time>2010-06-02T09:08:53Z</time>
      </trkpt>
      <trkpt lat="45.925487000495195" lon="8.386975983157754">
        <ele>1517.5783690000001</ele>
        <time>2010-06-02T09:09:14Z</time>
      </trkpt>
      <trkpt lat="45.925484988838434" lon="8.386965002864599">
        <ele>1518.059082</ele>
        <time>2010-06-02T09:09:16Z</time>
      </trkpt>
      <trkpt lat="45.925521031022072" lon="8.387018982321024">
        <ele>1520.4624020000001</ele>
        <time>2010-06-02T09:09:39Z</time>
      </trkpt>
      <trkpt lat="45.925578027963638" lon="8.387037003412843">
        <ele>1523.346436</ele>
        <time>2010-06-02T09:10:09Z</time>
      </trkpt>
      <trkpt lat="45.925709037110209" lon="8.387040020897985">
        <ele>1526.7109379999999</ele>
        <time>2010-06-02T09:10:40Z</time>
      </trkpt>
      <trkpt lat="45.925781037658453" lon="8.387055024504662">
        <ele>1529.5947269999999</ele>
        <time>2010-06-02T09:11:01Z</time>
      </trkpt>
      <trkpt lat="45.925825964659452" lon="8.387047983705998">
        <ele>1532.9594729999999</ele>
        <time>2010-06-02T09:11:19Z</time>
      </trkpt>
      <trkpt lat="45.925828982144594" lon="8.38705200701952">
        <ele>1532.9594729999999</ele>
        <time>2010-06-02T09:11:20Z</time>
      </trkpt>
      <trkpt lat="45.925869969651103" lon="8.387085031718016">
        <ele>1535.362793</ele>
        <time>2010-06-02T09:12:10Z</time>
      </trkpt>
      <trkpt lat="45.925868963822722" lon="8.38707597926259">
        <ele>1538.727539</ele>
        <time>2010-06-02T09:12:47Z</time>
      </trkpt>
      <trkpt lat="45.92603400349617" lon="8.387115960940719">
        <ele>1542.0920410000001</ele>
        <time>2010-06-02T09:13:18Z</time>
      </trkpt>
      <trkpt lat="45.926113966852427" lon="8.387115960940719">
        <ele>1544.9758300000001</ele>
        <time>2010-06-02T09:13:38Z</time>
      </trkpt>
      <trkpt lat="45.926157971844077" lon="8.387144962325692">
        <ele>1546.8984379999999</ele>
        <time>2010-06-02T09:14:19Z</time>
      </trkpt>
      <trkpt lat="45.926196025684476" lon="8.38715803809464">
        <ele>1550.263428</ele>
        <time>2010-06-02T09:14:33Z</time>
      </trkpt>
      <trkpt lat="45.926305996254086" lon="8.387172035872936">
        <ele>1553.147217</ele>
        <time>2010-06-02T09:15:12Z</time>
      </trkpt>
      <trkpt lat="45.926313037052751" lon="8.387162983417511">
        <ele>1556.5117190000001</ele>
        <time>2010-06-02T09:15:26Z</time>
      </trkpt>
      <trkpt lat="45.926391994580626" lon="8.387157032266259">
        <ele>1560.3569339999999</ele>
        <time>2010-06-02T09:15:45Z</time>
      </trkpt>
      <trkpt lat="45.92639802955091" lon="8.387147979810834">
        <ele>1560.8376459999999</ele>
        <time>2010-06-02T09:15:47Z</time>
      </trkpt>
      <trkpt lat="45.926485033705831" lon="8.38716097176075">
        <ele>1564.202393</ele>
        <time>2010-06-02T09:16:25Z</time>
      </trkpt>
      <trkpt lat="45.926496013998985" lon="8.387193996459246">
        <ele>1567.0864260000001</ele>
        <time>2010-06-02T09:16:34Z</time>
      </trkpt>
      <trkpt lat="45.926495008170605" lon="8.387198019772768">
        <ele>1567.5668949999999</ele>
        <time>2010-06-02T09:16:35Z</time>
      </trkpt>
      <trkpt lat="45.926673961803317" lon="8.387167006731033">
        <ele>1567.0864260000001</ele>
        <time>2010-06-02T09:17:11Z</time>
      </trkpt>
      <trkpt lat="45.92682802118361" lon="8.38715803809464">
        <ele>1569.9702150000001</ele>
        <time>2010-06-02T09:17:44Z</time>
      </trkpt>
      <trkpt lat="45.926855010911822" lon="8.3872049767524">
        <ele>1573.334961</ele>
        <time>2010-06-02T09:18:00Z</time>
      </trkpt>
      <trkpt lat="45.926949977874756" lon="8.3872049767524">
        <ele>1576.21875</ele>
        <time>2010-06-02T09:18:41Z</time>
      </trkpt>
      <trkpt lat="45.927038993686438" lon="8.387157032266259">
        <ele>1578.6220699999999</ele>
        <time>2010-06-02T09:19:20Z</time>
      </trkpt>
      <trkpt lat="45.927152987569571" lon="8.387109003961086">
        <ele>1581.9868160000001</ele>
        <time>2010-06-02T09:19:46Z</time>
      </trkpt>
      <trkpt lat="45.927219036966562" lon="8.387126019224525">
        <ele>1581.9868160000001</ele>
        <time>2010-06-02T09:20:22Z</time>
      </trkpt>
      <trkpt lat="45.927281985059381" lon="8.387143034487963">
        <ele>1580.544922</ele>
        <time>2010-06-02T09:20:37Z</time>
      </trkpt>
      <trkpt lat="45.927277961745858" lon="8.387127025052905">
        <ele>1578.6220699999999</ele>
        <time>2010-06-02T09:20:44Z</time>
      </trkpt>
      <trkpt lat="45.927302017807961" lon="8.387086959555745">
        <ele>1579.5832519999999</ele>
        <time>2010-06-02T09:21:18Z</time>
      </trkpt>
      <trkpt lat="45.92734401114285" lon="8.387098023667932">
        <ele>1576.21875</ele>
        <time>2010-06-02T09:21:28Z</time>
      </trkpt>
      <trkpt lat="45.927363960072398" lon="8.387087965384126">
        <ele>1580.0642089999999</ele>
        <time>2010-06-02T09:21:31Z</time>
      </trkpt>
      <trkpt lat="45.927444007247686" lon="8.387043038383126">
        <ele>1579.102539</ele>
        <time>2010-06-02T09:21:42Z</time>
      </trkpt>
      <trkpt lat="45.927458005025983" lon="8.387015964835882">
        <ele>1579.102539</ele>
        <time>2010-06-02T09:21:45Z</time>
      </trkpt>
      <trkpt lat="45.927512990310788" lon="8.386990986764431">
        <ele>1578.141357</ele>
        <time>2010-06-02T09:21:57Z</time>
      </trkpt>
      <trkpt lat="45.92756001278758" lon="8.386963997036219">
        <ele>1582.467529</ele>
        <time>2010-06-02T09:22:05Z</time>
      </trkpt>
      <trkpt lat="45.927649028599262" lon="8.386939018964768">
        <ele>1580.544922</ele>
        <time>2010-06-02T09:22:28Z</time>
      </trkpt>
      <trkpt lat="45.927650034427643" lon="8.386926027014852">
        <ele>1581.9868160000001</ele>
        <time>2010-06-02T09:22:31Z</time>
      </trkpt>
      <trkpt lat="45.927763022482395" lon="8.386911023408175">
        <ele>1581.9868160000001</ele>
        <time>2010-06-02T09:22:46Z</time>
      </trkpt>
      <trkpt lat="45.927822031080723" lon="8.386965002864599">
        <ele>1579.102539</ele>
        <time>2010-06-02T09:23:00Z</time>
      </trkpt>
      <trkpt lat="45.927842985838652" lon="8.386971959844232">
        <ele>1581.9868160000001</ele>
        <time>2010-06-02T09:23:03Z</time>
      </trkpt>
      <trkpt lat="45.927855977788568" lon="8.386969026178122">
        <ele>1581.9868160000001</ele>
        <time>2010-06-02T09:23:04Z</time>
      </trkpt>
      <trkpt lat="45.927919009700418" lon="8.387016970664263">
        <ele>1585.351318</ele>
        <time>2010-06-02T09:23:14Z</time>
      </trkpt>
      <trkpt lat="45.927951028570533" lon="8.387054018676281">
        <ele>1586.3127440000001</ele>
        <time>2010-06-02T09:23:18Z</time>
      </trkpt>
      <trkpt lat="45.9279699716717" lon="8.387044966220856">
        <ele>1582.9479980000001</ele>
        <time>2010-06-02T09:23:20Z</time>
      </trkpt>
      <trkpt lat="45.927978018298745" lon="8.387046977877617">
        <ele>1583.428711</ele>
        <time>2010-06-02T09:23:21Z</time>
      </trkpt>
      <trkpt lat="45.92805303633213" lon="8.387080002576113">
        <ele>1587.2739260000001</ele>
        <time>2010-06-02T09:23:37Z</time>
      </trkpt>
      <trkpt lat="45.92805303633213" lon="8.387084025889635">
        <ele>1587.2739260000001</ele>
        <time>2010-06-02T09:23:38Z</time>
      </trkpt>
      <trkpt lat="45.928077008575201" lon="8.387078996747732">
        <ele>1585.351318</ele>
        <time>2010-06-02T09:23:41Z</time>
      </trkpt>
      <trkpt lat="45.92818396165967" lon="8.387088971212506">
        <ele>1590.1579589999999</ele>
        <time>2010-06-02T09:23:54Z</time>
      </trkpt>
      <trkpt lat="45.928271971642971" lon="8.387104980647564">
        <ele>1591.1191409999999</ele>
        <time>2010-06-02T09:24:11Z</time>
      </trkpt>
      <trkpt lat="45.928307007998228" lon="8.387125013396144">
        <ele>1591.1191409999999</ele>
        <time>2010-06-02T09:24:17Z</time>
      </trkpt>
      <trkpt lat="45.928379008546472" lon="8.387141022831202">
        <ele>1589.677246</ele>
        <time>2010-06-02T09:24:31Z</time>
      </trkpt>
      <trkpt lat="45.928427036851645" lon="8.387155020609498">
        <ele>1590.638428</ele>
        <time>2010-06-02T09:24:40Z</time>
      </trkpt>
      <trkpt lat="45.928450003266335" lon="8.387141022831202">
        <ele>1594.0031739999999</ele>
        <time>2010-06-02T09:24:44Z</time>
      </trkpt>
      <trkpt lat="45.928453020751476" lon="8.38713901117444">
        <ele>1594.0031739999999</ele>
        <time>2010-06-02T09:24:45Z</time>
      </trkpt>
      <trkpt lat="45.928460983559489" lon="8.387129036709666">
        <ele>1590.638428</ele>
        <time>2010-06-02T09:24:50Z</time>
      </trkpt>
      <trkpt lat="45.928489984944463" lon="8.38713800534606">
        <ele>1593.522461</ele>
        <time>2010-06-02T09:24:54Z</time>
      </trkpt>
      <trkpt lat="45.92852502129972" lon="8.387146973982453">
        <ele>1590.638428</ele>
        <time>2010-06-02T09:24:59Z</time>
      </trkpt>
      <trkpt lat="45.928690982982516" lon="8.387143034487963">
        <ele>1593.522461</ele>
        <time>2010-06-02T09:25:17Z</time>
      </trkpt>
      <trkpt lat="45.928773041814566" lon="8.387143034487963">
        <ele>1594.9643550000001</ele>
        <time>2010-06-02T09:25:33Z</time>
      </trkpt>
      <trkpt lat="45.928825009614229" lon="8.38718100450933">
        <ele>1596.887207</ele>
        <time>2010-06-02T09:25:45Z</time>
      </trkpt>
      <trkpt lat="45.928860967978835" lon="8.387171030044556">
        <ele>1599.77124</ele>
        <time>2010-06-02T09:25:56Z</time>
      </trkpt>
      <trkpt lat="45.928862979635596" lon="8.387173041701317">
        <ele>1603.1357419999999</ele>
        <time>2010-06-02T09:25:58Z</time>
      </trkpt>
      <trkpt lat="45.928886029869318" lon="8.387177987024188">
        <ele>1604.097168</ele>
        <time>2010-06-02T09:26:00Z</time>
      </trkpt>
      <trkpt lat="45.928929029032588" lon="8.387185027822852">
        <ele>1600.251953</ele>
        <time>2010-06-02T09:26:21Z</time>
      </trkpt>
      <trkpt lat="45.928931040689349" lon="8.387187961488962">
        <ele>1600.732422</ele>
        <time>2010-06-02T09:26:22Z</time>
      </trkpt>
      <trkpt lat="45.928943026810884" lon="8.387192990630865">
        <ele>1602.1743160000001</ele>
        <time>2010-06-02T09:26:25Z</time>
      </trkpt>
      <trkpt lat="45.928961969912052" lon="8.387214029207826">
        <ele>1605.5390629999999</ele>
        <time>2010-06-02T09:26:29Z</time>
      </trkpt>
      <trkpt lat="45.928969010710716" lon="8.387213023379445">
        <ele>1606.0195309999999</ele>
        <time>2010-06-02T09:26:31Z</time>
      </trkpt>
      <trkpt lat="45.928966999053955" lon="8.387214029207826">
        <ele>1604.5776370000001</ele>
        <time>2010-06-02T09:26:33Z</time>
      </trkpt>
      <trkpt lat="45.928979991003871" lon="8.387228026986122">
        <ele>1608.4228519999999</ele>
        <time>2010-06-02T09:26:37Z</time>
      </trkpt>
      <trkpt lat="45.928988959640265" lon="8.387258034199476">
        <ele>1608.903564</ele>
        <time>2010-06-02T09:26:48Z</time>
      </trkpt>
      <trkpt lat="45.928990971297026" lon="8.38726700283587">
        <ele>1611.306885</ele>
        <time>2010-06-02T09:26:52Z</time>
      </trkpt>
      <trkpt lat="45.928989965468645" lon="8.387270020321012">
        <ele>1616.113525</ele>
        <time>2010-06-02T09:26:54Z</time>
      </trkpt>
      <trkpt lat="45.928989965468645" lon="8.387272031977773">
        <ele>1616.5942379999999</ele>
        <time>2010-06-02T09:26:56Z</time>
      </trkpt>
      <trkpt lat="45.928990971297026" lon="8.387275971472263">
        <ele>1614.190918</ele>
        <time>2010-06-02T09:27:00Z</time>
      </trkpt>
      <trkpt lat="45.928992982953787" lon="8.387278988957405">
        <ele>1611.7875979999999</ele>
        <time>2010-06-02T09:27:03Z</time>
      </trkpt>
      <trkpt lat="45.92899801209569" lon="8.387281000614166">
        <ele>1609.864746</ele>
        <time>2010-06-02T09:27:09Z</time>
      </trkpt>
      <trkpt lat="45.929011004045606" lon="8.387281000614166">
        <ele>1610.826172</ele>
        <time>2010-06-02T09:27:13Z</time>
      </trkpt>
      <trkpt lat="45.929076969623566" lon="8.38728996925056">
        <ele>1611.306885</ele>
        <time>2010-06-02T09:27:29Z</time>
      </trkpt>
      <trkpt lat="45.929239997640252" lon="8.387272031977773">
        <ele>1613.7102050000001</ele>
        <time>2010-06-02T09:28:23Z</time>
      </trkpt>
      <trkpt lat="45.929292971268296" lon="8.387291980907321">
        <ele>1617.0749510000001</ele>
        <time>2010-06-02T09:28:38Z</time>
      </trkpt>
      <trkpt lat="45.929340999573469" lon="8.387327017262578">
        <ele>1618.0361330000001</ele>
        <time>2010-06-02T09:29:01Z</time>
      </trkpt>
      <trkpt lat="45.92947200872004" lon="8.387385020032525">
        <ele>1621.400635</ele>
        <time>2010-06-02T09:29:28Z</time>
      </trkpt>
      <trkpt lat="45.929512996226549" lon="8.387369010597467">
        <ele>1624.284668</ele>
        <time>2010-06-02T09:30:07Z</time>
      </trkpt>
      <trkpt lat="45.92957703396678" lon="8.387415027245879">
        <ele>1627.6491699999999</ele>
        <time>2010-06-02T09:30:34Z</time>
      </trkpt>
      <trkpt lat="45.929651968181133" lon="8.387465989217162">
        <ele>1631.0141599999999</ele>
        <time>2010-06-02T09:30:58Z</time>
      </trkpt>
      <trkpt lat="45.929652974009514" lon="8.387463977560401">
        <ele>1630.0527340000001</ele>
        <time>2010-06-02T09:31:04Z</time>
      </trkpt>
      <trkpt lat="45.929675018414855" lon="8.387463977560401">
        <ele>1633.417236</ele>
        <time>2010-06-02T09:31:12Z</time>
      </trkpt>
      <trkpt lat="45.929680969566107" lon="8.387465989217162">
        <ele>1634.3786620000001</ele>
        <time>2010-06-02T09:31:14Z</time>
      </trkpt>
      <trkpt lat="45.92968599870801" lon="8.387472024187446">
        <ele>1631.975342</ele>
        <time>2010-06-02T09:31:21Z</time>
      </trkpt>
      <trkpt lat="45.929755987599492" lon="8.387446040287614">
        <ele>1635.820557</ele>
        <time>2010-06-02T09:31:55Z</time>
      </trkpt>
      <trkpt lat="45.929753975942731" lon="8.387447968125343">
        <ele>1635.820557</ele>
        <time>2010-06-02T09:31:56Z</time>
      </trkpt>
      <trkpt lat="45.929785994812846" lon="8.387442016974092">
        <ele>1637.2624510000001</ele>
        <time>2010-06-02T09:32:09Z</time>
      </trkpt>
      <trkpt lat="45.929828993976116" lon="8.387417960911989">
        <ele>1637.743164</ele>
        <time>2010-06-02T09:32:18Z</time>
      </trkpt>
      <trkpt lat="45.929894037544727" lon="8.387420978397131">
        <ele>1638.2238769999999</ele>
        <time>2010-06-02T09:32:34Z</time>
      </trkpt>
      <trkpt lat="45.929917003959417" lon="8.387423995882273">
        <ele>1637.2624510000001</ele>
        <time>2010-06-02T09:32:39Z</time>
      </trkpt>
      <trkpt lat="45.929960003122687" lon="8.387428019195795">
        <ele>1641.1076660000001</ele>
        <time>2010-06-02T09:32:50Z</time>
      </trkpt>
      <trkpt lat="45.929963020607829" lon="8.387427013367415">
        <ele>1640.626953</ele>
        <time>2010-06-02T09:32:51Z</time>
      </trkpt>
      <trkpt lat="45.929995961487293" lon="8.387431036680937">
        <ele>1640.1464840000001</ele>
        <time>2010-06-02T09:32:58Z</time>
      </trkpt>
      <trkpt lat="45.930044995620847" lon="8.387417960911989">
        <ele>1642.069092</ele>
        <time>2010-06-02T09:33:08Z</time>
      </trkpt>
      <trkpt lat="45.93009696342051" lon="8.387392982840538">
        <ele>1645.4338379999999</ele>
        <time>2010-06-02T09:33:18Z</time>
      </trkpt>
      <trkpt lat="45.930149015039206" lon="8.387357024475932">
        <ele>1648.7983400000001</ele>
        <time>2010-06-02T09:33:26Z</time>
      </trkpt>
      <trkpt lat="45.930234007537365" lon="8.387343026697636">
        <ele>1650.2404790000001</ele>
        <time>2010-06-02T09:33:47Z</time>
      </trkpt>
      <trkpt lat="45.930383959785104" lon="8.387271026149392">
        <ele>1653.124268</ele>
        <time>2010-06-02T09:34:24Z</time>
      </trkpt>
      <trkpt lat="45.930387983098626" lon="8.38726800866425">
        <ele>1653.6049800000001</ele>
        <time>2010-06-02T09:34:25Z</time>
      </trkpt>
      <trkpt lat="45.930426958948374" lon="8.387249987572432">
        <ele>1656.4887699999999</ele>
        <time>2010-06-02T09:34:34Z</time>
      </trkpt>
      <trkpt lat="45.930430982261896" lon="8.38724797591567">
        <ele>1660.3342290000001</ele>
        <time>2010-06-02T09:34:36Z</time>
      </trkpt>
      <trkpt lat="45.930439028888941" lon="8.387239007279277">
        <ele>1663.6987300000001</ele>
        <time>2010-06-02T09:34:38Z</time>
      </trkpt>
      <trkpt lat="45.930450009182096" lon="8.387244958430529">
        <ele>1656.969482</ele>
        <time>2010-06-02T09:34:41Z</time>
      </trkpt>
      <trkpt lat="45.930451015010476" lon="8.38724797591567">
        <ele>1664.179443</ele>
        <time>2010-06-02T09:34:43Z</time>
      </trkpt>
      <trkpt lat="45.930452020838857" lon="8.387249987572432">
        <ele>1667.5439449999999</ele>
        <time>2010-06-02T09:34:45Z</time>
      </trkpt>
      <trkpt lat="45.930452020838857" lon="8.387250993400812">
        <ele>1668.024658</ele>
        <time>2010-06-02T09:34:47Z</time>
      </trkpt>
      <trkpt lat="45.930452020838857" lon="8.387251999229193">
        <ele>1665.1408690000001</ele>
        <time>2010-06-02T09:34:48Z</time>
      </trkpt>
      <trkpt lat="45.930452020838857" lon="8.387254010885954">
        <ele>1661.295654</ele>
        <time>2010-06-02T09:34:50Z</time>
      </trkpt>
      <trkpt lat="45.930451015010476" lon="8.387259962037206">
        <ele>1663.6987300000001</ele>
        <time>2010-06-02T09:34:57Z</time>
      </trkpt>
      <trkpt lat="45.930450009182096" lon="8.387260967865586">
        <ele>1659.372803</ele>
        <time>2010-06-02T09:34:59Z</time>
      </trkpt>
      <trkpt lat="45.930447997525334" lon="8.387260967865586">
        <ele>1659.372803</ele>
        <time>2010-06-02T09:35:00Z</time>
      </trkpt>
      <trkpt lat="45.930450009182096" lon="8.387270020321012">
        <ele>1656.4887699999999</ele>
        <time>2010-06-02T09:35:09Z</time>
      </trkpt>
      <trkpt lat="45.930456966161728" lon="8.387259962037206">
        <ele>1655.046875</ele>
        <time>2010-06-02T09:35:12Z</time>
      </trkpt>
      <trkpt lat="45.930533995851874" lon="8.387175975367427">
        <ele>1658.4113769999999</ele>
        <time>2010-06-02T09:35:29Z</time>
      </trkpt>
      <trkpt lat="45.930621000006795" lon="8.387076985090971">
        <ele>1659.8532709999999</ele>
        <time>2010-06-02T09:35:58Z</time>
      </trkpt>
      <trkpt lat="45.930637009441853" lon="8.387061981484294">
        <ele>1660.8149410000001</ele>
        <time>2010-06-02T09:36:23Z</time>
      </trkpt>
      <trkpt lat="45.930638015270233" lon="8.387060975655913">
        <ele>1662.7375489999999</ele>
        <time>2010-06-02T09:36:33Z</time>
      </trkpt>
      <trkpt lat="45.930640026926994" lon="8.3870530128479">
        <ele>1658.4113769999999</ele>
        <time>2010-06-02T09:36:35Z</time>
      </trkpt>
      <trkpt lat="45.930640026926994" lon="8.387055024504662">
        <ele>1658.4113769999999</ele>
        <time>2010-06-02T09:36:36Z</time>
      </trkpt>
      <trkpt lat="45.930698029696941" lon="8.387015964835882">
        <ele>1659.372803</ele>
        <time>2010-06-02T09:36:45Z</time>
      </trkpt>
      <trkpt lat="45.930706998333335" lon="8.387006996199489">
        <ele>1661.295654</ele>
        <time>2010-06-02T09:36:48Z</time>
      </trkpt>
      <trkpt lat="45.930747985839844" lon="8.386980006471276">
        <ele>1663.6987300000001</ele>
        <time>2010-06-02T09:36:54Z</time>
      </trkpt>
      <trkpt lat="45.930790985003114" lon="8.386927032843232">
        <ele>1670.9086910000001</ele>
        <time>2010-06-02T09:37:01Z</time>
      </trkpt>
      <trkpt lat="45.930791990831494" lon="8.386917980387807">
        <ele>1669.9472659999999</ele>
        <time>2010-06-02T09:37:02Z</time>
      </trkpt>
      <trkpt lat="45.93082400970161" lon="8.386829970404506">
        <ele>1670.9086910000001</ele>
        <time>2010-06-02T09:37:08Z</time>
      </trkpt>
      <trkpt lat="45.930826021358371" lon="8.386813960969448">
        <ele>1668.024658</ele>
        <time>2010-06-02T09:37:10Z</time>
      </trkpt>
      <trkpt lat="45.930828033015132" lon="8.386789988726378">
        <ele>1668.505371</ele>
        <time>2010-06-02T09:37:11Z</time>
      </trkpt>
      <trkpt lat="45.930845970287919" lon="8.386766016483307">
        <ele>1668.024658</ele>
        <time>2010-06-02T09:37:15Z</time>
      </trkpt>
      <trkpt lat="45.930859968066216" lon="8.386740032583475">
        <ele>1666.1020510000001</ele>
        <time>2010-06-02T09:37:18Z</time>
      </trkpt>
      <trkpt lat="45.930920988321304" lon="8.386724023148418">
        <ele>1662.7375489999999</ele>
        <time>2010-06-02T09:37:28Z</time>
      </trkpt>
      <trkpt lat="45.930926017463207" lon="8.386732991784811">
        <ele>1663.2182620000001</ele>
        <time>2010-06-02T09:37:29Z</time>
      </trkpt>
      <trkpt lat="45.930988965556026" lon="8.386832987889648">
        <ele>1662.256836</ele>
        <time>2010-06-02T09:37:39Z</time>
      </trkpt>
      <trkpt lat="45.93105903826654" lon="8.38683801703155">
        <ele>1666.1020510000001</ele>
        <time>2010-06-02T09:37:51Z</time>
      </trkpt>
      <trkpt lat="45.931097008287907" lon="8.386827958747745">
        <ele>1668.505371</ele>
        <time>2010-06-02T09:37:56Z</time>
      </trkpt>
      <trkpt lat="45.931200021877885" lon="8.38685997761786">
        <ele>1668.024658</ele>
        <time>2010-06-02T09:38:13Z</time>
      </trkpt>
      <trkpt lat="45.931289037689567" lon="8.386778002604842">
        <ele>1670.4279790000001</ele>
        <time>2010-06-02T09:38:39Z</time>
      </trkpt>
      <trkpt lat="45.931330025196075" lon="8.386733997613192">
        <ele>1672.350586</ele>
        <time>2010-06-02T09:38:57Z</time>
      </trkpt>
      <trkpt lat="45.931371012702584" lon="8.386729974299669">
        <ele>1669.9472659999999</ele>
        <time>2010-06-02T09:39:28Z</time>
      </trkpt>
      <trkpt lat="45.931371012702584" lon="8.386727040633559">
        <ele>1665.621582</ele>
        <time>2010-06-02T09:39:29Z</time>
      </trkpt>
      <trkpt lat="45.931374030187726" lon="8.386723017320037">
        <ele>1672.8312989999999</ele>
        <time>2010-06-02T09:39:30Z</time>
      </trkpt>
      <trkpt lat="45.931376963853836" lon="8.386719999834895">
        <ele>1672.8312989999999</ele>
        <time>2010-06-02T09:39:31Z</time>
      </trkpt>
      <trkpt lat="45.931385010480881" lon="8.38670901954174">
        <ele>1679.560547</ele>
        <time>2010-06-02T09:39:34Z</time>
      </trkpt>
      <trkpt lat="45.93138299882412" lon="8.38670901954174">
        <ele>1676.6767580000001</ele>
        <time>2010-06-02T09:39:35Z</time>
      </trkpt>
      <trkpt lat="45.931391967460513" lon="8.386702984571457">
        <ele>1672.8312989999999</ele>
        <time>2010-06-02T09:39:37Z</time>
      </trkpt>
      <trkpt lat="45.9314030315727" lon="8.386668032035232">
        <ele>1676.6767580000001</ele>
        <time>2010-06-02T09:39:45Z</time>
      </trkpt>
      <trkpt lat="45.93140697106719" lon="8.386655962094665">
        <ele>1676.6767580000001</ele>
        <time>2010-06-02T09:39:46Z</time>
      </trkpt>
      <trkpt lat="45.931463968008757" lon="8.386639030650258">
        <ele>1677.637939</ele>
        <time>2010-06-02T09:40:06Z</time>
      </trkpt>
      <trkpt lat="45.93148902989924" lon="8.386616986244917">
        <ele>1681.002686</ele>
        <time>2010-06-02T09:40:14Z</time>
      </trkpt>
      <trkpt lat="45.931491041556001" lon="8.386613968759775">
        <ele>1681.002686</ele>
        <time>2010-06-02T09:40:15Z</time>
      </trkpt>
      <trkpt lat="45.931564969941974" lon="8.38649301789701">
        <ele>1683.886475</ele>
        <time>2010-06-02T09:40:35Z</time>
      </trkpt>
      <trkpt lat="45.931594977155328" lon="8.386476002633572">
        <ele>1687.2509769999999</ele>
        <time>2010-06-02T09:40:42Z</time>
      </trkpt>
      <trkpt lat="45.931600006297231" lon="8.386466028168798">
        <ele>1687.731689</ele>
        <time>2010-06-02T09:40:43Z</time>
      </trkpt>
      <trkpt lat="45.931696984916925" lon="8.386353962123394">
        <ele>1690.6154790000001</ele>
        <time>2010-06-02T09:41:10Z</time>
      </trkpt>
      <trkpt lat="45.931731015443802" lon="8.386340970173478">
        <ele>1690.6154790000001</ele>
        <time>2010-06-02T09:41:26Z</time>
      </trkpt>
      <trkpt lat="45.931778037920594" lon="8.386353040114045">
        <ele>1686.2897949999999</ele>
        <time>2010-06-02T09:41:51Z</time>
      </trkpt>
      <trkpt lat="45.931897982954979" lon="8.386180037632585">
        <ele>1688.693115</ele>
        <time>2010-06-02T09:43:10Z</time>
      </trkpt>
      <trkpt lat="45.931937964633107" lon="8.386152964085341">
        <ele>1686.770264</ele>
        <time>2010-06-02T09:43:16Z</time>
      </trkpt>
      <trkpt lat="45.932002002373338" lon="8.386109964922071">
        <ele>1688.2124020000001</ele>
        <time>2010-06-02T09:43:27Z</time>
      </trkpt>
      <trkpt lat="45.932123959064484" lon="8.386084986850619">
        <ele>1688.2124020000001</ele>
        <time>2010-06-02T09:43:42Z</time>
      </trkpt>
      <trkpt lat="45.932175004854798" lon="8.38610602542758">
        <ele>1687.731689</ele>
        <time>2010-06-02T09:43:48Z</time>
      </trkpt>
      <trkpt lat="45.932230995967984" lon="8.386102002114058">
        <ele>1691.0961910000001</ele>
        <time>2010-06-02T09:44:09Z</time>
      </trkpt>
      <trkpt lat="45.932224960997701" lon="8.386104013770819">
        <ele>1691.0961910000001</ele>
        <time>2010-06-02T09:44:23Z</time>
      </trkpt>
      <trkpt lat="45.932226972654462" lon="8.386102002114058">
        <ele>1687.731689</ele>
        <time>2010-06-02T09:44:28Z</time>
      </trkpt>
      <trkpt lat="45.932249017059803" lon="8.386105019599199">
        <ele>1689.654297</ele>
        <time>2010-06-02T09:44:31Z</time>
      </trkpt>
      <trkpt lat="45.932321017608047" lon="8.386085992679">
        <ele>1692.057861</ele>
        <time>2010-06-02T09:44:38Z</time>
      </trkpt>
      <trkpt lat="45.932360999286175" lon="8.386089010164142">
        <ele>1694.4609379999999</ele>
        <time>2010-06-02T09:44:43Z</time>
      </trkpt>
      <trkpt lat="45.93254498206079" lon="8.386022038757801">
        <ele>1693.019043</ele>
        <time>2010-06-02T09:45:06Z</time>
      </trkpt>
      <trkpt lat="45.932583035901189" lon="8.386017009615898">
        <ele>1693.9804690000001</ele>
        <time>2010-06-02T09:45:11Z</time>
      </trkpt>
      <trkpt lat="45.932686971500516" lon="8.385990019887686">
        <ele>1696.383789</ele>
        <time>2010-06-02T09:45:24Z</time>
      </trkpt>
      <trkpt lat="45.932727959007025" lon="8.385979039594531">
        <ele>1697.344971</ele>
        <time>2010-06-02T09:45:30Z</time>
      </trkpt>
      <trkpt lat="45.932762995362282" lon="8.385947020724416">
        <ele>1697.344971</ele>
        <time>2010-06-02T09:45:35Z</time>
      </trkpt>
      <trkpt lat="45.932872965931892" lon="8.385884994640946">
        <ele>1695.9030760000001</ele>
        <time>2010-06-02T09:45:49Z</time>
      </trkpt>
      <trkpt lat="45.932884030044079" lon="8.385878037661314">
        <ele>1696.383789</ele>
        <time>2010-06-02T09:45:50Z</time>
      </trkpt>
      <trkpt lat="45.932905990630388" lon="8.385867979377508">
        <ele>1697.8256839999999</ele>
        <time>2010-06-02T09:45:52Z</time>
      </trkpt>
      <trkpt lat="45.932944966480136" lon="8.385849036276341">
        <ele>1695.9030760000001</ele>
        <time>2010-06-02T09:45:56Z</time>
      </trkpt>
      <trkpt lat="45.933009004220366" lon="8.385803019627929">
        <ele>1699.7482910000001</ele>
        <time>2010-06-02T09:46:03Z</time>
      </trkpt>
      <trkpt lat="45.933014033362269" lon="8.385793967172504">
        <ele>1699.267578</ele>
        <time>2010-06-02T09:46:04Z</time>
      </trkpt>
      <trkpt lat="45.933062983676791" lon="8.385781981050968">
        <ele>1702.6320800000001</ele>
        <time>2010-06-02T09:46:10Z</time>
      </trkpt>
      <trkpt lat="45.933087961748242" lon="8.385772006586194">
        <ele>1699.267578</ele>
        <time>2010-06-02T09:46:14Z</time>
      </trkpt>
      <trkpt lat="45.933100031688809" lon="8.385763037949801">
        <ele>1704.5546879999999</ele>
        <time>2010-06-02T09:46:16Z</time>
      </trkpt>
      <trkpt lat="45.933104977011681" lon="8.385763959959149">
        <ele>1704.0742190000001</ele>
        <time>2010-06-02T09:46:17Z</time>
      </trkpt>
      <trkpt lat="45.933119980618358" lon="8.38574199937284">
        <ele>1707.438721</ele>
        <time>2010-06-02T09:46:21Z</time>
      </trkpt>
      <trkpt lat="45.933122998103499" lon="8.385734958574176">
        <ele>1706.4772949999999</ele>
        <time>2010-06-02T09:46:22Z</time>
      </trkpt>
      <trkpt lat="45.933114029467106" lon="8.385744011029601">
        <ele>1705.5161129999999</ele>
        <time>2010-06-02T09:46:24Z</time>
      </trkpt>
      <trkpt lat="45.933111011981964" lon="8.385749040171504">
        <ele>1704.5546879999999</ele>
        <time>2010-06-02T09:46:44Z</time>
      </trkpt>
      <trkpt lat="45.933110006153584" lon="8.385748034343123">
        <ele>1708.4001459999999</ele>
        <time>2010-06-02T09:46:48Z</time>
      </trkpt>
      <trkpt lat="45.933096008375287" lon="8.385747028514743">
        <ele>1704.0742190000001</ele>
        <time>2010-06-02T09:46:50Z</time>
      </trkpt>
      <trkpt lat="45.933086033910513" lon="8.385743005201221">
        <ele>1699.7482910000001</ele>
        <time>2010-06-02T09:46:53Z</time>
      </trkpt>
      <trkpt lat="45.93308100476861" lon="8.385743005201221">
        <ele>1699.7482910000001</ele>
        <time>2010-06-02T09:46:54Z</time>
      </trkpt>
      <trkpt lat="45.933056026697159" lon="8.385593974962831">
        <ele>1696.8642580000001</ele>
        <time>2010-06-02T09:47:13Z</time>
      </trkpt>
      <trkpt lat="45.93303800560534" lon="8.385606966912746">
        <ele>1700.229004</ele>
        <time>2010-06-02T09:47:26Z</time>
      </trkpt>
      <trkpt lat="45.933032976463437" lon="8.385586012154818">
        <ele>1696.383789</ele>
        <time>2010-06-02T09:47:30Z</time>
      </trkpt>
      <trkpt lat="45.933027025312185" lon="8.385576959699392">
        <ele>1699.7482910000001</ele>
        <time>2010-06-02T09:47:31Z</time>
      </trkpt>
      <trkpt lat="45.933023001998663" lon="8.385568996891379">
        <ele>1699.267578</ele>
        <time>2010-06-02T09:47:32Z</time>
      </trkpt>
      <trkpt lat="45.933029036968946" lon="8.385542007163167">
        <ele>1694.94165</ele>
        <time>2010-06-02T09:47:34Z</time>
      </trkpt>
      <trkpt lat="45.933030964806676" lon="8.385539995506406">
        <ele>1694.94165</ele>
        <time>2010-06-02T09:47:35Z</time>
      </trkpt>
      <trkpt lat="45.933042028918862" lon="8.385515017434955">
        <ele>1693.019043</ele>
        <time>2010-06-02T09:47:38Z</time>
      </trkpt>
      <trkpt lat="45.933076981455088" lon="8.385315025225282">
        <ele>1691.576904</ele>
        <time>2010-06-02T09:47:53Z</time>
      </trkpt>
      <trkpt lat="45.933074969798326" lon="8.385188039392233">
        <ele>1688.2124020000001</ele>
        <time>2010-06-02T09:48:04Z</time>
      </trkpt>
      <trkpt lat="45.933078993111849" lon="8.385168006643653">
        <ele>1688.693115</ele>
        <time>2010-06-02T09:48:05Z</time>
      </trkpt>
      <trkpt lat="45.933116041123867" lon="8.385005984455347">
        <ele>1685.3283690000001</ele>
        <time>2010-06-02T09:48:24Z</time>
      </trkpt>
      <trkpt lat="45.933115035295486" lon="8.385001961141825">
        <ele>1684.8479</ele>
        <time>2010-06-02T09:48:25Z</time>
      </trkpt>
      <trkpt lat="45.933126015588641" lon="8.384971031919122">
        <ele>1683.886475</ele>
        <time>2010-06-02T09:48:28Z</time>
      </trkpt>
      <trkpt lat="45.933141019195318" lon="8.384894002228975">
        <ele>1680.5219729999999</ele>
        <time>2010-06-02T09:48:38Z</time>
      </trkpt>
      <trkpt lat="45.933156022801995" lon="8.384828958660364">
        <ele>1680.5219729999999</ele>
        <time>2010-06-02T09:48:46Z</time>
      </trkpt>
      <trkpt lat="45.933206984773278" lon="8.384679006412625">
        <ele>1677.157471</ele>
        <time>2010-06-02T09:49:01Z</time>
      </trkpt>
      <trkpt lat="45.93329600058496" lon="8.384550008922815">
        <ele>1673.3120120000001</ele>
        <time>2010-06-02T09:49:21Z</time>
      </trkpt>
      <trkpt lat="45.933435978367925" lon="8.384456969797611">
        <ele>1671.8698730000001</ele>
        <time>2010-06-02T09:49:47Z</time>
      </trkpt>
      <trkpt lat="45.933494986966252" lon="8.384314980357885">
        <ele>1670.4279790000001</ele>
        <time>2010-06-02T09:50:00Z</time>
      </trkpt>
      <trkpt lat="45.933502027764916" lon="8.384313974529505">
        <ele>1669.9472659999999</ele>
        <time>2010-06-02T09:50:01Z</time>
      </trkpt>
      <trkpt lat="45.93357696197927" lon="8.384144995361567">
        <ele>1666.582764</ele>
        <time>2010-06-02T09:50:17Z</time>
      </trkpt>
      <trkpt lat="45.933577967807651" lon="8.384113982319832">
        <ele>1666.582764</ele>
        <time>2010-06-02T09:50:18Z</time>
      </trkpt>
      <trkpt lat="45.933640999719501" lon="8.384005017578602">
        <ele>1667.0634769999999</ele>
        <time>2010-06-02T09:50:34Z</time>
      </trkpt>
      <trkpt lat="45.933711994439363" lon="8.384006023406982">
        <ele>1663.6987300000001</ele>
        <time>2010-06-02T09:50:55Z</time>
      </trkpt>
      <trkpt lat="45.933788018301129" lon="8.383941985666752">
        <ele>1665.1408690000001</ele>
        <time>2010-06-02T09:51:07Z</time>
      </trkpt>
      <trkpt lat="45.933836968615651" lon="8.38389496318996">
        <ele>1664.6601559999999</ele>
        <time>2010-06-02T09:51:32Z</time>
      </trkpt>
      <trkpt lat="45.933881979435682" lon="8.383776023983955">
        <ele>1664.179443</ele>
        <time>2010-06-02T09:51:48Z</time>
      </trkpt>
      <trkpt lat="45.933888014405966" lon="8.383737970143557">
        <ele>1665.621582</ele>
        <time>2010-06-02T09:51:52Z</time>
      </trkpt>
      <trkpt lat="45.933908969163895" lon="8.383620958775282">
        <ele>1670.9086910000001</ele>
        <time>2010-06-02T09:52:03Z</time>
      </trkpt>
      <trkpt lat="45.933912992477417" lon="8.383582988753915">
        <ele>1667.5439449999999</ele>
        <time>2010-06-02T09:52:06Z</time>
      </trkpt>
      <trkpt lat="45.933959009125829" lon="8.383398000150919">
        <ele>1667.5439449999999</ele>
        <time>2010-06-02T09:52:21Z</time>
      </trkpt>
      <trkpt lat="45.93396102078259" lon="8.383388025686145">
        <ele>1667.5439449999999</ele>
        <time>2010-06-02T09:52:22Z</time>
      </trkpt>
      <trkpt lat="45.934033021330833" lon="8.383266991004348">
        <ele>1667.0634769999999</ele>
        <time>2010-06-02T09:52:35Z</time>
      </trkpt>
      <trkpt lat="45.93413402326405" lon="8.383138999342918">
        <ele>1666.582764</ele>
        <time>2010-06-02T09:52:51Z</time>
      </trkpt>
      <trkpt lat="45.934211974963546" lon="8.38292702101171">
        <ele>1667.0634769999999</ele>
        <time>2010-06-02T09:53:28Z</time>
      </trkpt>
      <trkpt lat="45.934226978570223" lon="8.382827024906874">
        <ele>1667.0634769999999</ele>
        <time>2010-06-02T09:53:37Z</time>
      </trkpt>
      <trkpt lat="45.934255979955196" lon="8.382667014375329">
        <ele>1667.5439449999999</ele>
        <time>2010-06-02T09:53:50Z</time>
      </trkpt>
      <trkpt lat="45.934260003268719" lon="8.382620997726917">
        <ele>1667.0634769999999</ele>
        <time>2010-06-02T09:53:54Z</time>
      </trkpt>
      <trkpt lat="45.934291016310453" lon="8.38245302438736">
        <ele>1667.5439449999999</ele>
        <time>2010-06-02T09:54:09Z</time>
      </trkpt>
      <trkpt lat="45.93430601991713" lon="8.38226200081408">
        <ele>1669.9472659999999</ele>
        <time>2010-06-02T09:54:25Z</time>
      </trkpt>
      <trkpt lat="45.934300990775228" lon="8.382263006642461">
        <ele>1668.9860839999999</ele>
        <time>2010-06-02T09:54:32Z</time>
      </trkpt>
      <trkpt lat="45.934268971905112" lon="8.382267029955983">
        <ele>1670.4279790000001</ele>
        <time>2010-06-02T09:54:36Z</time>
      </trkpt>
      <trkpt lat="45.934248017147183" lon="8.382264012470841">
        <ele>1668.505371</ele>
        <time>2010-06-02T09:54:40Z</time>
      </trkpt>
      <trkpt lat="45.934233013540506" lon="8.382259989157319">
        <ele>1671.3891599999999</ele>
        <time>2010-06-02T09:54:44Z</time>
      </trkpt>
      <trkpt lat="45.934166964143515" lon="8.382270969450474">
        <ele>1667.5439449999999</ele>
        <time>2010-06-02T09:55:07Z</time>
      </trkpt>
      <trkpt lat="45.934179034084082" lon="8.382297037169337">
        <ele>1673.7924800000001</ele>
        <time>2010-06-02T09:55:12Z</time>
      </trkpt>
      <trkpt lat="45.934170987457037" lon="8.382269963622093">
        <ele>1669.466797</ele>
        <time>2010-06-02T09:55:13Z</time>
      </trkpt>
      <trkpt lat="45.934301996603608" lon="8.381863022223115">
        <ele>1672.8312989999999</ele>
        <time>2010-06-02T09:55:54Z</time>
      </trkpt>
      <trkpt lat="45.934294033795595" lon="8.381696976721287">
        <ele>1676.1960449999999</ele>
        <time>2010-06-02T09:56:06Z</time>
      </trkpt>
      <trkpt lat="45.934287998825312" lon="8.381537972018123">
        <ele>1677.157471</ele>
        <time>2010-06-02T09:56:18Z</time>
      </trkpt>
      <trkpt lat="45.934292022138834" lon="8.381399000063539">
        <ele>1680.04126</ele>
        <time>2010-06-02T09:56:30Z</time>
      </trkpt>
      <trkpt lat="45.934332003816962" lon="8.381216023117304">
        <ele>1679.0798339999999</ele>
        <time>2010-06-02T09:56:46Z</time>
      </trkpt>
      <trkpt lat="45.934357987716794" lon="8.381092976778746">
        <ele>1677.157471</ele>
        <time>2010-06-02T09:56:57Z</time>
      </trkpt>
      <trkpt lat="45.934380032122135" lon="8.381007984280586">
        <ele>1676.6767580000001</ele>
        <time>2010-06-02T09:57:14Z</time>
      </trkpt>
      <trkpt lat="45.934425964951515" lon="8.380857026204467">
        <ele>1676.6767580000001</ele>
        <time>2010-06-02T09:57:36Z</time>
      </trkpt>
      <trkpt lat="45.93443501740694" lon="8.380805980414152">
        <ele>1677.157471</ele>
        <time>2010-06-02T09:57:40Z</time>
      </trkpt>
      <trkpt lat="45.934474999085069" lon="8.380586039274931">
        <ele>1676.1960449999999</ele>
        <time>2010-06-02T09:58:00Z</time>
      </trkpt>
      <trkpt lat="45.934486985206604" lon="8.380528036504984">
        <ele>1676.1960449999999</ele>
        <time>2010-06-02T09:58:04Z</time>
      </trkpt>
      <trkpt lat="45.93449997715652" lon="8.380359979346395">
        <ele>1675.7150879999999</ele>
        <time>2010-06-02T09:58:16Z</time>
      </trkpt>
      <trkpt lat="45.93449997715652" lon="8.380179014056921">
        <ele>1676.6767580000001</ele>
        <time>2010-06-02T09:58:28Z</time>
      </trkpt>
      <trkpt lat="45.934453960508108" lon="8.380097039043903">
        <ele>1676.6767580000001</ele>
        <time>2010-06-02T09:58:43Z</time>
      </trkpt>
      <trkpt lat="45.934462007135153" lon="8.380030989646912">
        <ele>1676.6767580000001</ele>
        <time>2010-06-02T09:58:49Z</time>
      </trkpt>
      <trkpt lat="45.934470975771546" lon="8.379906015470624">
        <ele>1679.560547</ele>
        <time>2010-06-02T09:59:03Z</time>
      </trkpt>
      <trkpt lat="45.934476004913449" lon="8.379840971902013">
        <ele>1679.560547</ele>
        <time>2010-06-02T09:59:10Z</time>
      </trkpt>
      <trkpt lat="45.934466030448675" lon="8.379772994667292">
        <ele>1679.560547</ele>
        <time>2010-06-02T09:59:16Z</time>
      </trkpt>
      <trkpt lat="45.934494026005268" lon="8.379614995792508">
        <ele>1679.560547</ele>
        <time>2010-06-02T09:59:31Z</time>
      </trkpt>
      <trkpt lat="45.934511963278055" lon="8.379546012729406">
        <ele>1680.5219729999999</ele>
        <time>2010-06-02T09:59:38Z</time>
      </trkpt>
      <trkpt lat="45.934526966884732" lon="8.37948901578784">
        <ele>1680.04126</ele>
        <time>2010-06-02T09:59:52Z</time>
      </trkpt>
      <trkpt lat="45.934526966884732" lon="8.37948901578784">
        <ele>1683.4057620000001</ele>
        <time>2010-06-02T10:00:28Z</time>
      </trkpt>
      <trkpt lat="45.934526966884732" lon="8.37948901578784">
        <ele>1679.560547</ele>
        <time>2010-06-02T10:00:30Z</time>
      </trkpt>
      <trkpt lat="45.934526966884732" lon="8.37948901578784">
        <ele>1679.560547</ele>
        <time>2010-06-02T10:00:31Z</time>
      </trkpt>
      <trkpt lat="45.934526966884732" lon="8.37948901578784">
        <ele>1682.4445800000001</ele>
        <time>2010-06-02T10:00:51Z</time>
      </trkpt>
      <trkpt lat="45.934526966884732" lon="8.37948901578784">
        <ele>1685.809082</ele>
        <time>2010-06-02T10:00:54Z</time>
      </trkpt>
      <trkpt lat="45.934526966884732" lon="8.37948901578784">
        <ele>1681.483154</ele>
        <time>2010-06-02T10:00:57Z</time>
      </trkpt>
      <trkpt lat="45.934526966884732" lon="8.37948901578784">
        <ele>1679.0798339999999</ele>
        <time>2010-06-02T10:01:00Z</time>
      </trkpt>
      <trkpt lat="45.934530990198255" lon="8.379416009411216">
        <ele>1678.1186520000001</ele>
        <time>2010-06-02T10:01:10Z</time>
      </trkpt>
      <trkpt lat="45.93454297631979" lon="8.379166983067989">
        <ele>1679.0798339999999</ele>
        <time>2010-06-02T10:01:24Z</time>
      </trkpt>
      <trkpt lat="45.934534007683396" lon="8.379002027213574">
        <ele>1678.1186520000001</ele>
        <time>2010-06-02T10:01:39Z</time>
      </trkpt>
      <trkpt lat="45.934517998248339" lon="8.378833970054984">
        <ele>1678.599365</ele>
        <time>2010-06-02T10:01:49Z</time>
      </trkpt>
      <trkpt lat="45.934540964663029" lon="8.378668008372188">
        <ele>1681.483154</ele>
        <time>2010-06-02T10:02:03Z</time>
      </trkpt>
      <trkpt lat="45.934552028775215" lon="8.378561977297068">
        <ele>1685.3283690000001</ele>
        <time>2010-06-02T10:02:16Z</time>
      </trkpt>
      <trkpt lat="45.934573989361525" lon="8.378396015614271">
        <ele>1689.1735839999999</ele>
        <time>2010-06-02T10:02:41Z</time>
      </trkpt>
      <trkpt lat="45.934596033766866" lon="8.378354022279382">
        <ele>1692.057861</ele>
        <time>2010-06-02T10:03:11Z</time>
      </trkpt>
      <trkpt lat="45.934612965211272" lon="8.378348993137479">
        <ele>1693.019043</ele>
        <time>2010-06-02T10:03:13Z</time>
      </trkpt>
      <trkpt lat="45.934683037921786" lon="8.37822200730443">
        <ele>1696.383789</ele>
        <time>2010-06-02T10:03:35Z</time>
      </trkpt>
      <trkpt lat="45.934702986851335" lon="8.378219995647669">
        <ele>1698.3061520000001</ele>
        <time>2010-06-02T10:03:41Z</time>
      </trkpt>
      <trkpt lat="45.934733999893069" lon="8.378176996484399">
        <ele>1700.7094729999999</ele>
        <time>2010-06-02T10:03:59Z</time>
      </trkpt>
      <trkpt lat="45.934729976579547" lon="8.378083035349846">
        <ele>1699.267578</ele>
        <time>2010-06-02T10:04:24Z</time>
      </trkpt>
      <trkpt lat="45.934728970751166" lon="8.378074988722801">
        <ele>1698.3061520000001</ele>
        <time>2010-06-02T10:04:26Z</time>
      </trkpt>
      <trkpt lat="45.934737017378211" lon="8.378022015094757">
        <ele>1697.8256839999999</ele>
        <time>2010-06-02T10:04:36Z</time>
      </trkpt>
      <trkpt lat="45.93475503847003" lon="8.377997037023306">
        <ele>1701.190186</ele>
        <time>2010-06-02T10:04:42Z</time>
      </trkpt>
      <trkpt lat="45.934760989621282" lon="8.377987984567881">
        <ele>1699.7482910000001</ele>
        <time>2010-06-02T10:04:47Z</time>
      </trkpt>
      <trkpt lat="45.934765012934804" lon="8.377978010103107">
        <ele>1700.7094729999999</ele>
        <time>2010-06-02T10:04:53Z</time>
      </trkpt>
      <trkpt lat="45.934773981571198" lon="8.377969041466713">
        <ele>1704.5546879999999</ele>
        <time>2010-06-02T10:04:56Z</time>
      </trkpt>
      <trkpt lat="45.9347790107131" lon="8.377966023981571">
        <ele>1704.5546879999999</ele>
        <time>2010-06-02T10:04:57Z</time>
      </trkpt>
      <trkpt lat="45.934784039855003" lon="8.377949008718133">
        <ele>1701.190186</ele>
        <time>2010-06-02T10:05:00Z</time>
      </trkpt>
      <trkpt lat="45.934784039855003" lon="8.377944985404611">
        <ele>1701.6708980000001</ele>
        <time>2010-06-02T10:05:01Z</time>
      </trkpt>
      <trkpt lat="45.934780016541481" lon="8.377940962091088">
        <ele>1703.112793</ele>
        <time>2010-06-02T10:05:04Z</time>
      </trkpt>
      <trkpt lat="45.934796025976539" lon="8.377895029261708">
        <ele>1705.0354</ele>
        <time>2010-06-02T10:05:25Z</time>
      </trkpt>
      <trkpt lat="45.93482200987637" lon="8.377897962927818">
        <ele>1707.438721</ele>
        <time>2010-06-02T10:05:31Z</time>
      </trkpt>
      <trkpt lat="45.934845982119441" lon="8.377854963764548">
        <ele>1710.322754</ele>
        <time>2010-06-02T10:05:42Z</time>
      </trkpt>
      <trkpt lat="45.934842964634299" lon="8.377839960157871">
        <ele>1706.9580080000001</ele>
        <time>2010-06-02T10:05:43Z</time>
      </trkpt>
      <trkpt lat="45.934847993776202" lon="8.377830991521478">
        <ele>1712.245361</ele>
        <time>2010-06-02T10:05:45Z</time>
      </trkpt>
      <trkpt lat="45.934851011261344" lon="8.377827974036336">
        <ele>1711.764893</ele>
        <time>2010-06-02T10:05:46Z</time>
      </trkpt>
      <trkpt lat="45.934856962412596" lon="8.377841971814632">
        <ele>1711.764893</ele>
        <time>2010-06-02T10:05:53Z</time>
      </trkpt>
      <trkpt lat="45.93486400321126" lon="8.377839038148522">
        <ele>1711.764893</ele>
        <time>2010-06-02T10:05:57Z</time>
      </trkpt>
      <trkpt lat="45.934867020696402" lon="8.377836020663381">
        <ele>1708.8808590000001</ele>
        <time>2010-06-02T10:05:59Z</time>
      </trkpt>
      <trkpt lat="45.934870038181543" lon="8.377828979864717">
        <ele>1708.8808590000001</ele>
        <time>2010-06-02T10:06:00Z</time>
      </trkpt>
      <trkpt lat="45.93490800820291" lon="8.377807019278407">
        <ele>1712.245361</ele>
        <time>2010-06-02T10:06:14Z</time>
      </trkpt>
      <trkpt lat="45.93490800820291" lon="8.377798972651362">
        <ele>1711.764893</ele>
        <time>2010-06-02T10:06:15Z</time>
      </trkpt>
      <trkpt lat="45.934924017637968" lon="8.377769971266389">
        <ele>1713.6872559999999</ele>
        <time>2010-06-02T10:06:26Z</time>
      </trkpt>
      <trkpt lat="45.934956036508083" lon="8.377757985144854">
        <ele>1714.1679690000001</ele>
        <time>2010-06-02T10:06:35Z</time>
      </trkpt>
      <trkpt lat="45.934961987659335" lon="8.377766031771898">
        <ele>1718.0131839999999</ele>
        <time>2010-06-02T10:06:43Z</time>
      </trkpt>
      <trkpt lat="45.935028037056327" lon="8.377714985981584">
        <ele>1718.4938959999999</ele>
        <time>2010-06-02T10:07:02Z</time>
      </trkpt>
      <trkpt lat="45.935028959065676" lon="8.37770501151681">
        <ele>1719.9357910000001</ele>
        <time>2010-06-02T10:07:07Z</time>
      </trkpt>
      <trkpt lat="45.934976991266012" lon="8.377596968784928">
        <ele>1722.8198239999999</ele>
        <time>2010-06-02T10:07:28Z</time>
      </trkpt>
      <trkpt lat="45.934986965730786" lon="8.37757701985538">
        <ele>1724.2619629999999</ele>
        <time>2010-06-02T10:07:33Z</time>
      </trkpt>
      <trkpt lat="45.935010015964508" lon="8.377568973228335">
        <ele>1727.6264650000001</ele>
        <time>2010-06-02T10:07:48Z</time>
      </trkpt>
      <trkpt lat="45.935010015964508" lon="8.377558998763561">
        <ele>1729.549072</ele>
        <time>2010-06-02T10:07:51Z</time>
      </trkpt>
      <trkpt lat="45.93501697294414" lon="8.377553969621658">
        <ele>1732.9135739999999</ele>
        <time>2010-06-02T10:07:58Z</time>
      </trkpt>
      <trkpt lat="45.93501403927803" lon="8.377535026520491">
        <ele>1730.991211</ele>
        <time>2010-06-02T10:08:10Z</time>
      </trkpt>
      <trkpt lat="45.935026025399566" lon="8.377525974065065">
        <ele>1728.107178</ele>
        <time>2010-06-02T10:08:19Z</time>
      </trkpt>
      <trkpt lat="45.935029964894056" lon="8.377525974065065">
        <ele>1728.5878909999999</ele>
        <time>2010-06-02T10:08:20Z</time>
      </trkpt>
      <trkpt lat="45.935045974329114" lon="8.37751398794353">
        <ele>1730.991211</ele>
        <time>2010-06-02T10:08:23Z</time>
      </trkpt>
      <trkpt lat="45.935053015127778" lon="8.377507030963898">
        <ele>1733.3942870000001</ele>
        <time>2010-06-02T10:08:25Z</time>
      </trkpt>
      <trkpt lat="45.935077993199229" lon="8.377462020143867">
        <ele>1737.7202150000001</ele>
        <time>2010-06-02T10:08:37Z</time>
      </trkpt>
      <trkpt lat="45.935084028169513" lon="8.377453973516822">
        <ele>1736.758789</ele>
        <time>2010-06-02T10:08:38Z</time>
      </trkpt>
      <trkpt lat="45.935104982927442" lon="8.377364035695791">
        <ele>1740.6042480000001</ele>
        <time>2010-06-02T10:08:57Z</time>
      </trkpt>
      <trkpt lat="45.9351019654423" lon="8.377367975190282">
        <ele>1739.642822</ele>
        <time>2010-06-02T10:08:58Z</time>
      </trkpt>
      <trkpt lat="45.935105988755822" lon="8.377379039302468">
        <ele>1738.200928</ele>
        <time>2010-06-02T10:09:00Z</time>
      </trkpt>
      <trkpt lat="45.9351019654423" lon="8.377394964918494">
        <ele>1740.123779</ele>
        <time>2010-06-02T10:09:08Z</time>
      </trkpt>
      <trkpt lat="45.935100959613919" lon="8.377394964918494">
        <ele>1736.758789</ele>
        <time>2010-06-02T10:09:10Z</time>
      </trkpt>
      <trkpt lat="45.935097020119429" lon="8.377393037080765">
        <ele>1740.123779</ele>
        <time>2010-06-02T10:09:28Z</time>
      </trkpt>
      <trkpt lat="45.935096014291048" lon="8.377393037080765">
        <ele>1743.4882809999999</ele>
        <time>2010-06-02T10:09:34Z</time>
      </trkpt>
      <trkpt lat="45.935096014291048" lon="8.377393037080765">
        <ele>1743.007568</ele>
        <time>2010-06-02T10:09:35Z</time>
      </trkpt>
      <trkpt lat="45.935096014291048" lon="8.377392031252384">
        <ele>1742.0463870000001</ele>
        <time>2010-06-02T10:09:37Z</time>
      </trkpt>
      <trkpt lat="45.935096014291048" lon="8.377392031252384">
        <ele>1740.123779</ele>
        <time>2010-06-02T10:09:41Z</time>
      </trkpt>
      <trkpt lat="45.935096014291048" lon="8.377392031252384">
        <ele>1741.5656739999999</ele>
        <time>2010-06-02T10:09:43Z</time>
      </trkpt>
      <trkpt lat="45.935097020119429" lon="8.377391025424004">
        <ele>1739.1621090000001</ele>
        <time>2010-06-02T10:10:03Z</time>
      </trkpt>
      <trkpt lat="45.935097020119429" lon="8.377389013767242">
        <ele>1740.123779</ele>
        <time>2010-06-02T10:10:08Z</time>
      </trkpt>
      <trkpt lat="45.935098025947809" lon="8.377389013767242">
        <ele>1739.1621090000001</ele>
        <time>2010-06-02T10:10:10Z</time>
      </trkpt>
      <trkpt lat="45.935095008462667" lon="8.377379961311817">
        <ele>1740.123779</ele>
        <time>2010-06-02T10:10:17Z</time>
      </trkpt>
      <trkpt lat="45.93505896627903" lon="8.37727602571249">
        <ele>1741.5656739999999</ele>
        <time>2010-06-02T10:10:29Z</time>
      </trkpt>
      <trkpt lat="45.934996018186212" lon="8.377139987424016">
        <ele>1741.5656739999999</ele>
        <time>2010-06-02T10:10:44Z</time>
      </trkpt>
      <trkpt lat="45.934987971559167" lon="8.377120038494468">
        <ele>1743.007568</ele>
        <time>2010-06-02T10:10:46Z</time>
      </trkpt>
      <trkpt lat="45.934960981830955" lon="8.377072010189295">
        <ele>1738.6816409999999</ele>
        <time>2010-06-02T10:10:52Z</time>
      </trkpt>
      <trkpt lat="45.93492703512311" lon="8.376958016306162">
        <ele>1741.5656739999999</ele>
        <time>2010-06-02T10:11:06Z</time>
      </trkpt>
      <trkpt lat="45.934882024303079" lon="8.376818960532546">
        <ele>1743.9689940000001</ele>
        <time>2010-06-02T10:11:31Z</time>
      </trkpt>
      <trkpt lat="45.934847993776202" lon="8.376705972477794">
        <ele>1743.4882809999999</ele>
        <time>2010-06-02T10:11:45Z</time>
      </trkpt>
      <trkpt lat="45.93484103679657" lon="8.376677976921201">
        <ele>1741.5656739999999</ele>
        <time>2010-06-02T10:11:51Z</time>
      </trkpt>
      <trkpt lat="45.934847993776202" lon="8.376627014949918">
        <ele>1744.4494629999999</ele>
        <time>2010-06-02T10:11:57Z</time>
      </trkpt>
      <trkpt lat="45.934851011261344" lon="8.376620979979634">
        <ele>1744.9301760000001</ele>
        <time>2010-06-02T10:11:58Z</time>
      </trkpt>
      <trkpt lat="45.934870038181543" lon="8.376473961398006">
        <ele>1748.294678</ele>
        <time>2010-06-02T10:12:22Z</time>
      </trkpt>
      <trkpt lat="45.934873977676034" lon="8.376467004418373">
        <ele>1748.7753909999999</ele>
        <time>2010-06-02T10:12:23Z</time>
      </trkpt>
      <trkpt lat="45.934874983504415" lon="8.376376982778311">
        <ele>1753.5820309999999</ele>
        <time>2010-06-02T10:12:39Z</time>
      </trkpt>
      <trkpt lat="45.934853022918105" lon="8.376325014978647">
        <ele>1749.2561040000001</ele>
        <time>2010-06-02T10:12:48Z</time>
      </trkpt>
      <trkpt lat="45.934857968240976" lon="8.37624697946012">
        <ele>1753.101318</ele>
        <time>2010-06-02T10:13:05Z</time>
      </trkpt>
      <trkpt lat="45.934861991554499" lon="8.37624697946012">
        <ele>1752.139893</ele>
        <time>2010-06-02T10:13:06Z</time>
      </trkpt>
      <trkpt lat="45.934883030131459" lon="8.376244967803359">
        <ele>1753.5820309999999</ele>
        <time>2010-06-02T10:13:11Z</time>
      </trkpt>
      <trkpt lat="45.934891998767853" lon="8.37624697946012">
        <ele>1751.178711</ele>
        <time>2010-06-02T10:13:13Z</time>
      </trkpt>
      <trkpt lat="45.934888981282711" lon="8.376247985288501">
        <ele>1752.6206050000001</ele>
        <time>2010-06-02T10:13:15Z</time>
      </trkpt>
      <trkpt lat="45.934893004596233" lon="8.37624303996563">
        <ele>1751.178711</ele>
        <time>2010-06-02T10:13:18Z</time>
      </trkpt>
      <trkpt lat="45.93490700237453" lon="8.37624597363174">
        <ele>1753.5820309999999</ele>
        <time>2010-06-02T10:13:35Z</time>
      </trkpt>
      <trkpt lat="45.935061983764172" lon="8.376188976690173">
        <ele>1754.0627440000001</ele>
        <time>2010-06-02T10:13:53Z</time>
      </trkpt>
      <trkpt lat="45.935065001249313" lon="8.376171039417386">
        <ele>1754.0627440000001</ele>
        <time>2010-06-02T10:14:21Z</time>
      </trkpt>
      <trkpt lat="45.935004986822605" lon="8.376205991953611">
        <ele>1757.42749</ele>
        <time>2010-06-02T10:14:54Z</time>
      </trkpt>
      <trkpt lat="45.935003980994225" lon="8.37620398029685">
        <ele>1754.5432129999999</ele>
        <time>2010-06-02T10:14:58Z</time>
      </trkpt>
      <trkpt lat="45.935002975165844" lon="8.37620398029685">
        <ele>1755.985107</ele>
        <time>2010-06-02T10:15:00Z</time>
      </trkpt>
      <trkpt lat="45.935002975165844" lon="8.37620297446847">
        <ele>1755.504639</ele>
        <time>2010-06-02T10:15:19Z</time>
      </trkpt>
      <trkpt lat="45.935002975165844" lon="8.37620398029685">
        <ele>1754.0627440000001</ele>
        <time>2010-06-02T10:15:28Z</time>
      </trkpt>
      <trkpt lat="45.934898033738136" lon="8.376301964744926">
        <ele>1752.139893</ele>
        <time>2010-06-02T10:15:49Z</time>
      </trkpt>
      <trkpt lat="45.934910019859672" lon="8.376285033300519">
        <ele>1752.139893</ele>
        <time>2010-06-02T10:16:09Z</time>
      </trkpt>
      <trkpt lat="45.934916976839304" lon="8.376274975016713">
        <ele>1752.139893</ele>
        <time>2010-06-02T10:16:29Z</time>
      </trkpt>
      <trkpt lat="45.934914965182543" lon="8.376276986673474">
        <ele>1753.5820309999999</ele>
        <time>2010-06-02T10:16:41Z</time>
      </trkpt>
      <trkpt lat="45.934914965182543" lon="8.376276986673474">
        <ele>1751.178711</ele>
        <time>2010-06-02T10:16:44Z</time>
      </trkpt>
      <trkpt lat="45.934910019859672" lon="8.376282015815377">
        <ele>1752.6206050000001</ele>
        <time>2010-06-02T10:17:26Z</time>
      </trkpt>
      <trkpt lat="45.934910019859672" lon="8.376283021643758">
        <ele>1750.217529</ele>
        <time>2010-06-02T10:17:30Z</time>
      </trkpt>
      <trkpt lat="45.934910019859672" lon="8.376283021643758">
        <ele>1752.6206050000001</ele>
        <time>2010-06-02T10:17:33Z</time>
      </trkpt>
      <trkpt lat="45.934910019859672" lon="8.376284027472138">
        <ele>1754.5432129999999</ele>
        <time>2010-06-02T10:17:45Z</time>
      </trkpt>
      <trkpt lat="45.93490700237453" lon="8.3762860391289">
        <ele>1755.0239260000001</ele>
        <time>2010-06-02T10:18:04Z</time>
      </trkpt>
      <trkpt lat="45.934859979897738" lon="8.376294001936913">
        <ele>1758.388672</ele>
        <time>2010-06-02T10:18:14Z</time>
      </trkpt>
      <trkpt lat="45.934878000989556" lon="8.376274975016713">
        <ele>1755.0239260000001</ele>
        <time>2010-06-02T10:18:19Z</time>
      </trkpt>
      <trkpt lat="45.934883030131459" lon="8.376280004158616">
        <ele>1758.388672</ele>
        <time>2010-06-02T10:18:24Z</time>
      </trkpt>
      <trkpt lat="45.934879006817937" lon="8.376285033300519">
        <ele>1763.1953129999999</ele>
        <time>2010-06-02T10:18:31Z</time>
      </trkpt>
      <trkpt lat="45.934880012646317" lon="8.376285033300519">
        <ele>1764.637207</ele>
        <time>2010-06-02T10:18:33Z</time>
      </trkpt>
      <trkpt lat="45.934882024303079" lon="8.376284027472138">
        <ele>1761.753418</ele>
        <time>2010-06-02T10:18:38Z</time>
      </trkpt>
      <trkpt lat="45.934882024303079" lon="8.376284027472138">
        <ele>1759.8305660000001</ele>
        <time>2010-06-02T10:18:40Z</time>
      </trkpt>
      <trkpt lat="45.934881018474698" lon="8.376284027472138">
        <ele>1758.869385</ele>
        <time>2010-06-02T10:18:48Z</time>
      </trkpt>
      <trkpt lat="45.934880012646317" lon="8.376285033300519">
        <ele>1754.5432129999999</ele>
        <time>2010-06-02T10:18:53Z</time>
      </trkpt>
      <trkpt lat="45.934880012646317" lon="8.376285033300519">
        <ele>1757.908203</ele>
        <time>2010-06-02T10:18:55Z</time>
      </trkpt>
      <trkpt lat="45.934880012646317" lon="8.376284027472138">
        <ele>1758.388672</ele>
        <time>2010-06-02T10:18:56Z</time>
      </trkpt>
      <trkpt lat="45.934880012646317" lon="8.376284027472138">
        <ele>1761.2727050000001</ele>
        <time>2010-06-02T10:18:57Z</time>
      </trkpt>
      <trkpt lat="45.934880012646317" lon="8.376284027472138">
        <ele>1764.637207</ele>
        <time>2010-06-02T10:18:59Z</time>
      </trkpt>
      <trkpt lat="45.934880012646317" lon="8.376284027472138">
        <ele>1764.1564940000001</ele>
        <time>2010-06-02T10:19:00Z</time>
      </trkpt>
      <trkpt lat="45.934880012646317" lon="8.376284027472138">
        <ele>1756.9467770000001</ele>
        <time>2010-06-02T10:19:02Z</time>
      </trkpt>
      <trkpt lat="45.934880012646317" lon="8.376285033300519">
        <ele>1753.5820309999999</ele>
        <time>2010-06-02T10:19:08Z</time>
      </trkpt>
      <trkpt lat="45.934880012646317" lon="8.376285033300519">
        <ele>1755.504639</ele>
        <time>2010-06-02T10:19:11Z</time>
      </trkpt>
      <trkpt lat="45.934879006817937" lon="8.376285033300519">
        <ele>1753.5820309999999</ele>
        <time>2010-06-02T10:19:13Z</time>
      </trkpt>
      <trkpt lat="45.934880012646317" lon="8.3762860391289">
        <ele>1753.101318</ele>
        <time>2010-06-02T10:19:23Z</time>
      </trkpt>
      <trkpt lat="45.934879006817937" lon="8.376287966966629">
        <ele>1754.0627440000001</ele>
        <time>2010-06-02T10:19:30Z</time>
      </trkpt>
      <trkpt lat="45.934879006817937" lon="8.376287966966629">
        <ele>1752.139893</ele>
        <time>2010-06-02T10:19:32Z</time>
      </trkpt>
      <trkpt lat="45.934879006817937" lon="8.37628897279501">
        <ele>1753.101318</ele>
        <time>2010-06-02T10:19:45Z</time>
      </trkpt>
      <trkpt lat="45.934879006817937" lon="8.37628897279501">
        <ele>1752.6206050000001</ele>
        <time>2010-06-02T10:19:50Z</time>
      </trkpt>
      <trkpt lat="45.934878000989556" lon="8.376291990280151">
        <ele>1752.139893</ele>
        <time>2010-06-02T10:20:17Z</time>
      </trkpt>
      <trkpt lat="45.934880012646317" lon="8.37628997862339">
        <ele>1755.504639</ele>
        <time>2010-06-02T10:20:32Z</time>
      </trkpt>
      <trkpt lat="45.934880012646317" lon="8.37628997862339">
        <ele>1755.504639</ele>
        <time>2010-06-02T10:20:33Z</time>
      </trkpt>
      <trkpt lat="45.934880012646317" lon="8.37628997862339">
        <ele>1756.9467770000001</ele>
        <time>2010-06-02T10:20:36Z</time>
      </trkpt>
      <trkpt lat="45.934880012646317" lon="8.37628997862339">
        <ele>1751.6594239999999</ele>
        <time>2010-06-02T10:20:45Z</time>
      </trkpt>
      <trkpt lat="45.934880012646317" lon="8.376291990280151">
        <ele>1752.6206050000001</ele>
        <time>2010-06-02T10:20:46Z</time>
      </trkpt>
      <trkpt lat="45.934882024303079" lon="8.376295007765293">
        <ele>1755.985107</ele>
        <time>2010-06-02T10:20:47Z</time>
      </trkpt>
      <trkpt lat="45.934879006817937" lon="8.376298025250435">
        <ele>1755.0239260000001</ele>
        <time>2010-06-02T10:20:48Z</time>
      </trkpt>
      <trkpt lat="45.934879006817937" lon="8.376304982230067">
        <ele>1751.6594239999999</ele>
        <time>2010-06-02T10:21:01Z</time>
      </trkpt>
      <trkpt lat="45.934874983504415" lon="8.376307999715209">
        <ele>1752.6206050000001</ele>
        <time>2010-06-02T10:21:05Z</time>
      </trkpt>
      <trkpt lat="45.934888981282711" lon="8.376280004158616">
        <ele>1755.504639</ele>
        <time>2010-06-02T10:21:20Z</time>
      </trkpt>
      <trkpt lat="45.934962993487716" lon="8.376237004995346">
        <ele>1757.42749</ele>
        <time>2010-06-02T10:21:29Z</time>
      </trkpt>
      <trkpt lat="45.934998029842973" lon="8.376211021095514">
        <ele>1752.6206050000001</ele>
        <time>2010-06-02T10:21:34Z</time>
      </trkpt>
      <trkpt lat="45.935005992650986" lon="8.376214038580656">
        <ele>1755.0239260000001</ele>
        <time>2010-06-02T10:21:35Z</time>
      </trkpt>
      <trkpt lat="45.935018984600902" lon="8.376208003610373">
        <ele>1754.0627440000001</ele>
        <time>2010-06-02T10:21:42Z</time>
      </trkpt>
      <trkpt lat="45.935124009847641" lon="8.37618101388216">
        <ele>1756.466064</ele>
        <time>2010-06-02T10:21:53Z</time>
      </trkpt>
      <trkpt lat="45.935134990140796" lon="8.37615704163909">
        <ele>1758.869385</ele>
        <time>2010-06-02T10:21:55Z</time>
      </trkpt>
      <trkpt lat="45.93514303676784" lon="8.376146983355284">
        <ele>1757.908203</ele>
        <time>2010-06-02T10:21:56Z</time>
      </trkpt>
      <trkpt lat="45.935178995132446" lon="8.376107001677156">
        <ele>1754.5432129999999</ele>
        <time>2010-06-02T10:22:00Z</time>
      </trkpt>
      <trkpt lat="45.935215959325433" lon="8.376080011948943">
        <ele>1751.6594239999999</ele>
        <time>2010-06-02T10:22:05Z</time>
      </trkpt>
      <trkpt lat="45.935290977358818" lon="8.375986972823739">
        <ele>1747.8142089999999</ele>
        <time>2010-06-02T10:22:19Z</time>
      </trkpt>
      <trkpt lat="45.935413017868996" lon="8.375839032232761">
        <ele>1745.410889</ele>
        <time>2010-06-02T10:22:38Z</time>
      </trkpt>
      <trkpt lat="45.935442019253969" lon="8.375842971727252">
        <ele>1742.0463870000001</ele>
        <time>2010-06-02T10:22:42Z</time>
      </trkpt>
      <trkpt lat="45.935445036739111" lon="8.375851018354297">
        <ele>1742.5271</ele>
        <time>2010-06-02T10:22:43Z</time>
      </trkpt>
      <trkpt lat="45.93544595874846" lon="8.375865016132593">
        <ele>1740.6042480000001</ele>
        <time>2010-06-02T10:22:45Z</time>
      </trkpt>
      <trkpt lat="45.93544302508235" lon="8.375873984768987">
        <ele>1746.852783</ele>
        <time>2010-06-02T10:22:56Z</time>
      </trkpt>
      <trkpt lat="45.935445036739111" lon="8.375869961455464">
        <ele>1747.333496</ele>
        <time>2010-06-02T10:22:57Z</time>
      </trkpt>
      <trkpt lat="45.935448976233602" lon="8.375857975333929">
        <ele>1748.294678</ele>
        <time>2010-06-02T10:22:59Z</time>
      </trkpt>
      <trkpt lat="45.935499016195536" lon="8.375770971179009">
        <ele>1744.9301760000001</ele>
        <time>2010-06-02T10:23:07Z</time>
      </trkpt>
      <trkpt lat="45.935505973175168" lon="8.375766025856137">
        <ele>1744.4494629999999</ele>
        <time>2010-06-02T10:23:08Z</time>
      </trkpt>
      <trkpt lat="45.935507984831929" lon="8.375763008370996">
        <ele>1747.8142089999999</ele>
        <time>2010-06-02T10:23:11Z</time>
      </trkpt>
      <trkpt lat="45.935523994266987" lon="8.375749010592699">
        <ele>1744.9301760000001</ele>
        <time>2010-06-02T10:23:20Z</time>
      </trkpt>
      <trkpt lat="45.935525000095367" lon="8.375744987279177">
        <ele>1744.9301760000001</ele>
        <time>2010-06-02T10:23:21Z</time>
      </trkpt>
      <trkpt lat="45.935540003702044" lon="8.375748004764319">
        <ele>1747.8142089999999</ele>
        <time>2010-06-02T10:23:26Z</time>
      </trkpt>
      <trkpt lat="45.935541009530425" lon="8.375745993107557">
        <ele>1747.333496</ele>
        <time>2010-06-02T10:23:27Z</time>
      </trkpt>
      <trkpt lat="45.935564981773496" lon="8.375723026692867">
        <ele>1743.9689940000001</ele>
        <time>2010-06-02T10:23:33Z</time>
      </trkpt>
      <trkpt lat="45.935575040057302" lon="8.375723026692867">
        <ele>1741.084961</ele>
        <time>2010-06-02T10:23:35Z</time>
      </trkpt>
      <trkpt lat="45.935590965673327" lon="8.375748004764319">
        <ele>1739.1621090000001</ele>
        <time>2010-06-02T10:23:39Z</time>
      </trkpt>
      <trkpt lat="45.935627007856965" lon="8.375754961743951">
        <ele>1734.8364260000001</ele>
        <time>2010-06-02T10:23:58Z</time>
      </trkpt>
      <trkpt lat="45.935655003413558" lon="8.375706011429429">
        <ele>1736.758789</ele>
        <time>2010-06-02T10:24:36Z</time>
      </trkpt>
      <trkpt lat="45.935647040605545" lon="8.37570701725781">
        <ele>1735.797607</ele>
        <time>2010-06-02T10:24:48Z</time>
      </trkpt>
      <trkpt lat="45.935647040605545" lon="8.37570701725781">
        <ele>1733.875</ele>
        <time>2010-06-02T10:24:53Z</time>
      </trkpt>
      <trkpt lat="45.935648968443274" lon="8.375706011429429">
        <ele>1730.991211</ele>
        <time>2010-06-02T10:24:57Z</time>
      </trkpt>
      <trkpt lat="45.935686016455293" lon="8.375692013651133">
        <ele>1734.3557129999999</ele>
        <time>2010-06-02T10:25:50Z</time>
      </trkpt>
      <trkpt lat="45.935687022283673" lon="8.375692013651133">
        <ele>1735.3168949999999</ele>
        <time>2010-06-02T10:25:52Z</time>
      </trkpt>
      <trkpt lat="45.935690039768815" lon="8.375691007822752">
        <ele>1733.3942870000001</ele>
        <time>2010-06-02T10:25:57Z</time>
      </trkpt>
      <trkpt lat="45.935716023668647" lon="8.375682039186359">
        <ele>1736.758789</ele>
        <time>2010-06-02T10:26:20Z</time>
      </trkpt>
      <trkpt lat="45.935716023668647" lon="8.375682039186359">
        <ele>1736.758789</ele>
        <time>2010-06-02T10:26:21Z</time>
      </trkpt>
      <trkpt lat="45.93572499230504" lon="8.375679021701217">
        <ele>1733.875</ele>
        <time>2010-06-02T10:26:34Z</time>
      </trkpt>
      <trkpt lat="45.935731027275324" lon="8.375676004216075">
        <ele>1737.2395019999999</ele>
        <time>2010-06-02T10:26:43Z</time>
      </trkpt>
      <trkpt lat="45.935731027275324" lon="8.375676004216075">
        <ele>1735.797607</ele>
        <time>2010-06-02T10:26:44Z</time>
      </trkpt>
      <trkpt lat="45.93572499230504" lon="8.375679021701217">
        <ele>1732.4331050000001</ele>
        <time>2010-06-02T10:26:51Z</time>
      </trkpt>
      <trkpt lat="45.935719041153789" lon="8.375672986730933">
        <ele>1730.5104980000001</ele>
        <time>2010-06-02T10:26:56Z</time>
      </trkpt>
      <trkpt lat="45.935706971213222" lon="8.375676004216075">
        <ele>1735.3168949999999</ele>
        <time>2010-06-02T10:26:58Z</time>
      </trkpt>
      <trkpt lat="45.935703031718731" lon="8.375666029751301">
        <ele>1736.758789</ele>
        <time>2010-06-02T10:27:00Z</time>
      </trkpt>
      <trkpt lat="45.935693979263306" lon="8.37566502392292">
        <ele>1735.797607</ele>
        <time>2010-06-02T10:27:08Z</time>
      </trkpt>
      <trkpt lat="45.935686016455293" lon="8.375668963417411">
        <ele>1732.9135739999999</ele>
        <time>2010-06-02T10:27:12Z</time>
      </trkpt>
      <trkpt lat="45.935672018676996" lon="8.375677010044456">
        <ele>1736.2783199999999</ele>
        <time>2010-06-02T10:27:19Z</time>
      </trkpt>
      <trkpt lat="45.935669001191854" lon="8.375677010044456">
        <ele>1738.200928</ele>
        <time>2010-06-02T10:27:31Z</time>
      </trkpt>
      <trkpt lat="45.935671012848616" lon="8.375677010044456">
        <ele>1739.642822</ele>
        <time>2010-06-02T10:27:33Z</time>
      </trkpt>
      <trkpt lat="45.935732033103704" lon="8.375626970082521">
        <ele>1740.123779</ele>
        <time>2010-06-02T10:27:53Z</time>
      </trkpt>
      <trkpt lat="45.935734966769814" lon="8.375628981739283">
        <ele>1743.4882809999999</ele>
        <time>2010-06-02T10:28:01Z</time>
      </trkpt>
      <trkpt lat="45.935746030882001" lon="8.375611966475844">
        <ele>1740.6042480000001</ele>
        <time>2010-06-02T10:28:06Z</time>
      </trkpt>
      <trkpt lat="45.935753993690014" lon="8.375592017546296">
        <ele>1735.797607</ele>
        <time>2010-06-02T10:28:09Z</time>
      </trkpt>
      <trkpt lat="45.935762962326407" lon="8.375591011717916">
        <ele>1736.2783199999999</ele>
        <time>2010-06-02T10:28:14Z</time>
      </trkpt>
      <trkpt lat="45.935773020610213" lon="8.375589000061154">
        <ele>1726.1845699999999</ele>
        <time>2010-06-02T10:28:17Z</time>
      </trkpt>
      <trkpt lat="45.935776038095355" lon="8.375592017546296">
        <ele>1734.3557129999999</ele>
        <time>2010-06-02T10:28:18Z</time>
      </trkpt>
      <trkpt lat="45.935786012560129" lon="8.375590005889535">
        <ele>1736.758789</ele>
        <time>2010-06-02T10:28:20Z</time>
      </trkpt>
      <trkpt lat="45.935800010338426" lon="8.375580031424761">
        <ele>1735.3168949999999</ele>
        <time>2010-06-02T10:28:23Z</time>
      </trkpt>
      <trkpt lat="45.935797998681664" lon="8.375565027818084">
        <ele>1735.797607</ele>
        <time>2010-06-02T10:28:31Z</time>
      </trkpt>
      <trkpt lat="45.935795987024903" lon="8.375550024211407">
        <ele>1734.8364260000001</ele>
        <time>2010-06-02T10:28:37Z</time>
      </trkpt>
      <trkpt lat="45.935823982581496" lon="8.375490009784699">
        <ele>1731.952393</ele>
        <time>2010-06-02T10:28:46Z</time>
      </trkpt>
      <trkpt lat="45.935835968703032" lon="8.375448016449809">
        <ele>1728.107178</ele>
        <time>2010-06-02T10:28:51Z</time>
      </trkpt>
      <trkpt lat="45.935904029756784" lon="8.375371992588043">
        <ele>1726.665283</ele>
        <time>2010-06-02T10:29:07Z</time>
      </trkpt>
      <trkpt lat="45.935983993113041" lon="8.375327987596393">
        <ele>1723.7810059999999</ele>
        <time>2010-06-02T10:29:22Z</time>
      </trkpt>
      <trkpt lat="45.936006037518382" lon="8.375329999253154">
        <ele>1720.897217</ele>
        <time>2010-06-02T10:29:38Z</time>
      </trkpt>
      <trkpt lat="45.936012994498014" lon="8.375325975939632">
        <ele>1718.4938959999999</ele>
        <time>2010-06-02T10:29:42Z</time>
      </trkpt>
      <trkpt lat="45.93604501336813" lon="8.375068986788392">
        <ele>1716.571289</ele>
        <time>2010-06-02T10:30:05Z</time>
      </trkpt>
      <trkpt lat="45.936077032238245" lon="8.375029005110264">
        <ele>1714.1679690000001</ele>
        <time>2010-06-02T10:30:09Z</time>
      </trkpt>
      <trkpt lat="45.936078038066626" lon="8.37493697181344">
        <ele>1711.2841800000001</ele>
        <time>2010-06-02T10:30:37Z</time>
      </trkpt>
      <trkpt lat="45.936092035844922" lon="8.374922974035144">
        <ele>1708.4001459999999</ele>
        <time>2010-06-02T10:30:58Z</time>
      </trkpt>
      <trkpt lat="45.936093041673303" lon="8.374922974035144">
        <ele>1707.438721</ele>
        <time>2010-06-02T10:31:06Z</time>
      </trkpt>
      <trkpt lat="45.936193037778139" lon="8.37480504065752">
        <ele>1704.0742190000001</ele>
        <time>2010-06-02T10:31:26Z</time>
      </trkpt>
      <trkpt lat="45.93621701002121" lon="8.374736979603767">
        <ele>1700.229004</ele>
        <time>2010-06-02T10:31:41Z</time>
      </trkpt>
      <trkpt lat="45.936227990314364" lon="8.37472197599709">
        <ele>1698.786865</ele>
        <time>2010-06-02T10:31:44Z</time>
      </trkpt>
      <trkpt lat="45.936280963942409" lon="8.374671014025807">
        <ele>1694.94165</ele>
        <time>2010-06-02T10:32:02Z</time>
      </trkpt>
      <trkpt lat="45.936318011954427" lon="8.374681994318962">
        <ele>1694.94165</ele>
        <time>2010-06-02T10:32:12Z</time>
      </trkpt>
      <trkpt lat="45.936310971155763" lon="8.374660033732653">
        <ele>1691.576904</ele>
        <time>2010-06-02T10:32:19Z</time>
      </trkpt>
      <trkpt lat="45.936309965327382" lon="8.374657016247511">
        <ele>1691.576904</ele>
        <time>2010-06-02T10:32:20Z</time>
      </trkpt>
      <trkpt lat="45.936308037489653" lon="8.374646035954356">
        <ele>1690.13501</ele>
        <time>2010-06-02T10:32:23Z</time>
      </trkpt>
      <trkpt lat="45.936316000297666" lon="8.374595995992422">
        <ele>1689.654297</ele>
        <time>2010-06-02T10:32:28Z</time>
      </trkpt>
      <trkpt lat="45.936354976147413" lon="8.37454603984952">
        <ele>1691.576904</ele>
        <time>2010-06-02T10:32:40Z</time>
      </trkpt>
      <trkpt lat="45.936397975310683" lon="8.374456018209457">
        <ele>1688.2124020000001</ele>
        <time>2010-06-02T10:33:06Z</time>
      </trkpt>
      <trkpt lat="45.936415996402502" lon="8.37446297518909">
        <ele>1689.1735839999999</ele>
        <time>2010-06-02T10:33:17Z</time>
      </trkpt>
      <trkpt lat="45.936426976695657" lon="8.37446004152298">
        <ele>1685.809082</ele>
        <time>2010-06-02T10:33:20Z</time>
      </trkpt>
      <trkpt lat="45.93643301166594" lon="8.374457024037838">
        <ele>1688.693115</ele>
        <time>2010-06-02T10:33:21Z</time>
      </trkpt>
      <trkpt lat="45.936451032757759" lon="8.374444032087922">
        <ele>1684.8479</ele>
        <time>2010-06-02T10:33:26Z</time>
      </trkpt>
      <trkpt lat="45.936458995565772" lon="8.37444101460278">
        <ele>1686.2897949999999</ele>
        <time>2010-06-02T10:33:30Z</time>
      </trkpt>
      <trkpt lat="45.936480034142733" lon="8.374400027096272">
        <ele>1683.886475</ele>
        <time>2010-06-02T10:33:37Z</time>
      </trkpt>
      <trkpt lat="45.936525966972113" lon="8.374266000464559">
        <ele>1682.4445800000001</ele>
        <time>2010-06-02T10:33:48Z</time>
      </trkpt>
      <trkpt lat="45.936553962528706" lon="8.374177990481257">
        <ele>1684.8479</ele>
        <time>2010-06-02T10:33:56Z</time>
      </trkpt>
      <trkpt lat="45.936556980013847" lon="8.374171033501625">
        <ele>1684.8479</ele>
        <time>2010-06-02T10:33:57Z</time>
      </trkpt>
      <trkpt lat="45.936601990833879" lon="8.374045975506306">
        <ele>1688.693115</ele>
        <time>2010-06-02T10:34:09Z</time>
      </trkpt>
      <trkpt lat="45.936606014147401" lon="8.374031977728009">
        <ele>1688.693115</ele>
        <time>2010-06-02T10:34:10Z</time>
      </trkpt>
      <trkpt lat="45.936619006097317" lon="8.37401102297008">
        <ele>1688.2124020000001</ele>
        <time>2010-06-02T10:34:12Z</time>
      </trkpt>
      <trkpt lat="45.936676003038883" lon="8.373956959694624">
        <ele>1683.886475</ele>
        <time>2010-06-02T10:34:19Z</time>
      </trkpt>
      <trkpt lat="45.936682960018516" lon="8.373951008543372">
        <ele>1683.886475</ele>
        <time>2010-06-02T10:34:20Z</time>
      </trkpt>
      <trkpt lat="45.936702992767096" lon="8.373918989673257">
        <ele>1680.5219729999999</ele>
        <time>2010-06-02T10:34:24Z</time>
      </trkpt>
      <trkpt lat="45.936711961403489" lon="8.373891999945045">
        <ele>1679.560547</ele>
        <time>2010-06-02T10:34:26Z</time>
      </trkpt>
      <trkpt lat="45.936739034950733" lon="8.373808013275266">
        <ele>1677.157471</ele>
        <time>2010-06-02T10:34:33Z</time>
      </trkpt>
      <trkpt lat="45.936740962788463" lon="8.373722014948726">
        <ele>1681.483154</ele>
        <time>2010-06-02T10:34:40Z</time>
      </trkpt>
      <trkpt lat="45.936741968616843" lon="8.373695025220513">
        <ele>1680.04126</ele>
        <time>2010-06-02T10:34:42Z</time>
      </trkpt>
      <trkpt lat="45.936762001365423" lon="8.373571978881955">
        <ele>1676.6767580000001</ele>
        <time>2010-06-02T10:34:52Z</time>
      </trkpt>
      <trkpt lat="45.936762001365423" lon="8.373555969446898">
        <ele>1678.1186520000001</ele>
        <time>2010-06-02T10:34:55Z</time>
      </trkpt>
      <trkpt lat="45.936845988035202" lon="8.373384978622198">
        <ele>1678.1186520000001</ele>
        <time>2010-06-02T10:35:34Z</time>
      </trkpt>
      <trkpt lat="45.936893010511994" lon="8.373257992789149">
        <ele>1674.7539059999999</ele>
        <time>2010-06-02T10:35:44Z</time>
      </trkpt>
      <trkpt lat="45.936894016340375" lon="8.373241983354092">
        <ele>1674.7539059999999</ele>
        <time>2010-06-02T10:35:45Z</time>
      </trkpt>
      <trkpt lat="45.936944978311658" lon="8.373103011399508">
        <ele>1673.3120120000001</ele>
        <time>2010-06-02T10:35:57Z</time>
      </trkpt>
      <trkpt lat="45.936962999403477" lon="8.373085996136069">
        <ele>1670.4279790000001</ele>
        <time>2010-06-02T10:35:59Z</time>
      </trkpt>
      <trkpt lat="45.937029970809817" lon="8.372961021959782">
        <ele>1671.8698730000001</ele>
        <time>2010-06-02T10:36:11Z</time>
      </trkpt>
      <trkpt lat="45.937031982466578" lon="8.372954986989498">
        <ele>1671.8698730000001</ele>
        <time>2010-06-02T10:36:12Z</time>
      </trkpt>
      <trkpt lat="45.937037011608481" lon="8.37291500531137">
        <ele>1670.4279790000001</ele>
        <time>2010-06-02T10:36:14Z</time>
      </trkpt>
      <trkpt lat="45.93707799911499" lon="8.372686011716723">
        <ele>1668.024658</ele>
        <time>2010-06-02T10:36:30Z</time>
      </trkpt>
      <trkpt lat="45.93712099827826" lon="8.372512003406882">
        <ele>1669.9472659999999</ele>
        <time>2010-06-02T10:36:43Z</time>
      </trkpt>
      <trkpt lat="45.937181012704968" lon="8.37233598344028">
        <ele>1667.5439449999999</ele>
        <time>2010-06-02T10:36:58Z</time>
      </trkpt>
      <trkpt lat="45.937199033796787" lon="8.372311005368829">
        <ele>1667.5439449999999</ele>
        <time>2010-06-02T10:37:01Z</time>
      </trkpt>
      <trkpt lat="45.937255024909973" lon="8.372162980958819">
        <ele>1666.582764</ele>
        <time>2010-06-02T10:37:21Z</time>
      </trkpt>
      <trkpt lat="45.937282014638186" lon="8.372112018987536">
        <ele>1665.621582</ele>
        <time>2010-06-02T10:37:28Z</time>
      </trkpt>
      <trkpt lat="45.937302969396114" lon="8.372072959318757">
        <ele>1664.179443</ele>
        <time>2010-06-02T10:37:32Z</time>
      </trkpt>
      <trkpt lat="45.937364995479584" lon="8.371986960992217">
        <ele>1662.256836</ele>
        <time>2010-06-02T10:37:43Z</time>
      </trkpt>
      <trkpt lat="45.937397014349699" lon="8.37194899097085">
        <ele>1658.4113769999999</ele>
        <time>2010-06-02T10:37:51Z</time>
      </trkpt>
      <trkpt lat="45.93740195967257" lon="8.371942033991218">
        <ele>1658.8920900000001</ele>
        <time>2010-06-02T10:37:52Z</time>
      </trkpt>
      <trkpt lat="45.937488041818142" lon="8.371942033991218">
        <ele>1656.008057</ele>
        <time>2010-06-02T10:38:07Z</time>
      </trkpt>
      <trkpt lat="45.937535986304283" lon="8.371873972937465">
        <ele>1653.124268</ele>
        <time>2010-06-02T10:38:18Z</time>
      </trkpt>
      <trkpt lat="45.937533974647522" lon="8.371871039271355">
        <ele>1653.6049800000001</ele>
        <time>2010-06-02T10:38:19Z</time>
      </trkpt>
      <trkpt lat="45.937579991295934" lon="8.371773976832628">
        <ele>1651.6823730000001</ele>
        <time>2010-06-02T10:38:38Z</time>
      </trkpt>
      <trkpt lat="45.937579991295934" lon="8.371724020689726">
        <ele>1648.7983400000001</ele>
        <time>2010-06-02T10:38:47Z</time>
      </trkpt>
      <trkpt lat="45.937600024044514" lon="8.371702982112765">
        <ele>1645.4338379999999</ele>
        <time>2010-06-02T10:39:03Z</time>
      </trkpt>
      <trkpt lat="45.937606981024146" lon="8.371699964627624">
        <ele>1644.953125</ele>
        <time>2010-06-02T10:39:09Z</time>
      </trkpt>
      <trkpt lat="45.937612010166049" lon="8.371698036789894">
        <ele>1643.0302730000001</ele>
        <time>2010-06-02T10:39:13Z</time>
      </trkpt>
      <trkpt lat="45.937617039307952" lon="8.371785962954164">
        <ele>1640.1464840000001</ele>
        <time>2010-06-02T10:39:29Z</time>
      </trkpt>
      <trkpt lat="45.93761301599443" lon="8.371761990711093">
        <ele>1638.7045900000001</ele>
        <time>2010-06-02T10:39:37Z</time>
      </trkpt>
      <trkpt lat="45.937621984630823" lon="8.371753022074699">
        <ele>1637.743164</ele>
        <time>2010-06-02T10:39:39Z</time>
      </trkpt>
      <trkpt lat="45.937704965472221" lon="8.37177699431777">
        <ele>1635.3398440000001</ele>
        <time>2010-06-02T10:39:50Z</time>
      </trkpt>
      <trkpt lat="45.937718963250518" lon="8.371767019852996">
        <ele>1636.7817379999999</ele>
        <time>2010-06-02T10:39:53Z</time>
      </trkpt>
      <trkpt lat="45.937783000990748" lon="8.371887970715761">
        <ele>1632.4560550000001</ele>
        <time>2010-06-02T10:40:06Z</time>
      </trkpt>
      <trkpt lat="45.937776966020465" lon="8.371942033991218">
        <ele>1632.4560550000001</ele>
        <time>2010-06-02T10:40:07Z</time>
      </trkpt>
      <trkpt lat="45.937935970723629" lon="8.371782023459673">
        <ele>1629.5720209999999</ele>
        <time>2010-06-02T10:40:50Z</time>
      </trkpt>
      <trkpt lat="45.938007971271873" lon="8.371569961309433">
        <ele>1627.1687010000001</ele>
        <time>2010-06-02T10:41:17Z</time>
      </trkpt>
      <trkpt lat="45.93802004121244" lon="8.371551018208265">
        <ele>1625.24585</ele>
        <time>2010-06-02T10:41:21Z</time>
      </trkpt>
      <trkpt lat="45.938126994296908" lon="8.371563004329801">
        <ele>1622.362061</ele>
        <time>2010-06-02T10:41:40Z</time>
      </trkpt>
      <trkpt lat="45.938224978744984" lon="8.371427971869707">
        <ele>1618.516846</ele>
        <time>2010-06-02T10:41:59Z</time>
      </trkpt>
      <trkpt lat="45.938359005376697" lon="8.371372986584902">
        <ele>1616.5942379999999</ele>
        <time>2010-06-02T10:42:14Z</time>
      </trkpt>
      <trkpt lat="45.93836797401309" lon="8.37126100435853">
        <ele>1614.190918</ele>
        <time>2010-06-02T10:42:22Z</time>
      </trkpt>
      <trkpt lat="45.93838700093329" lon="8.371221022680402">
        <ele>1616.113525</ele>
        <time>2010-06-02T10:42:26Z</time>
      </trkpt>
      <trkpt lat="45.938391024246812" lon="8.371166037395597">
        <ele>1612.7490230000001</ele>
        <time>2010-06-02T10:42:31Z</time>
      </trkpt>
      <trkpt lat="45.938397981226444" lon="8.371125971898437">
        <ele>1611.7875979999999</ele>
        <time>2010-06-02T10:42:35Z</time>
      </trkpt>
      <trkpt lat="45.938416002318263" lon="8.370970990508795">
        <ele>1610.3454589999999</ele>
        <time>2010-06-02T10:42:45Z</time>
      </trkpt>
      <trkpt lat="45.938455983996391" lon="8.370907036587596">
        <ele>1611.306885</ele>
        <time>2010-06-02T10:42:53Z</time>
      </trkpt>
      <trkpt lat="45.938595961779356" lon="8.370734034106135">
        <ele>1607.9423830000001</ele>
        <time>2010-06-02T10:43:18Z</time>
      </trkpt>
      <trkpt lat="45.938681038096547" lon="8.370583998039365">
        <ele>1607.4616699999999</ele>
        <time>2010-06-02T10:43:47Z</time>
      </trkpt>
      <trkpt lat="45.938663017004728" lon="8.370391968637705">
        <ele>1610.3454589999999</ele>
        <time>2010-06-02T10:44:02Z</time>
      </trkpt>
      <trkpt lat="45.938681038096547" lon="8.370290966704488">
        <ele>1608.903564</ele>
        <time>2010-06-02T10:44:25Z</time>
      </trkpt>
      <trkpt lat="45.938678020611405" lon="8.370291972532868">
        <ele>1606.0195309999999</ele>
        <time>2010-06-02T10:44:38Z</time>
      </trkpt>
      <trkpt lat="45.938679026439786" lon="8.370289038866758">
        <ele>1605.5390629999999</ele>
        <time>2010-06-02T10:44:47Z</time>
      </trkpt>
      <trkpt lat="45.938593028113246" lon="8.370246961712837">
        <ele>1601.6938479999999</ele>
        <time>2010-06-02T10:46:17Z</time>
      </trkpt>
      <trkpt lat="45.938547011464834" lon="8.370154006406665">
        <ele>1598.3291019999999</ele>
        <time>2010-06-02T10:46:31Z</time>
      </trkpt>
      <trkpt lat="45.93853703700006" lon="8.370154006406665">
        <ele>1597.8486330000001</ele>
        <time>2010-06-02T10:46:33Z</time>
      </trkpt>
      <trkpt lat="45.93853896483779" lon="8.370154006406665">
        <ele>1594.483643</ele>
        <time>2010-06-02T10:46:47Z</time>
      </trkpt>
      <trkpt lat="45.9385159984231" lon="8.370137996971607">
        <ele>1591.5998540000001</ele>
        <time>2010-06-02T10:47:07Z</time>
      </trkpt>
      <trkpt lat="45.938385995104909" lon="8.370175966992974">
        <ele>1588.2353519999999</ele>
        <time>2010-06-02T10:47:25Z</time>
      </trkpt>
      <trkpt lat="45.938374008983374" lon="8.370174039155245">
        <ele>1585.351318</ele>
        <time>2010-06-02T10:47:35Z</time>
      </trkpt>
      <trkpt lat="45.938289016485214" lon="8.370169010013342">
        <ele>1582.9479980000001</ele>
        <time>2010-06-02T10:47:50Z</time>
      </trkpt>
      <trkpt lat="45.938225984573364" lon="8.370097009465098">
        <ele>1580.544922</ele>
        <time>2010-06-02T10:48:10Z</time>
      </trkpt>
      <trkpt lat="45.938100004568696" lon="8.370018973946571">
        <ele>1577.1801760000001</ele>
        <time>2010-06-02T10:48:27Z</time>
      </trkpt>
      <trkpt lat="45.938071003183722" lon="8.36999399587512">
        <ele>1578.141357</ele>
        <time>2010-06-02T10:48:30Z</time>
      </trkpt>
      <trkpt lat="45.938035966828465" lon="8.369987038895488">
        <ele>1577.1801760000001</ele>
        <time>2010-06-02T10:48:33Z</time>
      </trkpt>
      <trkpt lat="45.938004031777382" lon="8.37001302279532">
        <ele>1575.2573239999999</ele>
        <time>2010-06-02T10:48:37Z</time>
      </trkpt>
      <trkpt lat="45.937917027622461" lon="8.369866004213691">
        <ele>1573.334961</ele>
        <time>2010-06-02T10:48:53Z</time>
      </trkpt>
      <trkpt lat="45.937833962962031" lon="8.369897017255426">
        <ele>1570.9316409999999</ele>
        <time>2010-06-02T10:49:09Z</time>
      </trkpt>
      <trkpt lat="45.937806973233819" lon="8.369892993941903">
        <ele>1569.489746</ele>
        <time>2010-06-02T10:49:17Z</time>
      </trkpt>
      <trkpt lat="45.937717035412788" lon="8.369851000607014">
        <ele>1566.125</ele>
        <time>2010-06-02T10:49:29Z</time>
      </trkpt>
      <trkpt lat="45.937677975744009" lon="8.369773970916867">
        <ele>1564.202393</ele>
        <time>2010-06-02T10:49:46Z</time>
      </trkpt>
      <trkpt lat="45.937680993229151" lon="8.369768019765616">
        <ele>1560.8376459999999</ele>
        <time>2010-06-02T10:49:58Z</time>
      </trkpt>
      <trkpt lat="45.937647968530655" lon="8.369705993682146">
        <ele>1557.953857</ele>
        <time>2010-06-02T10:50:11Z</time>
      </trkpt>
      <trkpt lat="45.937615027651191" lon="8.36956299841404">
        <ele>1554.589111</ele>
        <time>2010-06-02T10:50:30Z</time>
      </trkpt>
      <trkpt lat="45.937568005174398" lon="8.369484040886164">
        <ele>1551.705322</ele>
        <time>2010-06-02T10:50:37Z</time>
      </trkpt>
      <trkpt lat="45.937341023236513" lon="8.369428971782327">
        <ele>1548.3405760000001</ele>
        <time>2010-06-02T10:51:14Z</time>
      </trkpt>
      <trkpt lat="45.937309004366398" lon="8.369367029517889">
        <ele>1545.456543</ele>
        <time>2010-06-02T10:51:27Z</time>
      </trkpt>
      <trkpt lat="45.937328031286597" lon="8.369302991777659">
        <ele>1542.0920410000001</ele>
        <time>2010-06-02T10:51:41Z</time>
      </trkpt>
      <trkpt lat="45.937382010743022" lon="8.369148010388017">
        <ele>1539.2080080000001</ele>
        <time>2010-06-02T10:52:13Z</time>
      </trkpt>
      <trkpt lat="45.937449987977743" lon="8.369081960991025">
        <ele>1534.401611</ele>
        <time>2010-06-02T10:52:27Z</time>
      </trkpt>
      <trkpt lat="45.937449987977743" lon="8.369081038981676">
        <ele>1534.8823239999999</ele>
        <time>2010-06-02T10:52:28Z</time>
      </trkpt>
      <trkpt lat="45.937448982149363" lon="8.369080033153296">
        <ele>1536.3242190000001</ele>
        <time>2010-06-02T10:52:30Z</time>
      </trkpt>
      <trkpt lat="45.937364995479584" lon="8.369094030931592">
        <ele>1533.440186</ele>
        <time>2010-06-02T10:54:42Z</time>
      </trkpt>
      <trkpt lat="45.937152011319995" lon="8.369225040078163">
        <ele>1530.075439</ele>
        <time>2010-06-02T10:55:17Z</time>
      </trkpt>
      <trkpt lat="45.937050003558397" lon="8.369169970974326">
        <ele>1527.19165</ele>
        <time>2010-06-02T10:55:41Z</time>
      </trkpt>
      <trkpt lat="45.936966016888618" lon="8.369130995124579">
        <ele>1524.7883300000001</ele>
        <time>2010-06-02T10:56:03Z</time>
      </trkpt>
      <trkpt lat="45.936872977763414" lon="8.369023958221078">
        <ele>1521.4235839999999</ele>
        <time>2010-06-02T10:56:25Z</time>
      </trkpt>
      <trkpt lat="45.936785973608494" lon="8.369037033990026">
        <ele>1518.059082</ele>
        <time>2010-06-02T10:56:40Z</time>
      </trkpt>
      <trkpt lat="45.936740040779114" lon="8.369056982919574">
        <ele>1514.694336</ele>
        <time>2010-06-02T10:56:54Z</time>
      </trkpt>
      <trkpt lat="45.93671003356576" lon="8.368971990421414">
        <ele>1511.3298339999999</ele>
        <time>2010-06-02T10:57:04Z</time>
      </trkpt>
      <trkpt lat="45.936706010252237" lon="8.368966039270163">
        <ele>1510.849121</ele>
        <time>2010-06-02T10:57:05Z</time>
      </trkpt>
      <trkpt lat="45.936598973348737" lon="8.368956986814737">
        <ele>1507.965332</ele>
        <time>2010-06-02T10:57:19Z</time>
      </trkpt>
      <trkpt lat="45.936515992507339" lon="8.368933014571667">
        <ele>1504.600586</ele>
        <time>2010-06-02T10:57:33Z</time>
      </trkpt>
      <trkpt lat="45.936510041356087" lon="8.368904013186693">
        <ele>1501.2360839999999</ele>
        <time>2010-06-02T10:57:48Z</time>
      </trkpt>
      <trkpt lat="45.936423037201166" lon="8.368873000144959">
        <ele>1498.351807</ele>
        <time>2010-06-02T10:58:06Z</time>
      </trkpt>
      <trkpt lat="45.936237964779139" lon="8.368794964626432">
        <ele>1495.468018</ele>
        <time>2010-06-02T10:58:30Z</time>
      </trkpt>
      <trkpt lat="45.936195971444249" lon="8.368719024583697">
        <ele>1493.064697</ele>
        <time>2010-06-02T10:59:07Z</time>
      </trkpt>
      <trkpt lat="45.936104021966457" lon="8.368702009320259">
        <ele>1490.180908</ele>
        <time>2010-06-02T10:59:38Z</time>
      </trkpt>
      <trkpt lat="45.936039984226227" lon="8.368633026257157">
        <ele>1486.8161620000001</ele>
        <time>2010-06-02T10:59:56Z</time>
      </trkpt>
      <trkpt lat="45.935983993113041" lon="8.368605030700564">
        <ele>1482.970703</ele>
        <time>2010-06-02T11:00:10Z</time>
      </trkpt>
      <trkpt lat="45.93578802421689" lon="8.368362039327622">
        <ele>1480.086914</ele>
        <time>2010-06-02T11:00:43Z</time>
      </trkpt>
      <trkpt lat="45.935743013396859" lon="8.368314011022449">
        <ele>1479.6062010000001</ele>
        <time>2010-06-02T11:00:49Z</time>
      </trkpt>
      <trkpt lat="45.93568199314177" lon="8.368290960788727">
        <ele>1480.5676269999999</ele>
        <time>2010-06-02T11:01:01Z</time>
      </trkpt>
      <trkpt lat="45.93555198982358" lon="8.368156012147665">
        <ele>1478.6450199999999</ele>
        <time>2010-06-02T11:01:33Z</time>
      </trkpt>
      <trkpt lat="45.935415029525757" lon="8.368235975503922">
        <ele>1475.760986</ele>
        <time>2010-06-02T11:02:20Z</time>
      </trkpt>
      <trkpt lat="45.935318972915411" lon="8.368229018524289">
        <ele>1472.877197</ele>
        <time>2010-06-02T11:02:38Z</time>
      </trkpt>
      <trkpt lat="45.935241021215916" lon="8.368219966068864">
        <ele>1470.9545900000001</ele>
        <time>2010-06-02T11:02:58Z</time>
      </trkpt>
      <trkpt lat="45.935046980157495" lon="8.36838299408555">
        <ele>1472.3964840000001</ele>
        <time>2010-06-02T11:03:33Z</time>
      </trkpt>
      <trkpt lat="45.935022002086043" lon="8.36840596050024">
        <ele>1468.5512699999999</ele>
        <time>2010-06-02T11:04:43Z</time>
      </trkpt>
      <trkpt lat="45.93501403927803" lon="8.368406966328621">
        <ele>1473.838379</ele>
        <time>2010-06-02T11:04:47Z</time>
      </trkpt>
      <trkpt lat="45.93501303344965" lon="8.368407972157002">
        <ele>1473.3579099999999</ele>
        <time>2010-06-02T11:04:48Z</time>
      </trkpt>
      <trkpt lat="45.935012027621269" lon="8.368407972157002">
        <ele>1471.9157709999999</ele>
        <time>2010-06-02T11:04:50Z</time>
      </trkpt>
      <trkpt lat="45.934975985437632" lon="8.368411995470524">
        <ele>1467.5896</ele>
        <time>2010-06-02T11:05:19Z</time>
      </trkpt>
      <trkpt lat="45.934975985437632" lon="8.368411995470524">
        <ele>1472.877197</ele>
        <time>2010-06-02T11:05:20Z</time>
      </trkpt>
      <trkpt lat="45.934981014579535" lon="8.368410989642143">
        <ele>1470.9545900000001</ele>
        <time>2010-06-02T11:05:23Z</time>
      </trkpt>
      <trkpt lat="45.934989983215928" lon="8.368408977985382">
        <ele>1474.319092</ele>
        <time>2010-06-02T11:05:48Z</time>
      </trkpt>
      <trkpt lat="45.934989983215928" lon="8.368408977985382">
        <ele>1472.877197</ele>
        <time>2010-06-02T11:05:49Z</time>
      </trkpt>
      <trkpt lat="45.934989983215928" lon="8.368438985198736">
        <ele>1469.5126949999999</ele>
        <time>2010-06-02T11:06:32Z</time>
      </trkpt>
      <trkpt lat="45.934990989044309" lon="8.368414007127285">
        <ele>1469.031982</ele>
        <time>2010-06-02T11:06:43Z</time>
      </trkpt>
      <trkpt lat="45.935009010136127" lon="8.368397997692227">
        <ele>1471.4350589999999</ele>
        <time>2010-06-02T11:06:51Z</time>
      </trkpt>
      <trkpt lat="45.935010015964508" lon="8.368393974378705">
        <ele>1468.070557</ele>
        <time>2010-06-02T11:07:27Z</time>
      </trkpt>
      <trkpt lat="45.935010015964508" lon="8.368393974378705">
        <ele>1472.3964840000001</ele>
        <time>2010-06-02T11:07:29Z</time>
      </trkpt>
      <trkpt lat="45.935009010136127" lon="8.368396991863847">
        <ele>1471.9157709999999</ele>
        <time>2010-06-02T11:07:50Z</time>
      </trkpt>
      <trkpt lat="45.934818992391229" lon="8.368543004617095">
        <ele>1475.760986</ele>
        <time>2010-06-02T11:08:11Z</time>
      </trkpt>
      <trkpt lat="45.934812035411596" lon="8.36855499073863">
        <ele>1477.203125</ele>
        <time>2010-06-02T11:08:13Z</time>
      </trkpt>
      <trkpt lat="45.934788985177875" lon="8.368578962981701">
        <ele>1479.6062010000001</ele>
        <time>2010-06-02T11:08:15Z</time>
      </trkpt>
      <trkpt lat="45.934754032641649" lon="8.368600001558662">
        <ele>1477.6835940000001</ele>
        <time>2010-06-02T11:08:18Z</time>
      </trkpt>
      <trkpt lat="45.934657976031303" lon="8.368679964914918">
        <ele>1477.6835940000001</ele>
        <time>2010-06-02T11:08:32Z</time>
      </trkpt>
      <trkpt lat="45.934549011290073" lon="8.368728999048472">
        <ele>1479.1254879999999</ele>
        <time>2010-06-02T11:08:46Z</time>
      </trkpt>
      <trkpt lat="45.934492014348507" lon="8.368738973513246">
        <ele>1482.970703</ele>
        <time>2010-06-02T11:08:51Z</time>
      </trkpt>
      <trkpt lat="45.93447801657021" lon="8.368748025968671">
        <ele>1482.970703</ele>
        <time>2010-06-02T11:08:53Z</time>
      </trkpt>
      <trkpt lat="45.934394029900432" lon="8.368825977668166">
        <ele>1481.5288089999999</ele>
        <time>2010-06-02T11:09:03Z</time>
      </trkpt>
      <trkpt lat="45.934256985783577" lon="8.368892027065158">
        <ele>1483.932129</ele>
        <time>2010-06-02T11:09:21Z</time>
      </trkpt>
      <trkpt lat="45.934252040460706" lon="8.368894038721919">
        <ele>1480.5676269999999</ele>
        <time>2010-06-02T11:10:28Z</time>
      </trkpt>
      <trkpt lat="45.934248017147183" lon="8.368895966559649">
        <ele>1478.6450199999999</ele>
        <time>2010-06-02T11:11:19Z</time>
      </trkpt>
      <trkpt lat="45.934249022975564" lon="8.368896972388029">
        <ele>1482.0095209999999</ele>
        <time>2010-06-02T11:11:21Z</time>
      </trkpt>
      <trkpt lat="45.934246005490422" lon="8.368884986266494">
        <ele>1481.5288089999999</ele>
        <time>2010-06-02T11:11:22Z</time>
      </trkpt>
      <trkpt lat="45.93428498134017" lon="8.368931002914906">
        <ele>1478.6450199999999</ele>
        <time>2010-06-02T11:11:38Z</time>
      </trkpt>
      <trkpt lat="45.934287998825312" lon="8.368931002914906">
        <ele>1477.203125</ele>
        <time>2010-06-02T11:11:41Z</time>
      </trkpt>
      <trkpt lat="45.93428498134017" lon="8.368931002914906">
        <ele>1479.1254879999999</ele>
        <time>2010-06-02T11:11:47Z</time>
      </trkpt>
      <trkpt lat="45.934206023812294" lon="8.368987999856472">
        <ele>1479.1254879999999</ele>
        <time>2010-06-02T11:14:11Z</time>
      </trkpt>
      <trkpt lat="45.934215998277068" lon="8.368989005684853">
        <ele>1478.6450199999999</ele>
        <time>2010-06-02T11:14:38Z</time>
      </trkpt>
      <trkpt lat="45.934249022975564" lon="8.36898397654295">
        <ele>1478.164307</ele>
        <time>2010-06-02T11:15:16Z</time>
      </trkpt>
      <trkpt lat="45.934266960248351" lon="8.369020018726587">
        <ele>1474.7998050000001</ele>
        <time>2010-06-02T11:22:52Z</time>
      </trkpt>
      <trkpt lat="45.934281041845679" lon="8.369000991806388">
        <ele>1471.9157709999999</ele>
        <time>2010-06-02T11:25:32Z</time>
      </trkpt>
      <trkpt lat="45.934278024360538" lon="8.369000991806388">
        <ele>1474.319092</ele>
        <time>2010-06-02T11:25:58Z</time>
      </trkpt>
      <trkpt lat="45.934279030188918" lon="8.368997974321246">
        <ele>1473.838379</ele>
        <time>2010-06-02T11:26:22Z</time>
      </trkpt>
      <trkpt lat="45.934279030188918" lon="8.368997974321246">
        <ele>1475.2802730000001</ele>
        <time>2010-06-02T11:26:24Z</time>
      </trkpt>
      <trkpt lat="45.934279030188918" lon="8.368997974321246">
        <ele>1471.4350589999999</ele>
        <time>2010-06-02T11:27:01Z</time>
      </trkpt>
      <trkpt lat="45.934218009933829" lon="8.369422014802694">
        <ele>1469.993164</ele>
        <time>2010-06-02T11:28:46Z</time>
      </trkpt>
      <trkpt lat="45.934208035469055" lon="8.369854018092156">
        <ele>1471.9157709999999</ele>
        <time>2010-06-02T11:29:30Z</time>
      </trkpt>
      <trkpt lat="45.934354970231652" lon="8.370082005858421">
        <ele>1473.3579099999999</ele>
        <time>2010-06-02T11:30:06Z</time>
      </trkpt>
      <trkpt lat="45.934389000758529" lon="8.370303036645055">
        <ele>1476.7224120000001</ele>
        <time>2010-06-02T11:30:26Z</time>
      </trkpt>
      <trkpt lat="45.934298979118466" lon="8.370527001097798">
        <ele>1473.838379</ele>
        <time>2010-06-02T11:31:17Z</time>
      </trkpt>
      <trkpt lat="45.934185991063714" lon="8.370729004964232">
        <ele>1470.4738769999999</ele>
        <time>2010-06-02T11:31:37Z</time>
      </trkpt>
      <trkpt lat="45.934156989678741" lon="8.370875017717481">
        <ele>1467.5896</ele>
        <time>2010-06-02T11:31:49Z</time>
      </trkpt>
      <trkpt lat="45.934120025485754" lon="8.371048020198941">
        <ele>1464.2250979999999</ele>
        <time>2010-06-02T11:32:06Z</time>
      </trkpt>
      <trkpt lat="45.934089012444019" lon="8.371160002425313">
        <ele>1461.3413089999999</ele>
        <time>2010-06-02T11:32:20Z</time>
      </trkpt>
      <trkpt lat="45.934106027707458" lon="8.371253041550517">
        <ele>1461.8220209999999</ele>
        <time>2010-06-02T11:32:36Z</time>
      </trkpt>
      <trkpt lat="45.934108039364219" lon="8.371251029893756">
        <ele>1459.8991699999999</ele>
        <time>2010-06-02T11:32:43Z</time>
      </trkpt>
      <trkpt lat="45.934105021879077" lon="8.371252035722137">
        <ele>1463.2639160000001</ele>
        <time>2010-06-02T11:32:45Z</time>
      </trkpt>
      <trkpt lat="45.934084989130497" lon="8.371251029893756">
        <ele>1459.8991699999999</ele>
        <time>2010-06-02T11:33:09Z</time>
      </trkpt>
      <trkpt lat="45.934050958603621" lon="8.371377009898424">
        <ele>1455.0927730000001</ele>
        <time>2010-06-02T11:33:54Z</time>
      </trkpt>
      <trkpt lat="45.934050958603621" lon="8.371377009898424">
        <ele>1455.0927730000001</ele>
        <time>2010-06-02T11:33:55Z</time>
      </trkpt>
      <trkpt lat="45.934050036594272" lon="8.371377009898424">
        <ele>1459.8991699999999</ele>
        <time>2010-06-02T11:33:56Z</time>
      </trkpt>
      <trkpt lat="45.934049030765891" lon="8.371377009898424">
        <ele>1459.8991699999999</ele>
        <time>2010-06-02T11:33:57Z</time>
      </trkpt>
      <trkpt lat="45.933740995824337" lon="8.371391007676721">
        <ele>1459.4187010000001</ele>
        <time>2010-06-02T11:35:44Z</time>
      </trkpt>
      <trkpt lat="45.933647034689784" lon="8.371474994346499">
        <ele>1460.3798830000001</ele>
        <time>2010-06-02T11:36:20Z</time>
      </trkpt>
      <trkpt lat="45.933386022225022" lon="8.37158395908773">
        <ele>1459.8991699999999</ele>
        <time>2010-06-02T11:37:28Z</time>
      </trkpt>
      <trkpt lat="45.933389961719513" lon="8.371586976572871">
        <ele>1456.534668</ele>
        <time>2010-06-02T11:38:06Z</time>
      </trkpt>
      <trkpt lat="45.933389039710164" lon="8.37158496491611">
        <ele>1459.8991699999999</ele>
        <time>2010-06-02T11:38:41Z</time>
      </trkpt>
      <trkpt lat="45.933406976982951" lon="8.371577002108097">
        <ele>1459.8991699999999</ele>
        <time>2010-06-02T11:43:34Z</time>
      </trkpt>
      <trkpt lat="45.933406976982951" lon="8.371578007936478">
        <ele>1461.3413089999999</ele>
        <time>2010-06-02T11:43:54Z</time>
      </trkpt>
      <trkpt lat="45.933406976982951" lon="8.371578007936478">
        <ele>1457.4960940000001</ele>
        <time>2010-06-02T11:44:02Z</time>
      </trkpt>
      <trkpt lat="45.933383004739881" lon="8.371587982401252">
        <ele>1454.612061</ele>
        <time>2010-06-02T11:45:52Z</time>
      </trkpt>
      <trkpt lat="45.933143030852079" lon="8.371636010706425">
        <ele>1450.7666019999999</ele>
        <time>2010-06-02T11:46:15Z</time>
      </trkpt>
      <trkpt lat="45.933036999776959" lon="8.371695019304752">
        <ele>1447.4021</ele>
        <time>2010-06-02T11:46:31Z</time>
      </trkpt>
      <trkpt lat="45.932910013943911" lon="8.371757967397571">
        <ele>1444.998779</ele>
        <time>2010-06-02T11:46:47Z</time>
      </trkpt>
      <trkpt lat="45.932655036449432" lon="8.371932981535792">
        <ele>1446.440918</ele>
        <time>2010-06-02T11:47:20Z</time>
      </trkpt>
      <trkpt lat="45.932500977069139" lon="8.371997019276023">
        <ele>1445.4794919999999</ele>
        <time>2010-06-02T11:47:37Z</time>
      </trkpt>
      <trkpt lat="45.932310037314892" lon="8.372135991230607">
        <ele>1447.4021</ele>
        <time>2010-06-02T11:48:08Z</time>
      </trkpt>
      <trkpt lat="45.932285981252789" lon="8.372354004532099">
        <ele>1445.9602050000001</ele>
        <time>2010-06-02T11:48:27Z</time>
      </trkpt>
      <trkpt lat="45.932218004018068" lon="8.372557014226914">
        <ele>1442.595703</ele>
        <time>2010-06-02T11:48:44Z</time>
      </trkpt>
      <trkpt lat="45.932149020954967" lon="8.372619040310383">
        <ele>1442.11499</ele>
        <time>2010-06-02T11:48:50Z</time>
      </trkpt>
      <trkpt lat="45.932183973491192" lon="8.372682994231582">
        <ele>1443.076172</ele>
        <time>2010-06-02T11:49:03Z</time>
      </trkpt>
      <trkpt lat="45.9320920240134" lon="8.372686011716723">
        <ele>1440.6728519999999</ele>
        <time>2010-06-02T11:49:20Z</time>
      </trkpt>
      <trkpt lat="45.932053970173001" lon="8.372696992009878">
        <ele>1432.020996</ele>
        <time>2010-06-02T11:49:27Z</time>
      </trkpt>
      <trkpt lat="45.932048019021749" lon="8.372692968696356">
        <ele>1440.1923830000001</ele>
        <time>2010-06-02T11:49:28Z</time>
      </trkpt>
      <trkpt lat="45.932022035121918" lon="8.372668996453285">
        <ele>1437.30835</ele>
        <time>2010-06-02T11:49:34Z</time>
      </trkpt>
      <trkpt lat="45.931882979348302" lon="8.372665978968144">
        <ele>1433.9436040000001</ele>
        <time>2010-06-02T11:49:51Z</time>
      </trkpt>
      <trkpt lat="45.931815002113581" lon="8.372617028653622">
        <ele>1432.5017089999999</ele>
        <time>2010-06-02T11:49:58Z</time>
      </trkpt>
      <trkpt lat="45.931749036535621" lon="8.372562965378165">
        <ele>1431.059814</ele>
        <time>2010-06-02T11:50:16Z</time>
      </trkpt>
      <trkpt lat="45.931617021560669" lon="8.372503034770489">
        <ele>1428.1757809999999</ele>
        <time>2010-06-02T11:50:31Z</time>
      </trkpt>
      <trkpt lat="45.931509984657168" lon="8.372402032837272">
        <ele>1427.695068</ele>
        <time>2010-06-02T11:50:43Z</time>
      </trkpt>
      <trkpt lat="45.931465979665518" lon="8.372369008138776">
        <ele>1424.811279</ele>
        <time>2010-06-02T11:50:56Z</time>
      </trkpt>
      <trkpt lat="45.931452987715602" lon="8.372357022017241">
        <ele>1424.3305660000001</ele>
        <time>2010-06-02T11:50:58Z</time>
      </trkpt>
      <trkpt lat="45.931416023522615" lon="8.372332965955138">
        <ele>1422.4079589999999</ele>
        <time>2010-06-02T11:51:08Z</time>
      </trkpt>
      <trkpt lat="45.931386016309261" lon="8.372327014803886">
        <ele>1419.0432129999999</ele>
        <time>2010-06-02T11:51:20Z</time>
      </trkpt>
      <trkpt lat="45.931294988840818" lon="8.372301030904055">
        <ele>1417.6010739999999</ele>
        <time>2010-06-02T11:51:32Z</time>
      </trkpt>
      <trkpt lat="45.931240003556013" lon="8.372282003983855">
        <ele>1414.7172849999999</ele>
        <time>2010-06-02T11:51:49Z</time>
      </trkpt>
      <trkpt lat="45.93118803575635" lon="8.372268006205559">
        <ele>1414.236572</ele>
        <time>2010-06-02T11:52:09Z</time>
      </trkpt>
      <trkpt lat="45.931093990802765" lon="8.372215032577515">
        <ele>1414.236572</ele>
        <time>2010-06-02T11:52:22Z</time>
      </trkpt>
      <trkpt lat="45.93097597360611" lon="8.372191982343793">
        <ele>1415.1979980000001</ele>
        <time>2010-06-02T11:52:38Z</time>
      </trkpt>
      <trkpt lat="45.930939009413123" lon="8.372190976515412">
        <ele>1413.2753909999999</ele>
        <time>2010-06-02T11:52:45Z</time>
      </trkpt>
      <trkpt lat="45.930854016914964" lon="8.3721639867872">
        <ele>1410.8720699999999</ele>
        <time>2010-06-02T11:53:01Z</time>
      </trkpt>
      <trkpt lat="45.930726025253534" lon="8.372130962088704">
        <ele>1409.4301760000001</ele>
        <time>2010-06-02T11:53:24Z</time>
      </trkpt>
      <trkpt lat="45.930554028600454" lon="8.372053010389209">
        <ele>1406.546143</ele>
        <time>2010-06-02T11:53:50Z</time>
      </trkpt>
      <trkpt lat="45.930406004190445" lon="8.371972963213921">
        <ele>1403.6621090000001</ele>
        <time>2010-06-02T11:54:11Z</time>
      </trkpt>
      <trkpt lat="45.930272983387113" lon="8.371866010129452">
        <ele>1400.7780760000001</ele>
        <time>2010-06-02T11:54:28Z</time>
      </trkpt>
      <trkpt lat="45.93015999533236" lon="8.371813036501408">
        <ele>1397.8942870000001</ele>
        <time>2010-06-02T11:54:57Z</time>
      </trkpt>
      <trkpt lat="45.930075002834201" lon="8.371786968782544">
        <ele>1393.5683590000001</ele>
        <time>2010-06-02T11:55:11Z</time>
      </trkpt>
      <trkpt lat="45.930057987570763" lon="8.371766014024615">
        <ele>1392.607178</ele>
        <time>2010-06-02T11:55:13Z</time>
      </trkpt>
      <trkpt lat="45.929897977039218" lon="8.371693007647991">
        <ele>1394.049072</ele>
        <time>2010-06-02T11:55:38Z</time>
      </trkpt>
      <trkpt lat="45.929723968729377" lon="8.37156199850142">
        <ele>1390.6843260000001</ele>
        <time>2010-06-02T11:56:08Z</time>
      </trkpt>
      <trkpt lat="45.929605029523373" lon="8.371511958539486">
        <ele>1387.800293</ele>
        <time>2010-06-02T11:56:31Z</time>
      </trkpt>
      <trkpt lat="45.929529005661607" lon="8.371416991576552">
        <ele>1384.4357910000001</ele>
        <time>2010-06-02T11:56:43Z</time>
      </trkpt>
      <trkpt lat="45.929486006498337" lon="8.371354965493083">
        <ele>1381.5517580000001</ele>
        <time>2010-06-02T11:56:49Z</time>
      </trkpt>
      <trkpt lat="45.929389027878642" lon="8.371335016563535">
        <ele>1380.1098629999999</ele>
        <time>2010-06-02T11:57:02Z</time>
      </trkpt>
      <trkpt lat="45.929280985146761" lon="8.371300986036658">
        <ele>1379.62915</ele>
        <time>2010-06-02T11:57:13Z</time>
      </trkpt>
      <trkpt lat="45.929189035668969" lon="8.371212976053357">
        <ele>1377.2260739999999</ele>
        <time>2010-06-02T11:57:30Z</time>
      </trkpt>
      <trkpt lat="45.928948977962136" lon="8.371123038232327">
        <ele>1379.1484379999999</ele>
        <time>2010-06-02T11:57:59Z</time>
      </trkpt>
      <trkpt lat="45.928922994062304" lon="8.37111197412014">
        <ele>1378.1872559999999</ele>
        <time>2010-06-02T11:58:04Z</time>
      </trkpt>
      <trkpt lat="45.92882702127099" lon="8.37102203629911">
        <ele>1375.3032229999999</ele>
        <time>2010-06-02T11:58:20Z</time>
      </trkpt>
      <trkpt lat="45.928726019337773" lon="8.370935032144189">
        <ele>1372.4194339999999</ele>
        <time>2010-06-02T11:58:40Z</time>
      </trkpt>
      <trkpt lat="45.928653012961149" lon="8.370920028537512">
        <ele>1369.0546879999999</ele>
        <time>2010-06-02T11:58:58Z</time>
      </trkpt>
      <trkpt lat="45.928624011576176" lon="8.370910976082087">
        <ele>1370.496582</ele>
        <time>2010-06-02T11:59:01Z</time>
      </trkpt>
      <trkpt lat="45.928540024906397" lon="8.370872000232339">
        <ele>1369.5354</ele>
        <time>2010-06-02T11:59:13Z</time>
      </trkpt>
      <trkpt lat="45.928495014086366" lon="8.370815003290772">
        <ele>1371.9384769999999</ele>
        <time>2010-06-02T11:59:20Z</time>
      </trkpt>
      <trkpt lat="45.928452014923096" lon="8.370797988027334">
        <ele>1375.3032229999999</ele>
        <time>2010-06-02T11:59:25Z</time>
      </trkpt>
      <trkpt lat="45.92844002880156" lon="8.370790025219321">
        <ele>1375.3032229999999</ele>
        <time>2010-06-02T11:59:26Z</time>
      </trkpt>
      <trkpt lat="45.928384037688375" lon="8.370753983035684">
        <ele>1371.9384769999999</ele>
        <time>2010-06-02T11:59:33Z</time>
      </trkpt>
      <trkpt lat="45.928327040746808" lon="8.370748031884432">
        <ele>1369.0546879999999</ele>
        <time>2010-06-02T11:59:44Z</time>
      </trkpt>
      <trkpt lat="45.928331986069679" lon="8.370739985257387">
        <ele>1368.573975</ele>
        <time>2010-06-02T12:00:10Z</time>
      </trkpt>
      <trkpt lat="45.928298961371183" lon="8.370761023834348">
        <ele>1369.5354</ele>
        <time>2010-06-02T12:00:32Z</time>
      </trkpt>
      <trkpt lat="45.928187984973192" lon="8.370764963328838">
        <ele>1368.573975</ele>
        <time>2010-06-02T12:00:45Z</time>
      </trkpt>
      <trkpt lat="45.928064016625285" lon="8.370736967772245">
        <ele>1369.0546879999999</ele>
        <time>2010-06-02T12:00:59Z</time>
      </trkpt>
      <trkpt lat="45.927959997206926" lon="8.370734034106135">
        <ele>1365.690186</ele>
        <time>2010-06-02T12:01:10Z</time>
      </trkpt>
      <trkpt lat="45.927854971960187" lon="8.370904019102454">
        <ele>1361.844971</ele>
        <time>2010-06-02T12:01:28Z</time>
      </trkpt>
      <trkpt lat="45.927671995013952" lon="8.371276007965207">
        <ele>1361.844971</ele>
        <time>2010-06-02T12:02:13Z</time>
      </trkpt>
      <trkpt lat="45.927547020837665" lon="8.371382039040327">
        <ele>1362.8061520000001</ele>
        <time>2010-06-02T12:02:41Z</time>
      </trkpt>
      <trkpt lat="45.927521958947182" lon="8.371387990191579">
        <ele>1364.72876</ele>
        <time>2010-06-02T12:02:47Z</time>
      </trkpt>
      <trkpt lat="45.927456999197602" lon="8.371376004070044">
        <ele>1364.72876</ele>
        <time>2010-06-02T12:02:59Z</time>
      </trkpt>
      <trkpt lat="45.927317021414638" lon="8.371334010735154">
        <ele>1363.7673339999999</ele>
        <time>2010-06-02T12:03:21Z</time>
      </trkpt>
      <trkpt lat="45.927307968959212" lon="8.371329987421632">
        <ele>1364.248047</ele>
        <time>2010-06-02T12:03:22Z</time>
      </trkpt>
      <trkpt lat="45.927173020318151" lon="8.371385978534818">
        <ele>1363.286865</ele>
        <time>2010-06-02T12:03:46Z</time>
      </trkpt>
      <trkpt lat="45.927076963707805" lon="8.371398970484734">
        <ele>1362.8061520000001</ele>
        <time>2010-06-02T12:03:57Z</time>
      </trkpt>
      <trkpt lat="45.926966993138194" lon="8.371387990191579">
        <ele>1360.402832</ele>
        <time>2010-06-02T12:04:12Z</time>
      </trkpt>
      <trkpt lat="45.926802037283778" lon="8.37132696993649">
        <ele>1357.9997559999999</ele>
        <time>2010-06-02T12:04:32Z</time>
      </trkpt>
      <trkpt lat="45.926672033965588" lon="8.3713040035218">
        <ele>1355.1154790000001</ele>
        <time>2010-06-02T12:04:47Z</time>
      </trkpt>
      <trkpt lat="45.926662981510162" lon="8.371296962723136">
        <ele>1354.6347659999999</ele>
        <time>2010-06-02T12:04:48Z</time>
      </trkpt>
      <trkpt lat="45.926575977355242" lon="8.37123803794384">
        <ele>1354.154297</ele>
        <time>2010-06-02T12:05:01Z</time>
      </trkpt>
      <trkpt lat="45.926539013162255" lon="8.371233008801937">
        <ele>1352.712158</ele>
        <time>2010-06-02T12:05:06Z</time>
      </trkpt>
      <trkpt lat="45.926443040370941" lon="8.371204007416964">
        <ele>1350.309082</ele>
        <time>2010-06-02T12:05:16Z</time>
      </trkpt>
      <trkpt lat="45.926385959610343" lon="8.371160002425313">
        <ele>1347.9057620000001</ele>
        <time>2010-06-02T12:05:25Z</time>
      </trkpt>
      <trkpt lat="45.926369028165936" lon="8.371146004647017">
        <ele>1347.4250489999999</ele>
        <time>2010-06-02T12:05:27Z</time>
      </trkpt>
      <trkpt lat="45.926293004304171" lon="8.371119014918804">
        <ele>1347.9057620000001</ele>
        <time>2010-06-02T12:05:37Z</time>
      </trkpt>
      <trkpt lat="45.926151014864445" lon="8.371022958308458">
        <ele>1346.4638669999999</ele>
        <time>2010-06-02T12:06:04Z</time>
      </trkpt>
      <trkpt lat="45.926087982952595" lon="8.371021030470729">
        <ele>1343.099121</ele>
        <time>2010-06-02T12:06:17Z</time>
      </trkpt>
      <trkpt lat="45.926038026809692" lon="8.371072998270392">
        <ele>1340.215332</ele>
        <time>2010-06-02T12:06:33Z</time>
      </trkpt>
      <trkpt lat="45.925898971036077" lon="8.37117500603199">
        <ele>1336.850342</ele>
        <time>2010-06-02T12:06:49Z</time>
      </trkpt>
      <trkpt lat="45.925872987136245" lon="8.371198978275061">
        <ele>1335.8891599999999</ele>
        <time>2010-06-02T12:06:52Z</time>
      </trkpt>
      <trkpt lat="45.925752958282828" lon="8.371330993250012">
        <ele>1334.4472659999999</ele>
        <time>2010-06-02T12:07:06Z</time>
      </trkpt>
      <trkpt lat="45.925732003524899" lon="8.371340967714787">
        <ele>1333.4858400000001</ele>
        <time>2010-06-02T12:07:08Z</time>
      </trkpt>
      <trkpt lat="45.925692021846771" lon="8.371427971869707">
        <ele>1333.966553</ele>
        <time>2010-06-02T12:07:24Z</time>
      </trkpt>
      <trkpt lat="45.925674000754952" lon="8.371446998789907">
        <ele>1334.9279790000001</ele>
        <time>2010-06-02T12:09:08Z</time>
      </trkpt>
      <trkpt lat="45.925672994926572" lon="8.371445992961526">
        <ele>1335.8891599999999</ele>
        <time>2010-06-02T12:09:18Z</time>
      </trkpt>
      <trkpt lat="45.925672994926572" lon="8.371445992961526">
        <ele>1334.4472659999999</ele>
        <time>2010-06-02T12:09:21Z</time>
      </trkpt>
      <trkpt lat="45.925652962177992" lon="8.37162503041327">
        <ele>1333.0051269999999</ele>
        <time>2010-06-02T12:10:04Z</time>
      </trkpt>
      <trkpt lat="45.925629995763302" lon="8.371848994866014">
        <ele>1332.0439449999999</ele>
        <time>2010-06-02T12:10:23Z</time>
      </trkpt>
      <trkpt lat="45.925560006871819" lon="8.371929964050651">
        <ele>1328.679443</ele>
        <time>2010-06-02T12:10:35Z</time>
      </trkpt>
      <trkpt lat="45.925552966073155" lon="8.371945973485708">
        <ele>1328.679443</ele>
        <time>2010-06-02T12:10:36Z</time>
      </trkpt>
      <trkpt lat="45.925452969968319" lon="8.372089974582195">
        <ele>1326.2761230000001</ele>
        <time>2010-06-02T12:10:52Z</time>
      </trkpt>
      <trkpt lat="45.925360014662147" lon="8.372170021757484">
        <ele>1326.2761230000001</ele>
        <time>2010-06-02T12:11:03Z</time>
      </trkpt>
      <trkpt lat="45.925331013277173" lon="8.372207991778851">
        <ele>1326.2761230000001</ele>
        <time>2010-06-02T12:11:06Z</time>
      </trkpt>
      <trkpt lat="45.925304023548961" lon="8.372243028134108">
        <ele>1326.756836</ele>
        <time>2010-06-02T12:11:10Z</time>
      </trkpt>
      <trkpt lat="45.925304023548961" lon="8.372504962608218">
        <ele>1326.2761230000001</ele>
        <time>2010-06-02T12:11:27Z</time>
      </trkpt>
      <trkpt lat="45.925301006063819" lon="8.372566988691688">
        <ele>1322.9113769999999</ele>
        <time>2010-06-02T12:11:39Z</time>
      </trkpt>
      <trkpt lat="45.925370994955301" lon="8.372766980901361">
        <ele>1320.508057</ele>
        <time>2010-06-02T12:12:02Z</time>
      </trkpt>
      <trkpt lat="45.925366971641779" lon="8.372850967571139">
        <ele>1318.104736</ele>
        <time>2010-06-02T12:12:08Z</time>
      </trkpt>
      <trkpt lat="45.925351968035102" lon="8.373252041637898">
        <ele>1317.6240230000001</ele>
        <time>2010-06-02T12:12:33Z</time>
      </trkpt>
      <trkpt lat="45.925363032147288" lon="8.373357988893986">
        <ele>1317.6240230000001</ele>
        <time>2010-06-02T12:12:42Z</time>
      </trkpt>
      <trkpt lat="45.925356997177005" lon="8.373390007764101">
        <ele>1315.7016599999999</ele>
        <time>2010-06-02T12:12:45Z</time>
      </trkpt>
      <trkpt lat="45.925349034368992" lon="8.373410040512681">
        <ele>1316.182129</ele>
        <time>2010-06-02T12:12:47Z</time>
      </trkpt>
      <trkpt lat="45.925323972478509" lon="8.373413980007172">
        <ele>1316.662842</ele>
        <time>2010-06-02T12:12:51Z</time>
      </trkpt>
      <trkpt lat="45.925284996628761" lon="8.373428983613849">
        <ele>1316.662842</ele>
        <time>2010-06-02T12:12:53Z</time>
      </trkpt>
      <trkpt lat="45.925207966938615" lon="8.373509030789137">
        <ele>1319.0661620000001</ele>
        <time>2010-06-02T12:13:03Z</time>
      </trkpt>
      <trkpt lat="45.925207966938615" lon="8.373554041609168">
        <ele>1318.5854489999999</ele>
        <time>2010-06-02T12:13:16Z</time>
      </trkpt>
      <trkpt lat="45.925202015787363" lon="8.373734001070261">
        <ele>1320.0273440000001</ele>
        <time>2010-06-02T12:13:29Z</time>
      </trkpt>
      <trkpt lat="45.925147030502558" lon="8.373980009928346">
        <ele>1317.6240230000001</ele>
        <time>2010-06-02T12:13:58Z</time>
      </trkpt>
      <trkpt lat="45.925082992762327" lon="8.374117976054549">
        <ele>1315.220947</ele>
        <time>2010-06-02T12:14:11Z</time>
      </trkpt>
      <trkpt lat="45.925085004419088" lon="8.374156029894948">
        <ele>1315.220947</ele>
        <time>2010-06-02T12:14:13Z</time>
      </trkpt>
      <trkpt lat="45.925077041611075" lon="8.374378988519311">
        <ele>1314.2595209999999</ele>
        <time>2010-06-02T12:14:25Z</time>
      </trkpt>
      <trkpt lat="45.925089027732611" lon="8.374410001561046">
        <ele>1313.7788089999999</ele>
        <time>2010-06-02T12:14:27Z</time>
      </trkpt>
      <trkpt lat="45.925108976662159" lon="8.374538999050856">
        <ele>1312.336914</ele>
        <time>2010-06-02T12:14:34Z</time>
      </trkpt>
      <trkpt lat="45.92510998249054" lon="8.374601025134325">
        <ele>1312.336914</ele>
        <time>2010-06-02T12:14:38Z</time>
      </trkpt>
      <trkpt lat="45.925117023289204" lon="8.374696997925639">
        <ele>1312.336914</ele>
        <time>2010-06-02T12:14:43Z</time>
      </trkpt>
      <trkpt lat="45.925140995532274" lon="8.374853990972042">
        <ele>1311.375732</ele>
        <time>2010-06-02T12:14:57Z</time>
      </trkpt>
      <trkpt lat="45.925163039937615" lon="8.375012995675206">
        <ele>1311.8564449999999</ele>
        <time>2010-06-02T12:15:09Z</time>
      </trkpt>
      <trkpt lat="45.925187012180686" lon="8.375099999830127">
        <ele>1312.336914</ele>
        <time>2010-06-02T12:15:15Z</time>
      </trkpt>
      <trkpt lat="45.92517301440239" lon="8.375367969274521">
        <ele>1310.414307</ele>
        <time>2010-06-02T12:15:38Z</time>
      </trkpt>
      <trkpt lat="45.925104031339288" lon="8.375682961195707">
        <ele>1307.5302730000001</ele>
        <time>2010-06-02T12:16:11Z</time>
      </trkpt>
      <trkpt lat="45.925091039389372" lon="8.37577298283577">
        <ele>1307.049561</ele>
        <time>2010-06-02T12:16:40Z</time>
      </trkpt>
      <trkpt lat="45.925097996369004" lon="8.375866021960974">
        <ele>1306.088135</ele>
        <time>2010-06-02T12:16:46Z</time>
      </trkpt>
      <trkpt lat="45.925082992762327" lon="8.37603097781539">
        <ele>1304.1657709999999</ele>
        <time>2010-06-02T12:17:05Z</time>
      </trkpt>
      <trkpt lat="45.925006968900561" lon="8.37600901722908">
        <ele>1301.7624510000001</ele>
        <time>2010-06-02T12:17:25Z</time>
      </trkpt>
      <trkpt lat="45.925104031339288" lon="8.376097027212381">
        <ele>1304.1657709999999</ele>
        <time>2010-06-02T12:17:57Z</time>
      </trkpt>
      <trkpt lat="45.925203021615744" lon="8.376208003610373">
        <ele>1303.204346</ele>
        <time>2010-06-02T12:18:22Z</time>
      </trkpt>
      <trkpt lat="45.925289019942284" lon="8.37637597694993">
        <ele>1301.7624510000001</ele>
        <time>2010-06-02T12:18:36Z</time>
      </trkpt>
      <trkpt lat="45.925387004390359" lon="8.376483013853431">
        <ele>1301.2817379999999</ele>
        <time>2010-06-02T12:18:48Z</time>
      </trkpt>
      <trkpt lat="45.925504015758634" lon="8.3765899669379">
        <ele>1299.8398440000001</ele>
        <time>2010-06-02T12:19:00Z</time>
      </trkpt>
      <trkpt lat="45.925551960244775" lon="8.376628020778298">
        <ele>1299.8398440000001</ele>
        <time>2010-06-02T12:19:04Z</time>
      </trkpt>
      <trkpt lat="45.925686992704868" lon="8.376689041033387">
        <ele>1302.7236330000001</ele>
        <time>2010-06-02T12:19:17Z</time>
      </trkpt>
      <trkpt lat="45.925835017114878" lon="8.376842010766268">
        <ele>1300.320557</ele>
        <time>2010-06-02T12:19:32Z</time>
      </trkpt>
      <trkpt lat="45.926091000437737" lon="8.37706002406776">
        <ele>1301.2817379999999</ele>
        <time>2010-06-02T12:19:55Z</time>
      </trkpt>
      <trkpt lat="45.926227038726211" lon="8.377221962437034">
        <ele>1303.204346</ele>
        <time>2010-06-02T12:20:16Z</time>
      </trkpt>
      <trkpt lat="45.926371961832047" lon="8.377449028193951">
        <ele>1304.1657709999999</ele>
        <time>2010-06-02T12:20:38Z</time>
      </trkpt>
      <trkpt lat="45.926412027329206" lon="8.377528991550207">
        <ele>1304.1657709999999</ele>
        <time>2010-06-02T12:20:50Z</time>
      </trkpt>
      <trkpt lat="45.926395012065768" lon="8.377572996541858">
        <ele>1302.7236330000001</ele>
        <time>2010-06-02T12:20:55Z</time>
      </trkpt>
      <trkpt lat="45.926353018730879" lon="8.377740969881415">
        <ele>1301.7624510000001</ele>
        <time>2010-06-02T12:21:05Z</time>
      </trkpt>
      <trkpt lat="45.926324017345905" lon="8.377823028713465">
        <ele>1301.2817379999999</ele>
        <time>2010-06-02T12:21:09Z</time>
      </trkpt>
      <trkpt lat="45.926265008747578" lon="8.377956971526146">
        <ele>1301.7624510000001</ele>
        <time>2010-06-02T12:21:15Z</time>
      </trkpt>
      <trkpt lat="45.926212035119534" lon="8.378054033964872">
        <ele>1301.2817379999999</ele>
        <time>2010-06-02T12:21:20Z</time>
      </trkpt>
      <trkpt lat="45.92609996907413" lon="8.378223013132811">
        <ele>1299.8398440000001</ele>
        <time>2010-06-02T12:21:32Z</time>
      </trkpt>
      <trkpt lat="45.926079014316201" lon="8.378229970112443">
        <ele>1298.3977050000001</ele>
        <time>2010-06-02T12:21:37Z</time>
      </trkpt>
      <trkpt lat="45.926074991002679" lon="8.378312028944492">
        <ele>1296.475342</ele>
        <time>2010-06-02T12:21:48Z</time>
      </trkpt>
      <trkpt lat="45.926079014316201" lon="8.378326026722789">
        <ele>1296.955811</ele>
        <time>2010-06-02T12:21:52Z</time>
      </trkpt>
      <trkpt lat="45.926208011806011" lon="8.378441026434302">
        <ele>1297.917236</ele>
        <time>2010-06-02T12:22:05Z</time>
      </trkpt>
      <trkpt lat="45.926267020404339" lon="8.378464998677373">
        <ele>1298.878418</ele>
        <time>2010-06-02T12:22:10Z</time>
      </trkpt>
      <trkpt lat="45.926374979317188" lon="8.378611011430621">
        <ele>1295.5139160000001</ele>
        <time>2010-06-02T12:22:26Z</time>
      </trkpt>
      <trkpt lat="45.926395012065768" lon="8.378650993108749">
        <ele>1295.5139160000001</ele>
        <time>2010-06-02T12:22:28Z</time>
      </trkpt>
      <trkpt lat="45.926399035379291" lon="8.378718970343471">
        <ele>1295.5139160000001</ele>
        <time>2010-06-02T12:22:32Z</time>
      </trkpt>
      <trkpt lat="45.926416972652078" lon="8.378802035003901">
        <ele>1295.5139160000001</ele>
        <time>2010-06-02T12:22:37Z</time>
      </trkpt>
      <trkpt lat="45.926439017057419" lon="8.378860037773848">
        <ele>1295.5139160000001</ele>
        <time>2010-06-02T12:22:40Z</time>
      </trkpt>
      <trkpt lat="45.926481010392308" lon="8.378947963938117">
        <ele>1294.55249</ele>
        <time>2010-06-02T12:22:44Z</time>
      </trkpt>
      <trkpt lat="45.926452009007335" lon="8.379111997783184">
        <ele>1294.55249</ele>
        <time>2010-06-02T12:22:57Z</time>
      </trkpt>
      <trkpt lat="45.926462989300489" lon="8.379282988607884">
        <ele>1293.5913089999999</ele>
        <time>2010-06-02T12:23:08Z</time>
      </trkpt>
      <trkpt lat="45.926465000957251" lon="8.379424978047609">
        <ele>1290.7070309999999</ele>
        <time>2010-06-02T12:23:21Z</time>
      </trkpt>
      <trkpt lat="45.926413033157587" lon="8.379548024386168">
        <ele>1288.3039550000001</ele>
        <time>2010-06-02T12:23:34Z</time>
      </trkpt>
      <trkpt lat="45.926385959610343" lon="8.379679033532739">
        <ele>1284.939453</ele>
        <time>2010-06-02T12:23:46Z</time>
      </trkpt>
      <trkpt lat="45.926394006237388" lon="8.379760002717376">
        <ele>1281.574707</ele>
        <time>2010-06-02T12:23:55Z</time>
      </trkpt>
      <trkpt lat="45.926356036216021" lon="8.379795039072633">
        <ele>1278.690918</ele>
        <time>2010-06-02T12:24:02Z</time>
      </trkpt>
      <trkpt lat="45.92631203122437" lon="8.379816999658942">
        <ele>1276.768311</ele>
        <time>2010-06-02T12:24:08Z</time>
      </trkpt>
      <trkpt lat="45.926270037889481" lon="8.379838960245252">
        <ele>1276.2875979999999</ele>
        <time>2010-06-02T12:24:15Z</time>
      </trkpt>
      <trkpt lat="45.926322005689144" lon="8.379943985491991">
        <ele>1275.325928</ele>
        <time>2010-06-02T12:24:26Z</time>
      </trkpt>
      <trkpt lat="45.926366010680795" lon="8.379988996312022">
        <ele>1275.325928</ele>
        <time>2010-06-02T12:24:31Z</time>
      </trkpt>
      <trkpt lat="45.926432982087135" lon="8.380080023780465">
        <ele>1274.364746</ele>
        <time>2010-06-02T12:24:41Z</time>
      </trkpt>
      <trkpt lat="45.926445974037051" lon="8.380103996023536">
        <ele>1273.884033</ele>
        <time>2010-06-02T12:24:43Z</time>
      </trkpt>
      <trkpt lat="45.926500959321856" lon="8.380189994350076">
        <ele>1272.9228519999999</ele>
        <time>2010-06-02T12:24:55Z</time>
      </trkpt>
      <trkpt lat="45.926575977355242" lon="8.380246991291642">
        <ele>1272.9228519999999</ele>
        <time>2010-06-02T12:25:12Z</time>
      </trkpt>
      <trkpt lat="45.926580000668764" lon="8.380245985463262">
        <ele>1272.9228519999999</ele>
        <time>2010-06-02T12:25:26Z</time>
      </trkpt>
      <trkpt lat="45.926593998447061" lon="8.380471039563417">
        <ele>1274.8454589999999</ele>
        <time>2010-06-02T12:25:54Z</time>
      </trkpt>
      <trkpt lat="45.926542030647397" lon="8.380537005141377">
        <ele>1274.364746</ele>
        <time>2010-06-02T12:26:01Z</time>
      </trkpt>
      <trkpt lat="45.926365004852414" lon="8.38062702678144">
        <ele>1270.5195309999999</ele>
        <time>2010-06-02T12:26:16Z</time>
      </trkpt>
      <trkpt lat="45.92622896656394" lon="8.380684023723006">
        <ele>1269.0776370000001</ele>
        <time>2010-06-02T12:26:28Z</time>
      </trkpt>
      <trkpt lat="45.926157971844077" lon="8.380696009844542">
        <ele>1268.116211</ele>
        <time>2010-06-02T12:26:34Z</time>
      </trkpt>
      <trkpt lat="45.926112961024046" lon="8.380701038986445">
        <ele>1268.116211</ele>
        <time>2010-06-02T12:26:39Z</time>
      </trkpt>
      <trkpt lat="45.926026040688157" lon="8.380728028714657">
        <ele>1267.6354980000001</ele>
        <time>2010-06-02T12:26:46Z</time>
      </trkpt>
      <trkpt lat="45.925965020433068" lon="8.380720987915993">
        <ele>1266.6743160000001</ele>
        <time>2010-06-02T12:26:51Z</time>
      </trkpt>
      <trkpt lat="45.925861001014709" lon="8.380828024819493">
        <ele>1265.713135</ele>
        <time>2010-06-02T12:27:05Z</time>
      </trkpt>
      <trkpt lat="45.925849014893174" lon="8.380840010941029">
        <ele>1265.713135</ele>
        <time>2010-06-02T12:27:06Z</time>
      </trkpt>
      <trkpt lat="45.925775002688169" lon="8.381021982058883">
        <ele>1264.270996</ele>
        <time>2010-06-02T12:27:20Z</time>
      </trkpt>
      <trkpt lat="45.925725968554616" lon="8.381054000928998">
        <ele>1263.790283</ele>
        <time>2010-06-02T12:27:25Z</time>
      </trkpt>
      <trkpt lat="45.925568975508213" lon="8.381009995937347">
        <ele>1261.8679199999999</ele>
        <time>2010-06-02T12:27:40Z</time>
      </trkpt>
      <trkpt lat="45.925420029088855" lon="8.381051989272237">
        <ele>1259.9448239999999</ele>
        <time>2010-06-02T12:27:55Z</time>
      </trkpt>
      <trkpt lat="45.925337970256805" lon="8.381131030619144">
        <ele>1258.022461</ele>
        <time>2010-06-02T12:28:05Z</time>
      </trkpt>
      <trkpt lat="45.925320032984018" lon="8.38116598315537">
        <ele>1257.5417480000001</ele>
        <time>2010-06-02T12:28:08Z</time>
      </trkpt>
      <trkpt lat="45.925148958340287" lon="8.381311995908618">
        <ele>1254.177246</ele>
        <time>2010-06-02T12:28:24Z</time>
      </trkpt>
      <trkpt lat="45.925018033012748" lon="8.381416015326977">
        <ele>1253.2158199999999</ele>
        <time>2010-06-02T12:28:41Z</time>
      </trkpt>
      <trkpt lat="45.924990037456155" lon="8.381428001448512">
        <ele>1253.696533</ele>
        <time>2010-06-02T12:28:43Z</time>
      </trkpt>
      <trkpt lat="45.924913007766008" lon="8.381492039188743">
        <ele>1252.2543949999999</ele>
        <time>2010-06-02T12:28:50Z</time>
      </trkpt>
      <trkpt lat="45.924750985577703" lon="8.381533026695252">
        <ele>1248.889893</ele>
        <time>2010-06-02T12:29:03Z</time>
      </trkpt>
      <trkpt lat="45.92467999085784" lon="8.381569990888238">
        <ele>1246.9672849999999</ele>
        <time>2010-06-02T12:29:09Z</time>
      </trkpt>
      <trkpt lat="45.924518974497914" lon="8.38163604028523">
        <ele>1244.083496</ele>
        <time>2010-06-02T12:29:24Z</time>
      </trkpt>
      <trkpt lat="45.924476981163025" lon="8.381693959236145">
        <ele>1244.5639650000001</ele>
        <time>2010-06-02T12:29:28Z</time>
      </trkpt>
      <trkpt lat="45.924450997263193" lon="8.381739975884557">
        <ele>1244.5639650000001</ele>
        <time>2010-06-02T12:29:32Z</time>
      </trkpt>
      <trkpt lat="45.924418978393078" lon="8.381818011403084">
        <ele>1245.044678</ele>
        <time>2010-06-02T12:29:38Z</time>
      </trkpt>
      <trkpt lat="45.924354018643498" lon="8.381915995851159">
        <ele>1244.5639650000001</ele>
        <time>2010-06-02T12:29:44Z</time>
      </trkpt>
      <trkpt lat="45.924181016162038" lon="8.381882971152663">
        <ele>1242.1606449999999</ele>
        <time>2010-06-02T12:30:00Z</time>
      </trkpt>
      <trkpt lat="45.924052018672228" lon="8.381726983934641">
        <ele>1240.7185059999999</ele>
        <time>2010-06-02T12:30:15Z</time>
      </trkpt>
      <trkpt lat="45.92403600923717" lon="8.381713991984725">
        <ele>1240.2380370000001</ele>
        <time>2010-06-02T12:30:17Z</time>
      </trkpt>
      <trkpt lat="45.923813972622156" lon="8.381673004478216">
        <ele>1237.354004</ele>
        <time>2010-06-02T12:30:37Z</time>
      </trkpt>
      <trkpt lat="45.923707019537687" lon="8.381650960072875">
        <ele>1235.4313959999999</ele>
        <time>2010-06-02T12:30:47Z</time>
      </trkpt>
      <trkpt lat="45.923550026491284" lon="8.381602009758353">
        <ele>1232.0668949999999</ele>
        <time>2010-06-02T12:31:02Z</time>
      </trkpt>
      <trkpt lat="45.923377024009824" lon="8.381572002544999">
        <ele>1230.1442870000001</ele>
        <time>2010-06-02T12:31:17Z</time>
      </trkpt>
      <trkpt lat="45.923269987106323" lon="8.381525985896587">
        <ele>1227.260254</ele>
        <time>2010-06-02T12:31:26Z</time>
      </trkpt>
      <trkpt lat="45.923119029030204" lon="8.381457002833486">
        <ele>1226.298828</ele>
        <time>2010-06-02T12:31:41Z</time>
      </trkpt>
      <trkpt lat="45.922948038205504" lon="8.381372010335326">
        <ele>1224.376221</ele>
        <time>2010-06-02T12:31:58Z</time>
      </trkpt>
      <trkpt lat="45.922807976603508" lon="8.381268996745348">
        <ele>1222.9343260000001</ele>
        <time>2010-06-02T12:32:12Z</time>
      </trkpt>
      <trkpt lat="45.922727007418871" lon="8.381196996197105">
        <ele>1222.4536129999999</ele>
        <time>2010-06-02T12:32:19Z</time>
      </trkpt>
      <trkpt lat="45.922529026865959" lon="8.381234966218472">
        <ele>1219.5698239999999</ele>
        <time>2010-06-02T12:32:36Z</time>
      </trkpt>
      <trkpt lat="45.922449985519052" lon="8.381411992013454">
        <ele>1218.6083980000001</ele>
        <time>2010-06-02T12:32:51Z</time>
      </trkpt>
      <trkpt lat="45.922375973314047" lon="8.381597986444831">
        <ele>1217.166504</ele>
        <time>2010-06-02T12:33:04Z</time>
      </trkpt>
      <trkpt lat="45.92225200496614" lon="8.38180803693831">
        <ele>1216.6857910000001</ele>
        <time>2010-06-02T12:33:20Z</time>
      </trkpt>
      <trkpt lat="45.921979006379843" lon="8.38202303275466">
        <ele>1214.282471</ele>
        <time>2010-06-02T12:33:48Z</time>
      </trkpt>
      <trkpt lat="45.921924021095037" lon="8.38202596642077">
        <ele>1212.8405760000001</ele>
        <time>2010-06-02T12:33:52Z</time>
      </trkpt>
      <trkpt lat="45.921873981133103" lon="8.382015991955996">
        <ele>1212.8405760000001</ele>
        <time>2010-06-02T12:33:56Z</time>
      </trkpt>
      <trkpt lat="45.921740038320422" lon="8.382010040804744">
        <ele>1210.917725</ele>
        <time>2010-06-02T12:34:11Z</time>
      </trkpt>
      <trkpt lat="45.921583967283368" lon="8.38223903439939">
        <ele>1207.5532229999999</ele>
        <time>2010-06-02T12:34:30Z</time>
      </trkpt>
      <trkpt lat="45.921347010880709" lon="8.3823680318892">
        <ele>1203.7080080000001</ele>
        <time>2010-06-02T12:34:56Z</time>
      </trkpt>
      <trkpt lat="45.921335024759173" lon="8.382357973605394">
        <ele>1203.7080080000001</ele>
        <time>2010-06-02T12:34:57Z</time>
      </trkpt>
      <trkpt lat="45.921245003119111" lon="8.382297959178686">
        <ele>1205.630615</ele>
        <time>2010-06-02T12:35:03Z</time>
      </trkpt>
      <trkpt lat="45.921185994520783" lon="8.382151024416089">
        <ele>1203.2272949999999</ele>
        <time>2010-06-02T12:35:18Z</time>
      </trkpt>
      <trkpt lat="45.921081975102425" lon="8.382123028859496">
        <ele>1203.7080080000001</ele>
        <time>2010-06-02T12:35:29Z</time>
      </trkpt>
      <trkpt lat="45.92102900147438" lon="8.382097966969013">
        <ele>1203.7080080000001</ele>
        <time>2010-06-02T12:35:33Z</time>
      </trkpt>
      <trkpt lat="45.920938979834318" lon="8.382043987512589">
        <ele>1203.2272949999999</ele>
        <time>2010-06-02T12:35:42Z</time>
      </trkpt>
      <trkpt lat="45.920909978449345" lon="8.38202303275466">
        <ele>1202.746582</ele>
        <time>2010-06-02T12:35:44Z</time>
      </trkpt>
      <trkpt lat="45.920801013708115" lon="8.381921024993062">
        <ele>1200.3435059999999</ele>
        <time>2010-06-02T12:35:56Z</time>
      </trkpt>
      <trkpt lat="45.920625999569893" lon="8.381824968382716">
        <ele>1200.823975</ele>
        <time>2010-06-02T12:36:13Z</time>
      </trkpt>
      <trkpt lat="45.920617030933499" lon="8.381822034716606">
        <ele>1200.823975</ele>
        <time>2010-06-02T12:36:14Z</time>
      </trkpt>
      <trkpt lat="45.920531032606959" lon="8.381837960332632">
        <ele>1199.862793</ele>
        <time>2010-06-02T12:36:22Z</time>
      </trkpt>
      <trkpt lat="45.920515023171902" lon="8.381841983646154">
        <ele>1197.940186</ele>
        <time>2010-06-02T12:36:24Z</time>
      </trkpt>
      <trkpt lat="45.92049197293818" lon="8.38187400251627">
        <ele>1196.4982910000001</ele>
        <time>2010-06-02T12:36:29Z</time>
      </trkpt>
      <trkpt lat="45.920364987105131" lon="8.382090004161">
        <ele>1197.4594729999999</ele>
        <time>2010-06-02T12:36:46Z</time>
      </trkpt>
      <trkpt lat="45.92019097879529" lon="8.382349004969001">
        <ele>1196.97876</ele>
        <time>2010-06-02T12:37:08Z</time>
      </trkpt>
      <trkpt lat="45.920078996568918" lon="8.382402984425426">
        <ele>1195.536621</ele>
        <time>2010-06-02T12:37:18Z</time>
      </trkpt>
      <trkpt lat="45.920014036819339" lon="8.382344981655479">
        <ele>1194.0947269999999</ele>
        <time>2010-06-02T12:37:25Z</time>
      </trkpt>
      <trkpt lat="45.919864000752568" lon="8.38223802857101">
        <ele>1192.652832</ele>
        <time>2010-06-02T12:37:36Z</time>
      </trkpt>
      <trkpt lat="45.919701978564262" lon="8.382180025801063">
        <ele>1191.6914059999999</ele>
        <time>2010-06-02T12:37:51Z</time>
      </trkpt>
      <trkpt lat="45.919571975246072" lon="8.382148006930947">
        <ele>1190.7299800000001</ele>
        <time>2010-06-02T12:38:01Z</time>
      </trkpt>
      <trkpt lat="45.919386986643076" lon="8.382242973893881">
        <ele>1189.288086</ele>
        <time>2010-06-02T12:38:16Z</time>
      </trkpt>
      <trkpt lat="45.919294031336904" lon="8.382342969998717">
        <ele>1187.8461910000001</ele>
        <time>2010-06-02T12:38:28Z</time>
      </trkpt>
      <trkpt lat="45.919217001646757" lon="8.382336013019085">
        <ele>1185.9235839999999</ele>
        <time>2010-06-02T12:38:38Z</time>
      </trkpt>
      <trkpt lat="45.919146006926894" lon="8.382251020520926">
        <ele>1185.442871</ele>
        <time>2010-06-02T12:38:43Z</time>
      </trkpt>
      <trkpt lat="45.919059002771974" lon="8.382078018039465">
        <ele>1183.0395510000001</ele>
        <time>2010-06-02T12:38:58Z</time>
      </trkpt>
      <trkpt lat="45.918963029980659" lon="8.382018003612757">
        <ele>1185.442871</ele>
        <time>2010-06-02T12:39:16Z</time>
      </trkpt>
      <trkpt lat="45.918906033039093" lon="8.381886994466186">
        <ele>1184.481689</ele>
        <time>2010-06-02T12:39:29Z</time>
      </trkpt>
      <trkpt lat="45.91870503500104" lon="8.381714997813106">
        <ele>1182.559082</ele>
        <time>2010-06-02T12:39:47Z</time>
      </trkpt>
      <trkpt lat="45.918590035289526" lon="8.381697982549667">
        <ele>1181.1171879999999</ele>
        <time>2010-06-02T12:39:56Z</time>
      </trkpt>
      <trkpt lat="45.918490961194038" lon="8.381626987829804">
        <ele>1181.1171879999999</ele>
        <time>2010-06-02T12:40:09Z</time>
      </trkpt>
      <trkpt lat="45.918461037799716" lon="8.381624976173043">
        <ele>1181.1171879999999</ele>
        <time>2010-06-02T12:40:11Z</time>
      </trkpt>
      <trkpt lat="45.918323993682861" lon="8.381549958139658">
        <ele>1181.1171879999999</ele>
        <time>2010-06-02T12:40:21Z</time>
      </trkpt>
      <trkpt lat="45.918262973427773" lon="8.381519028916955">
        <ele>1180.636475</ele>
        <time>2010-06-02T12:40:27Z</time>
      </trkpt>
      <trkpt lat="45.918173035606742" lon="8.381502013653517">
        <ele>1177.752197</ele>
        <time>2010-06-02T12:40:34Z</time>
      </trkpt>
      <trkpt lat="45.918047977611423" lon="8.381517017260194">
        <ele>1174.3876949999999</ele>
        <time>2010-06-02T12:40:45Z</time>
      </trkpt>
      <trkpt lat="45.917753018438816" lon="8.381535038352013">
        <ele>1171.984375</ele>
        <time>2010-06-02T12:41:09Z</time>
      </trkpt>
      <trkpt lat="45.917354039847851" lon="8.381477035582066">
        <ele>1172.4650879999999</ele>
        <time>2010-06-02T12:41:40Z</time>
      </trkpt>
      <trkpt lat="45.917216995730996" lon="8.381464965641499">
        <ele>1170.5424800000001</ele>
        <time>2010-06-02T12:42:12Z</time>
      </trkpt>
      <trkpt lat="45.916888006031513" lon="8.381572002544999">
        <ele>1173.426514</ele>
        <time>2010-06-02T12:44:43Z</time>
      </trkpt>
      <trkpt lat="45.916672004386783" lon="8.381556998938322">
        <ele>1176.7910159999999</ele>
        <time>2010-06-02T12:45:05Z</time>
      </trkpt>
      <trkpt lat="45.916534038260579" lon="8.381604021415114">
        <ele>1180.1557620000001</ele>
        <time>2010-06-02T12:45:34Z</time>
      </trkpt>
      <trkpt lat="45.916362041607499" lon="8.381504025310278">
        <ele>1183.0395510000001</ele>
        <time>2010-06-02T12:46:16Z</time>
      </trkpt>
      <trkpt lat="45.916334968060255" lon="8.38157300837338">
        <ele>1186.404297</ele>
        <time>2010-06-02T12:46:51Z</time>
      </trkpt>
      <trkpt lat="45.916265984997153" lon="8.381620030850172">
        <ele>1187.8461910000001</ele>
        <time>2010-06-02T12:46:59Z</time>
      </trkpt>
      <trkpt lat="45.916164983063936" lon="8.381635034456849">
        <ele>1191.210693</ele>
        <time>2010-06-02T12:47:37Z</time>
      </trkpt>
      <trkpt lat="45.916118966415524" lon="8.381708040833473">
        <ele>1194.5751949999999</ele>
        <time>2010-06-02T12:47:59Z</time>
      </trkpt>
      <trkpt lat="45.916140004992485" lon="8.381889006122947">
        <ele>1197.4594729999999</ele>
        <time>2010-06-02T12:48:59Z</time>
      </trkpt>
      <trkpt lat="45.916032968088984" lon="8.381687002256513">
        <ele>1200.823975</ele>
        <time>2010-06-02T12:49:28Z</time>
      </trkpt>
      <trkpt lat="45.916006984189153" lon="8.38157300837338">
        <ele>1204.188721</ele>
        <time>2010-06-02T12:49:46Z</time>
      </trkpt>
      <trkpt lat="45.916003966704011" lon="8.381564039736986">
        <ele>1204.188721</ele>
        <time>2010-06-02T12:49:51Z</time>
      </trkpt>
      <trkpt lat="45.9159130230546" lon="8.381324987858534">
        <ele>1204.669189</ele>
        <time>2010-06-02T12:50:15Z</time>
      </trkpt>
      <trkpt lat="45.915833981707692" lon="8.381234966218472">
        <ele>1207.07251</ele>
        <time>2010-06-02T12:50:38Z</time>
      </trkpt>
      <trkpt lat="45.915858037769794" lon="8.381179980933666">
        <ele>1209.4758300000001</ele>
        <time>2010-06-02T12:50:46Z</time>
      </trkpt>
      <trkpt lat="45.915740020573139" lon="8.381188027560711">
        <ele>1212.8405760000001</ele>
        <time>2010-06-02T12:51:41Z</time>
      </trkpt>
      <trkpt lat="45.915833981707692" lon="8.381329011172056">
        <ele>1214.282471</ele>
        <time>2010-06-02T12:52:07Z</time>
      </trkpt>
      <trkpt lat="45.915846973657608" lon="8.381343008950353">
        <ele>1215.7246090000001</ele>
        <time>2010-06-02T12:52:09Z</time>
      </trkpt>
      <trkpt lat="45.91582803055644" lon="8.381465971469879">
        <ele>1218.6083980000001</ele>
        <time>2010-06-02T12:52:36Z</time>
      </trkpt>
      <trkpt lat="45.915716970339417" lon="8.381502013653517">
        <ele>1221.4921879999999</ele>
        <time>2010-06-02T12:53:06Z</time>
      </trkpt>
      <trkpt lat="45.91561303474009" lon="8.381405035033822">
        <ele>1224.8569339999999</ele>
        <time>2010-06-02T12:53:22Z</time>
      </trkpt>
      <trkpt lat="45.915605993941426" lon="8.381425989791751">
        <ele>1228.2216800000001</ele>
        <time>2010-06-02T12:53:34Z</time>
      </trkpt>
      <trkpt lat="45.915791988372803" lon="8.381469994783402">
        <ele>1231.1057129999999</ele>
        <time>2010-06-02T12:54:03Z</time>
      </trkpt>
      <trkpt lat="45.915801962837577" lon="8.381612990051508">
        <ele>1234.4702150000001</ele>
        <time>2010-06-02T12:54:24Z</time>
      </trkpt>
      <trkpt lat="45.9157869592309" lon="8.381738970056176">
        <ele>1237.354004</ele>
        <time>2010-06-02T12:54:48Z</time>
      </trkpt>
      <trkpt lat="45.915802968665957" lon="8.381860004737973">
        <ele>1240.7185059999999</ele>
        <time>2010-06-02T12:55:03Z</time>
      </trkpt>
      <trkpt lat="45.915758963674307" lon="8.382254960015416">
        <ele>1245.5253909999999</ele>
        <time>2010-06-02T12:55:50Z</time>
      </trkpt>
      <trkpt lat="45.915769021958113" lon="8.382237022742629">
        <ele>1244.5639650000001</ele>
        <time>2010-06-02T12:55:51Z</time>
      </trkpt>
      <trkpt lat="45.915868012234569" lon="8.382275998592377">
        <ele>1243.1218260000001</ele>
        <time>2010-06-02T12:56:33Z</time>
      </trkpt>
      <trkpt lat="45.915690986439586" lon="8.382435003295541">
        <ele>1241.679932</ele>
        <time>2010-06-02T12:57:59Z</time>
      </trkpt>
      <trkpt lat="45.915212966501713" lon="8.382617980241776">
        <ele>1242.641357</ele>
        <time>2010-06-02T12:58:38Z</time>
      </trkpt>
      <trkpt lat="45.915279015898705" lon="8.382602976635099">
        <ele>1243.602539</ele>
        <time>2010-06-02T12:59:04Z</time>
      </trkpt>
      <trkpt lat="45.914536966010928" lon="8.383178981021047">
        <ele>1246.4868160000001</ele>
        <time>2010-06-02T13:00:12Z</time>
      </trkpt>
      <trkpt lat="45.914492961019278" lon="8.383245030418038">
        <ele>1249.3706050000001</ele>
        <time>2010-06-02T13:00:24Z</time>
      </trkpt>
      <trkpt lat="45.914490027353168" lon="8.38331300765276">
        <ele>1249.851318</ele>
        <time>2010-06-02T13:00:42Z</time>
      </trkpt>
      <trkpt lat="45.914284000173211" lon="8.3833990059793">
        <ele>1250.8125</ele>
        <time>2010-06-02T13:01:10Z</time>
      </trkpt>
      <trkpt lat="45.914278971031308" lon="8.38359204120934">
        <ele>1252.2543949999999</ele>
        <time>2010-06-02T13:01:46Z</time>
      </trkpt>
      <trkpt lat="45.914233960211277" lon="8.383630011230707">
        <ele>1252.2543949999999</ele>
        <time>2010-06-02T13:02:06Z</time>
      </trkpt>
      <trkpt lat="45.914251981303096" lon="8.383668987080455">
        <ele>1252.735107</ele>
        <time>2010-06-02T13:02:30Z</time>
      </trkpt>
      <trkpt lat="45.914360024034977" lon="8.38372003287077">
        <ele>1252.2543949999999</ele>
        <time>2010-06-02T13:03:00Z</time>
      </trkpt>
      <trkpt lat="45.914248963817954" lon="8.383738975971937">
        <ele>1252.2543949999999</ele>
        <time>2010-06-02T13:03:31Z</time>
      </trkpt>
      <trkpt lat="45.914061041548848" lon="8.38380603119731">
        <ele>1252.735107</ele>
        <time>2010-06-02T13:03:46Z</time>
      </trkpt>
      <trkpt lat="45.914034973829985" lon="8.383840983733535">
        <ele>1252.735107</ele>
        <time>2010-06-02T13:03:49Z</time>
      </trkpt>
      <trkpt lat="45.913931960240006" lon="8.383951960131526">
        <ele>1253.696533</ele>
        <time>2010-06-02T13:04:02Z</time>
      </trkpt>
      <trkpt lat="45.913893990218639" lon="8.384189000353217">
        <ele>1254.6577150000001</ele>
        <time>2010-06-02T13:04:22Z</time>
      </trkpt>
      <trkpt lat="45.913897007703781" lon="8.384205009788275">
        <ele>1254.177246</ele>
        <time>2010-06-02T13:05:01Z</time>
      </trkpt>
      <trkpt lat="45.913889966905117" lon="8.384229987859726">
        <ele>1254.177246</ele>
        <time>2010-06-02T13:05:04Z</time>
      </trkpt>
      <trkpt lat="45.913869012147188" lon="8.384307017549872">
        <ele>1254.177246</ele>
        <time>2010-06-02T13:05:08Z</time>
      </trkpt>
      <trkpt lat="45.913773961365223" lon="8.384381029754877">
        <ele>1255.6191409999999</ele>
        <time>2010-06-02T13:05:21Z</time>
      </trkpt>
      <trkpt lat="45.913756024092436" lon="8.384385975077748">
        <ele>1255.6191409999999</ele>
        <time>2010-06-02T13:05:23Z</time>
      </trkpt>
      <trkpt lat="45.913729034364223" lon="8.38438899256289">
        <ele>1255.6191409999999</ele>
        <time>2010-06-02T13:05:25Z</time>
      </trkpt>
      <trkpt lat="45.913533987477422" lon="8.384496029466391">
        <ele>1255.6191409999999</ele>
        <time>2010-06-02T13:05:39Z</time>
      </trkpt>
      <trkpt lat="45.913446983322501" lon="8.384510027244687">
        <ele>1255.138428</ele>
        <time>2010-06-02T13:05:53Z</time>
      </trkpt>
      <trkpt lat="45.913364002481103" lon="8.384457975625992">
        <ele>1256.580322</ele>
        <time>2010-06-02T13:06:16Z</time>
      </trkpt>
      <trkpt lat="45.913206003606319" lon="8.384425034746528">
        <ele>1256.0996090000001</ele>
        <time>2010-06-02T13:06:29Z</time>
      </trkpt>
      <trkpt lat="45.913086980581284" lon="8.384397039189935">
        <ele>1255.6191409999999</ele>
        <time>2010-06-02T13:06:40Z</time>
      </trkpt>
      <trkpt lat="45.913006011396646" lon="8.384311040863395">
        <ele>1255.138428</ele>
        <time>2010-06-02T13:06:53Z</time>
      </trkpt>
      <trkpt lat="45.912996958941221" lon="8.384118005633354">
        <ele>1255.6191409999999</ele>
        <time>2010-06-02T13:07:07Z</time>
      </trkpt>
      <trkpt lat="45.91299201361835" lon="8.384052040055394">
        <ele>1255.6191409999999</ele>
        <time>2010-06-02T13:07:11Z</time>
      </trkpt>
      <trkpt lat="45.912959994748235" lon="8.383921030908823">
        <ele>1254.6577150000001</ele>
        <time>2010-06-02T13:07:30Z</time>
      </trkpt>
      <trkpt lat="45.912966029718518" lon="8.383919019252062">
        <ele>1255.138428</ele>
        <time>2010-06-02T13:07:36Z</time>
      </trkpt>
      <trkpt lat="45.913017997518182" lon="8.384010968729854">
        <ele>1256.580322</ele>
        <time>2010-06-02T13:08:15Z</time>
      </trkpt>
      <trkpt lat="45.913028977811337" lon="8.384053967893124">
        <ele>1256.580322</ele>
        <time>2010-06-02T13:08:18Z</time>
      </trkpt>
      <trkpt lat="45.913029983639717" lon="8.38408699259162">
        <ele>1257.5417480000001</ele>
        <time>2010-06-02T13:08:20Z</time>
      </trkpt>
      <trkpt lat="45.913116987794638" lon="8.384148012846708">
        <ele>1259.9448239999999</ele>
        <time>2010-06-02T13:08:30Z</time>
      </trkpt>
      <trkpt lat="45.913261994719505" lon="8.384115993976593">
        <ele>1262.8291019999999</ele>
        <time>2010-06-02T13:08:42Z</time>
      </trkpt>
      <trkpt lat="45.913271969184279" lon="8.384114988148212">
        <ele>1263.309814</ele>
        <time>2010-06-02T13:08:43Z</time>
      </trkpt>
      <trkpt lat="45.913382023572922" lon="8.384081963449717">
        <ele>1266.6743160000001</ele>
        <time>2010-06-02T13:08:56Z</time>
      </trkpt>
      <trkpt lat="45.913415970280766" lon="8.384074000641704">
        <ele>1269.0776370000001</ele>
        <time>2010-06-02T13:09:01Z</time>
      </trkpt>
      <trkpt lat="45.913433991372585" lon="8.384072994813323">
        <ele>1271.4807129999999</ele>
        <time>2010-06-02T13:09:04Z</time>
      </trkpt>
      <trkpt lat="45.913443965837359" lon="8.384041981771588">
        <ele>1271.0002440000001</ele>
        <time>2010-06-02T13:09:07Z</time>
      </trkpt>
      <trkpt lat="45.913471039384604" lon="8.383822962641716">
        <ele>1271.9614260000001</ele>
        <time>2010-06-02T13:09:21Z</time>
      </trkpt>
      <trkpt lat="45.913481013849378" lon="8.383674016222358">
        <ele>1272.442139</ele>
        <time>2010-06-02T13:09:32Z</time>
      </trkpt>
      <trkpt lat="45.913500962778926" lon="8.383630011230707">
        <ele>1273.403564</ele>
        <time>2010-06-02T13:09:35Z</time>
      </trkpt>
      <trkpt lat="45.913501968607306" lon="8.383590029552579">
        <ele>1274.8454589999999</ele>
        <time>2010-06-02T13:09:39Z</time>
      </trkpt>
      <trkpt lat="45.913519989699125" lon="8.383514005690813">
        <ele>1276.768311</ele>
        <time>2010-06-02T13:09:45Z</time>
      </trkpt>
      <trkpt lat="45.913518983870745" lon="8.383396994322538">
        <ele>1280.613525</ele>
        <time>2010-06-02T13:09:57Z</time>
      </trkpt>
      <trkpt lat="45.91353096999228" lon="8.383319964632392">
        <ele>1283.9780270000001</ele>
        <time>2010-06-02T13:10:07Z</time>
      </trkpt>
      <trkpt lat="45.913520995527506" lon="8.383304961025715">
        <ele>1284.939453</ele>
        <time>2010-06-02T13:10:09Z</time>
      </trkpt>
      <trkpt lat="45.913514960557222" lon="8.383179986849427">
        <ele>1287.8232419999999</ele>
        <time>2010-06-02T13:10:24Z</time>
      </trkpt>
      <trkpt lat="45.913484031334519" lon="8.383101029321551">
        <ele>1290.7070309999999</ele>
        <time>2010-06-02T13:10:35Z</time>
      </trkpt>
      <trkpt lat="45.913491994142532" lon="8.383084014058113">
        <ele>1291.668457</ele>
        <time>2010-06-02T13:10:37Z</time>
      </trkpt>
      <trkpt lat="45.913505991920829" lon="8.382990974932909">
        <ele>1294.55249</ele>
        <time>2010-06-02T13:10:49Z</time>
      </trkpt>
      <trkpt lat="45.913515966385603" lon="8.382953004911542">
        <ele>1296.475342</ele>
        <time>2010-06-02T13:10:56Z</time>
      </trkpt>
      <trkpt lat="45.913527030497789" lon="8.382809003815055">
        <ele>1299.3591309999999</ele>
        <time>2010-06-02T13:11:13Z</time>
      </trkpt>
      <trkpt lat="45.913520995527506" lon="8.3826909866184">
        <ele>1302.2429199999999</ele>
        <time>2010-06-02T13:11:24Z</time>
      </trkpt>
      <trkpt lat="45.913558965548873" lon="8.382553020492196">
        <ele>1305.6076660000001</ele>
        <time>2010-06-02T13:11:52Z</time>
      </trkpt>
      <trkpt lat="45.913581009954214" lon="8.382461993023753">
        <ele>1308.9724120000001</ele>
        <time>2010-06-02T13:12:08Z</time>
      </trkpt>
      <trkpt lat="45.913596013560891" lon="8.382340958341956">
        <ele>1312.336914</ele>
        <time>2010-06-02T13:12:19Z</time>
      </trkpt>
      <trkpt lat="45.913611017167568" lon="8.382310029119253">
        <ele>1313.7788089999999</ele>
        <time>2010-06-02T13:12:23Z</time>
      </trkpt>
      <trkpt lat="45.913603976368904" lon="8.382236016914249">
        <ele>1317.1435550000001</ele>
        <time>2010-06-02T13:12:32Z</time>
      </trkpt>
      <trkpt lat="45.913631971925497" lon="8.382141971960664">
        <ele>1320.0273440000001</ele>
        <time>2010-06-02T13:12:43Z</time>
      </trkpt>
      <trkpt lat="45.913706989958882" lon="8.382053961977363">
        <ele>1323.3920900000001</ele>
        <time>2010-06-02T13:13:07Z</time>
      </trkpt>
      <trkpt lat="45.913802962750196" lon="8.382033007219434">
        <ele>1326.2761230000001</ele>
        <time>2010-06-02T13:13:19Z</time>
      </trkpt>
      <trkpt lat="45.913842022418976" lon="8.382048010826111">
        <ele>1329.640625</ele>
        <time>2010-06-02T13:13:28Z</time>
      </trkpt>
      <trkpt lat="45.913918968290091" lon="8.381895963102579">
        <ele>1330.1213379999999</ele>
        <time>2010-06-02T13:14:17Z</time>
      </trkpt>
      <trkpt lat="45.913917040452361" lon="8.381880959495902">
        <ele>1329.640625</ele>
        <time>2010-06-02T13:14:18Z</time>
      </trkpt>
      <trkpt lat="45.913950987160206" lon="8.381677027791739">
        <ele>1332.524658</ele>
        <time>2010-06-02T13:14:32Z</time>
      </trkpt>
      <trkpt lat="45.913989963009953" lon="8.381607038900256">
        <ele>1334.4472659999999</ele>
        <time>2010-06-02T13:14:39Z</time>
      </trkpt>
      <trkpt lat="45.914028016850352" lon="8.381555993109942">
        <ele>1337.3310550000001</ele>
        <time>2010-06-02T13:15:03Z</time>
      </trkpt>
      <trkpt lat="45.914035979658365" lon="8.38155398145318">
        <ele>1337.811768</ele>
        <time>2010-06-02T13:15:04Z</time>
      </trkpt>
      <trkpt lat="45.914072021842003" lon="8.381474018096924">
        <ele>1338.2924800000001</ele>
        <time>2010-06-02T13:15:29Z</time>
      </trkpt>
      <trkpt lat="45.914070010185242" lon="8.381464965641499">
        <ele>1339.2536620000001</ele>
        <time>2010-06-02T13:15:46Z</time>
      </trkpt>
      <trkpt lat="45.914005972445011" lon="8.381422972306609">
        <ele>1342.137939</ele>
        <time>2010-06-02T13:16:18Z</time>
      </trkpt>
      <trkpt lat="45.91400102712214" lon="8.381420960649848">
        <ele>1341.6572269999999</ele>
        <time>2010-06-02T13:16:19Z</time>
      </trkpt>
      <trkpt lat="45.913995997980237" lon="8.381421966478229">
        <ele>1338.773193</ele>
        <time>2010-06-02T13:16:22Z</time>
      </trkpt>
      <trkpt lat="45.913993986323476" lon="8.381422972306609">
        <ele>1337.811768</ele>
        <time>2010-06-02T13:16:24Z</time>
      </trkpt>
      <trkpt lat="45.913942018523812" lon="8.381407968699932">
        <ele>1336.3698730000001</ele>
        <time>2010-06-02T13:16:42Z</time>
      </trkpt>
      <trkpt lat="45.913903964683414" lon="8.381419032812119">
        <ele>1334.9279790000001</ele>
        <time>2010-06-02T13:16:47Z</time>
      </trkpt>
      <trkpt lat="45.913863983005285" lon="8.381422972306609">
        <ele>1333.4858400000001</ele>
        <time>2010-06-02T13:16:51Z</time>
      </trkpt>
      <trkpt lat="45.913822995498776" lon="8.381450967863202">
        <ele>1333.0051269999999</ele>
        <time>2010-06-02T13:16:55Z</time>
      </trkpt>
      <trkpt lat="45.913752000778913" lon="8.381533026695252">
        <ele>1332.524658</ele>
        <time>2010-06-02T13:17:07Z</time>
      </trkpt>
      <trkpt lat="45.91370003297925" lon="8.381608966737986">
        <ele>1330.1213379999999</ele>
        <time>2010-06-02T13:17:24Z</time>
      </trkpt>
      <trkpt lat="45.913689974695444" lon="8.381633022800088">
        <ele>1329.1599120000001</ele>
        <time>2010-06-02T13:17:27Z</time>
      </trkpt>
      <trkpt lat="45.913715958595276" lon="8.381719021126628">
        <ele>1327.2375489999999</ele>
        <time>2010-06-02T13:17:33Z</time>
      </trkpt>
      <trkpt lat="45.913717970252037" lon="8.38174601085484">
        <ele>1328.1987300000001</ele>
        <time>2010-06-02T13:17:35Z</time>
      </trkpt>
      <trkpt lat="45.913746971637011" lon="8.381965029984713">
        <ele>1327.2375489999999</ele>
        <time>2010-06-02T13:17:48Z</time>
      </trkpt>
      <trkpt lat="45.913683017715812" lon="8.382072988897562">
        <ele>1323.8725589999999</ele>
        <time>2010-06-02T13:17:57Z</time>
      </trkpt>
      <trkpt lat="45.913642030209303" lon="8.382113976404071">
        <ele>1324.3535159999999</ele>
        <time>2010-06-02T13:18:01Z</time>
      </trkpt>
      <trkpt lat="45.913626020774245" lon="8.382163010537624">
        <ele>1322.9113769999999</ele>
        <time>2010-06-02T13:18:04Z</time>
      </trkpt>
      <trkpt lat="45.913609005510807" lon="8.382222019135952">
        <ele>1320.9887699999999</ele>
        <time>2010-06-02T13:18:09Z</time>
      </trkpt>
      <trkpt lat="45.913607999682426" lon="8.38224096223712">
        <ele>1319.0661620000001</ele>
        <time>2010-06-02T13:18:12Z</time>
      </trkpt>
      <trkpt lat="45.913589978590608" lon="8.382310029119253">
        <ele>1316.662842</ele>
        <time>2010-06-02T13:18:33Z</time>
      </trkpt>
      <trkpt lat="45.913558965548873" lon="8.38241103105247">
        <ele>1314.2595209999999</ele>
        <time>2010-06-02T13:18:41Z</time>
      </trkpt>
      <trkpt lat="45.913541028276086" lon="8.382472973316908">
        <ele>1310.8950199999999</ele>
        <time>2010-06-02T13:18:46Z</time>
      </trkpt>
      <trkpt lat="45.91353096999228" lon="8.382569029927254">
        <ele>1307.5302730000001</ele>
        <time>2010-06-02T13:18:56Z</time>
      </trkpt>
      <trkpt lat="45.913494005799294" lon="8.382630972191691">
        <ele>1305.126953</ele>
        <time>2010-06-02T13:19:02Z</time>
      </trkpt>
      <trkpt lat="45.913495011627674" lon="8.382676988840103">
        <ele>1303.204346</ele>
        <time>2010-06-02T13:19:05Z</time>
      </trkpt>
      <trkpt lat="45.913503980264068" lon="8.382789976894856">
        <ele>1299.8398440000001</ele>
        <time>2010-06-02T13:19:13Z</time>
      </trkpt>
      <trkpt lat="45.913492999970913" lon="8.382855020463467">
        <ele>1298.3977050000001</ele>
        <time>2010-06-02T13:19:19Z</time>
      </trkpt>
      <trkpt lat="45.913476990535855" lon="8.382953004911542">
        <ele>1295.033203</ele>
        <time>2010-06-02T13:19:29Z</time>
      </trkpt>
      <trkpt lat="45.913470033556223" lon="8.383074961602688">
        <ele>1291.668457</ele>
        <time>2010-06-02T13:19:39Z</time>
      </trkpt>
      <trkpt lat="45.913457963615656" lon="8.383106980472803">
        <ele>1291.668457</ele>
        <time>2010-06-02T13:19:41Z</time>
      </trkpt>
      <trkpt lat="45.913472967222333" lon="8.383203037083149">
        <ele>1289.2651370000001</ele>
        <time>2010-06-02T13:19:49Z</time>
      </trkpt>
      <trkpt lat="45.913468021899462" lon="8.383248969912529">
        <ele>1285.900635</ele>
        <time>2010-06-02T13:19:53Z</time>
      </trkpt>
      <trkpt lat="45.913498029112816" lon="8.383333962410688">
        <ele>1283.0166019999999</ele>
        <time>2010-06-02T13:20:03Z</time>
      </trkpt>
      <trkpt lat="45.913495011627674" lon="8.383361035957933">
        <ele>1282.5361330000001</ele>
        <time>2010-06-02T13:20:06Z</time>
      </trkpt>
      <trkpt lat="45.913484031334519" lon="8.383416021242738">
        <ele>1279.6521</ele>
        <time>2010-06-02T13:20:10Z</time>
      </trkpt>
      <trkpt lat="45.913480008020997" lon="8.383565973490477">
        <ele>1275.8066409999999</ele>
        <time>2010-06-02T13:20:23Z</time>
      </trkpt>
      <trkpt lat="45.913463998585939" lon="8.383609978482127">
        <ele>1275.8066409999999</ele>
        <time>2010-06-02T13:20:27Z</time>
      </trkpt>
      <trkpt lat="45.913469027727842" lon="8.383652977645397">
        <ele>1273.884033</ele>
        <time>2010-06-02T13:20:30Z</time>
      </trkpt>
      <trkpt lat="45.913474978879094" lon="8.383676027879119">
        <ele>1272.442139</ele>
        <time>2010-06-02T13:20:32Z</time>
      </trkpt>
      <trkpt lat="45.91344203799963" lon="8.383986996486783">
        <ele>1270.5195309999999</ele>
        <time>2010-06-02T13:20:48Z</time>
      </trkpt>
      <trkpt lat="45.913430973887444" lon="8.38402496650815">
        <ele>1271.4807129999999</ele>
        <time>2010-06-02T13:20:50Z</time>
      </trkpt>
      <trkpt lat="45.913387974724174" lon="8.384078023955226">
        <ele>1270.038818</ele>
        <time>2010-06-02T13:20:54Z</time>
      </trkpt>
      <trkpt lat="45.913226958364248" lon="8.38410803116858">
        <ele>1266.6743160000001</ele>
        <time>2010-06-02T13:21:07Z</time>
      </trkpt>
      <trkpt lat="45.913208015263081" lon="8.384121023118496">
        <ele>1265.232422</ele>
        <time>2010-06-02T13:21:09Z</time>
      </trkpt>
      <trkpt lat="45.913111958652735" lon="8.384158993139863">
        <ele>1260.9064940000001</ele>
        <time>2010-06-02T13:21:16Z</time>
      </trkpt>
      <trkpt lat="45.913074994459748" lon="8.384154969826341">
        <ele>1259.4643550000001</ele>
        <time>2010-06-02T13:21:19Z</time>
      </trkpt>
      <trkpt lat="45.913062002509832" lon="8.384092021733522">
        <ele>1256.0996090000001</ele>
        <time>2010-06-02T13:21:23Z</time>
      </trkpt>
      <trkpt lat="45.913059990853071" lon="8.384075006470084">
        <ele>1255.6191409999999</ele>
        <time>2010-06-02T13:21:24Z</time>
      </trkpt>
      <trkpt lat="45.913056973367929" lon="8.38402496650815">
        <ele>1256.580322</ele>
        <time>2010-06-02T13:21:28Z</time>
      </trkpt>
      <trkpt lat="45.913039958104491" lon="8.38397802785039">
        <ele>1255.6191409999999</ele>
        <time>2010-06-02T13:21:32Z</time>
      </trkpt>
      <trkpt lat="45.912982961162925" lon="8.38393896818161">
        <ele>1255.6191409999999</ele>
        <time>2010-06-02T13:21:50Z</time>
      </trkpt>
      <trkpt lat="45.9129289817065" lon="8.383831009268761">
        <ele>1253.2158199999999</ele>
        <time>2010-06-02T13:22:03Z</time>
      </trkpt>
      <trkpt lat="45.912807025015354" lon="8.383692959323525">
        <ele>1249.851318</ele>
        <time>2010-06-02T13:22:16Z</time>
      </trkpt>
      <trkpt lat="45.912767965346575" lon="8.383631017059088">
        <ele>1249.851318</ele>
        <time>2010-06-02T13:22:20Z</time>
      </trkpt>
      <trkpt lat="45.912770982831717" lon="8.38376403786242">
        <ele>1247.928711</ele>
        <time>2010-06-02T13:22:30Z</time>
      </trkpt>
      <trkpt lat="45.912778023630381" lon="8.383813994005323">
        <ele>1246.9672849999999</ele>
        <time>2010-06-02T13:22:32Z</time>
      </trkpt>
      <trkpt lat="45.912771988660097" lon="8.383910972625017">
        <ele>1245.5253909999999</ele>
        <time>2010-06-02T13:22:37Z</time>
      </trkpt>
      <trkpt lat="45.912719015032053" lon="8.38425999507308">
        <ele>1242.1606449999999</ele>
        <time>2010-06-02T13:22:52Z</time>
      </trkpt>
      <trkpt lat="45.912672998383641" lon="8.3845179900527">
        <ele>1239.276611</ele>
        <time>2010-06-02T13:23:04Z</time>
      </trkpt>
      <trkpt lat="45.912692025303841" lon="8.384715970605612">
        <ele>1236.392822</ele>
        <time>2010-06-02T13:23:14Z</time>
      </trkpt>
      <trkpt lat="45.912680039182305" lon="8.384791994467378">
        <ele>1234.950928</ele>
        <time>2010-06-02T13:23:18Z</time>
      </trkpt>
      <trkpt lat="45.912700993940234" lon="8.385074967518449">
        <ele>1232.0668949999999</ele>
        <time>2010-06-02T13:23:31Z</time>
      </trkpt>
      <trkpt lat="45.912721026688814" lon="8.385150991380215">
        <ele>1230.625</ele>
        <time>2010-06-02T13:23:36Z</time>
      </trkpt>
      <trkpt lat="45.912727983668447" lon="8.385217962786555">
        <ele>1230.1442870000001</ele>
        <time>2010-06-02T13:23:42Z</time>
      </trkpt>
      <trkpt lat="45.912755979225039" lon="8.385357018560171">
        <ele>1228.2216800000001</ele>
        <time>2010-06-02T13:23:49Z</time>
      </trkpt>
      <trkpt lat="45.912747010588646" lon="8.385423989966512">
        <ele>1227.260254</ele>
        <time>2010-06-02T13:23:52Z</time>
      </trkpt>
      <trkpt lat="45.912749022245407" lon="8.385688019916415">
        <ele>1225.818115</ele>
        <time>2010-06-02T13:24:06Z</time>
      </trkpt>
      <trkpt lat="45.912737958133221" lon="8.385888012126088">
        <ele>1222.9343260000001</ele>
        <time>2010-06-02T13:24:19Z</time>
      </trkpt>
      <trkpt lat="45.912610972300172" lon="8.386033019050956">
        <ele>1220.050293</ele>
        <time>2010-06-02T13:24:35Z</time>
      </trkpt>
      <trkpt lat="45.912609966471791" lon="8.386035030707717">
        <ele>1221.9729</ele>
        <time>2010-06-02T13:24:45Z</time>
      </trkpt>
      <trkpt lat="45.912490021437407" lon="8.386083981022239">
        <ele>1218.127686</ele>
        <time>2010-06-02T13:24:56Z</time>
      </trkpt>
      <trkpt lat="45.912269996479154" lon="8.386103007942438">
        <ele>1214.7631839999999</ele>
        <time>2010-06-02T13:25:09Z</time>
      </trkpt>
      <trkpt lat="45.912248035892844" lon="8.386133015155792">
        <ele>1213.8017580000001</ele>
        <time>2010-06-02T13:25:11Z</time>
      </trkpt>
      <trkpt lat="45.912243006750941" lon="8.386174002662301">
        <ele>1213.8017580000001</ele>
        <time>2010-06-02T13:25:13Z</time>
      </trkpt>
      <trkpt lat="45.91226396150887" lon="8.386234017089009">
        <ele>1211.3984379999999</ele>
        <time>2010-06-02T13:25:17Z</time>
      </trkpt>
      <trkpt lat="45.912316013127565" lon="8.386283973231912">
        <ele>1211.87915</ele>
        <time>2010-06-02T13:25:22Z</time>
      </trkpt>
      <trkpt lat="45.912551041692495" lon="8.386326972395182">
        <ele>1208.514404</ele>
        <time>2010-06-02T13:25:35Z</time>
      </trkpt>
      <trkpt lat="45.912775006145239" lon="8.386315992102027">
        <ele>1205.630615</ele>
        <time>2010-06-02T13:25:48Z</time>
      </trkpt>
      <trkpt lat="45.912837032228708" lon="8.386267041787505">
        <ele>1203.7080080000001</ele>
        <time>2010-06-02T13:25:54Z</time>
      </trkpt>
      <trkpt lat="45.912880031391978" lon="8.386325966566801">
        <ele>1202.2658690000001</ele>
        <time>2010-06-02T13:25:58Z</time>
      </trkpt>
      <trkpt lat="45.912878019735217" lon="8.386401990428567">
        <ele>1201.3046879999999</ele>
        <time>2010-06-02T13:26:02Z</time>
      </trkpt>
      <trkpt lat="45.912697976455092" lon="8.386549009010196">
        <ele>1196.017578</ele>
        <time>2010-06-02T13:26:17Z</time>
      </trkpt>
      <trkpt lat="45.912510976195335" lon="8.386592008173466">
        <ele>1193.1333010000001</ele>
        <time>2010-06-02T13:26:28Z</time>
      </trkpt>
      <trkpt lat="45.912452973425388" lon="8.386641964316368">
        <ele>1191.6914059999999</ele>
        <time>2010-06-02T13:26:33Z</time>
      </trkpt>
      <trkpt lat="45.912244012579322" lon="8.386787977069616">
        <ele>1189.7687989999999</ele>
        <time>2010-06-02T13:26:46Z</time>
      </trkpt>
      <trkpt lat="45.912179974839091" lon="8.386840028688312">
        <ele>1189.288086</ele>
        <time>2010-06-02T13:26:50Z</time>
      </trkpt>
      <trkpt lat="45.911988029256463" lon="8.386971037834883">
        <ele>1185.442871</ele>
        <time>2010-06-02T13:27:06Z</time>
      </trkpt>
      <trkpt lat="45.91174503788352" lon="8.387077990919352">
        <ele>1182.559082</ele>
        <time>2010-06-02T13:27:20Z</time>
      </trkpt>
      <trkpt lat="45.911690974608064" lon="8.387048989534378">
        <ele>1181.1171879999999</ele>
        <time>2010-06-02T13:27:24Z</time>
      </trkpt>
      <trkpt lat="45.911585027351975" lon="8.386995010077953">
        <ele>1183.0395510000001</ele>
        <time>2010-06-02T13:27:30Z</time>
      </trkpt>
      <trkpt lat="45.911523001268506" lon="8.387018982321024">
        <ele>1182.0783690000001</ele>
        <time>2010-06-02T13:27:34Z</time>
      </trkpt>
      <trkpt lat="45.911513026803732" lon="8.387083020061255">
        <ele>1180.1557620000001</ele>
        <time>2010-06-02T13:27:38Z</time>
      </trkpt>
      <trkpt lat="45.911597013473511" lon="8.387232972308993">
        <ele>1178.2329099999999</ele>
        <time>2010-06-02T13:27:48Z</time>
      </trkpt>
      <trkpt lat="45.911684017628431" lon="8.387337997555733">
        <ele>1176.310303</ele>
        <time>2010-06-02T13:27:55Z</time>
      </trkpt>
      <trkpt lat="45.911650992929935" lon="8.387425001710653">
        <ele>1174.868408</ele>
        <time>2010-06-02T13:28:01Z</time>
      </trkpt>
      <trkpt lat="45.911625009030104" lon="8.387414021417499">
        <ele>1174.868408</ele>
        <time>2010-06-02T13:28:03Z</time>
      </trkpt>
      <trkpt lat="45.911549990996718" lon="8.387329028919339">
        <ele>1172.9458010000001</ele>
        <time>2010-06-02T13:28:09Z</time>
      </trkpt>
      <trkpt lat="45.911385035142303" lon="8.387190978974104">
        <ele>1170.061768</ele>
        <time>2010-06-02T13:28:22Z</time>
      </trkpt>
      <trkpt lat="45.911257965490222" lon="8.387080002576113">
        <ele>1168.1391599999999</ele>
        <time>2010-06-02T13:28:32Z</time>
      </trkpt>
      <trkpt lat="45.911116981878877" lon="8.386971959844232">
        <ele>1167.1779790000001</ele>
        <time>2010-06-02T13:28:43Z</time>
      </trkpt>
      <trkpt lat="45.911049004644156" lon="8.386919992044568">
        <ele>1166.6972659999999</ele>
        <time>2010-06-02T13:28:47Z</time>
      </trkpt>
      <trkpt lat="45.910968035459518" lon="8.386971037834883">
        <ele>1166.6972659999999</ele>
        <time>2010-06-02T13:28:53Z</time>
      </trkpt>
      <trkpt lat="45.910954959690571" lon="8.387070028111339">
        <ele>1165.255371</ele>
        <time>2010-06-02T13:28:58Z</time>
      </trkpt>
      <trkpt lat="45.910809030756354" lon="8.387321988120675">
        <ele>1163.3325199999999</ele>
        <time>2010-06-02T13:29:13Z</time>
      </trkpt>
      <trkpt lat="45.91075798496604" lon="8.38741896674037">
        <ele>1163.8129879999999</ele>
        <time>2010-06-02T13:29:19Z</time>
      </trkpt>
      <trkpt lat="45.910575008019805" lon="8.38724403642118">
        <ele>1163.8129879999999</ele>
        <time>2010-06-02T13:29:34Z</time>
      </trkpt>
      <trkpt lat="45.910387001931667" lon="8.387126019224525">
        <ele>1163.8129879999999</ele>
        <time>2010-06-02T13:29:48Z</time>
      </trkpt>
      <trkpt lat="45.91017602942884" lon="8.387006996199489">
        <ele>1163.8129879999999</ele>
        <time>2010-06-02T13:30:02Z</time>
      </trkpt>
      <trkpt lat="45.9099639672786" lon="8.386939018964768">
        <ele>1162.851807</ele>
        <time>2010-06-02T13:30:18Z</time>
      </trkpt>
      <trkpt lat="45.909766992554069" lon="8.386901970952749">
        <ele>1159.9677730000001</ele>
        <time>2010-06-02T13:30:31Z</time>
      </trkpt>
      <trkpt lat="45.90966397896409" lon="8.386827036738396">
        <ele>1159.4873050000001</ele>
        <time>2010-06-02T13:30:39Z</time>
      </trkpt>
      <trkpt lat="45.909410007297993" lon="8.386714970692992">
        <ele>1158.0454099999999</ele>
        <time>2010-06-02T13:30:56Z</time>
      </trkpt>
      <trkpt lat="45.909240022301674" lon="8.386625032871962">
        <ele>1158.0454099999999</ele>
        <time>2010-06-02T13:31:09Z</time>
      </trkpt>
      <trkpt lat="45.909095015376806" lon="8.386754030361772">
        <ele>1157.0839840000001</ele>
        <time>2010-06-02T13:31:24Z</time>
      </trkpt>
      <trkpt lat="45.909085962921381" lon="8.386813960969448">
        <ele>1156.6032709999999</ele>
        <time>2010-06-02T13:31:27Z</time>
      </trkpt>
      <trkpt lat="45.908970963209867" lon="8.387020993977785">
        <ele>1155.6420900000001</ele>
        <time>2010-06-02T13:31:40Z</time>
      </trkpt>
      <trkpt lat="45.908768959343433" lon="8.387073967605829">
        <ele>1155.1613769999999</ele>
        <time>2010-06-02T13:31:54Z</time>
      </trkpt>
      <trkpt lat="45.908548012375832" lon="8.387085031718016">
        <ele>1153.2387699999999</ele>
        <time>2010-06-02T13:32:09Z</time>
      </trkpt>
      <trkpt lat="45.90835003182292" lon="8.387090982869268">
        <ele>1152.2773440000001</ele>
        <time>2010-06-02T13:32:23Z</time>
      </trkpt>
      <trkpt lat="45.908269984647632" lon="8.387076985090971">
        <ele>1152.2773440000001</ele>
        <time>2010-06-02T13:32:39Z</time>
      </trkpt>
      <trkpt lat="45.908326981589198" lon="8.387134987860918">
        <ele>1152.758057</ele>
        <time>2010-06-02T13:33:30Z</time>
      </trkpt>
    </trkseg>
  </trk>

</gpx>